[[{"header":{"parameterUnit":"m.s-1","parameterCategory":1,"la1":31.0,"la2":29.5877,"lo1":-88.7671,"lo2":-86.6584,"dy":0.0162,"dx":0.0185,"nx":115,"ny":88,"refTime":"2023-09-03T18:00:00:Z","depth":0,"parameterNumber":2,"parameterNumberName":"U-component_of_WINDS"},"data":[0.0,0.0,0.0,0.0,0.0,0.0,0.0,0.0,0.0,0.0,0.0,0.0,0.0,0.0,0.0,0.0,0.0,0.0,0.0,0.0,0.0,0.0,0.0,0.0,0.0,0.0,0.0,0.0,0.0,0.0,0.0,0.0,0.0,0.0,0.0,0.0,0.0,0.0,0.0,0.0,0.0,0.0,0.0,0.0,0.0,0.0,0.0,0.0,0.0,0.0,0.0,0.0,0.0,0.0,0.0,0.0,0.0,0.0,0.0,0.0,0.0,0.0,0.0,0.0,0.0,0.0,0.0,0.0,0.0,0.0,0.0,0.0,0.0,0.0,0.0,0.0,0.0,0.0,0.0,0.0,0.0,0.0,0.0,0.0,0.0,0.0,0.0,0.0,0.0,0.0,0.0,0.0,0.0,0.0,0.0,0.0,0.0,0.0,0.0,0.0,0.0,0.0,0.0,0.0,0.0,0.0,0.0,0.0,0.0,0.0,0.0,0.0,0.0,0.0,0.0,0.0,0.0,0.0,0.0,0.0,0.0,0.0,0.0,0.0,0.0,0.0,0.0,0.0,0.0,0.0,0.0,0.0,0.0,0.0,0.0,0.0,0.0,0.0,0.0,0.0,0.0,0.0,0.0,0.0,0.0,0.0,0.0,0.0,0.0,0.0,0.0,0.0,0.0,0.0,0.0,0.0,0.0,0.0,0.0,0.0,0.0,0.0,0.0,0.0,0.0,0.0,0.0,0.0,0.0,0.0,0.0,0.0,0.0,0.0,0.0,0.0,0.0,0.0,0.0,0.0,0.0,0.0,0.0,0.0,0.0,0.0,0.0,0.0,0.0,0.0,0.0,0.0,0.0,0.0,0.0,0.0,0.0,0.0,0.0,0.0,0.0,0.0,0.0,0.0,0.0,0.0,0.0,0.0,0.0,0.0,0.0,0.0,0.0,0.0,0.0,0.0,0.0,0.0,0.0,0.0,0.0,0.0,0.0,0.0,0.0,0.0,0.0,0.0,0.0,0.0,0.0,0.0,0.0,0.0,0.0,0.0,0.0,0.0,0.0,0.0,0.0,0.0,0.0,0.0,0.0,0.0,0.0,0.0,0.0,0.0,0.0,0.0,0.0,0.0,0.0,0.0,0.0,0.0,0.0,0.0,0.0,0.0,0.0,0.0,0.0,0.0,0.0,0.0,0.0,0.0,0.0,0.0,0.0,0.0,0.0,0.0,0.0,0.0,0.0,0.0,0.0,0.0,0.0,0.0,0.0,0.0,0.0,0.0,0.0,0.0,0.0,0.0,0.0,0.0,0.0,0.0,0.0,0.0,0.0,0.0,0.0,0.0,0.0,0.0,0.0,0.0,0.0,0.0,0.0,0.0,0.0,0.0,0.0,0.0,0.0,0.0,0.0,0.0,0.0,0.0,0.0,0.0,0.0,0.0,0.0,0.0,0.0,0.0,0.0,0.0,0.0,0.0,0.0,0.0,0.0,0.0,0.0,0.0,0.0,0.0,0.0,0.0,0.0,0.0,0.0,0.0,0.0,0.0,0.0,0.0,0.0,0.0,0.0,0.0,0.0,0.0,0.0,0.0,0.0,0.0,0.0,0.0,0.0,0.0,0.0,0.0,0.0,0.0,0.0,0.0,0.0,0.0,0.0,0.0,0.0,0.0,0.0,0.0,0.0,0.0,0.0,0.0,0.0,0.0,0.0,0.0,0.0,0.0,0.0,0.0,0.0,0.0,0.0,0.0,0.0,0.0,0.0,0.0,0.0,0.0,0.0,0.0,0.0,0.0,0.0,0.0,0.0,0.0,0.0,0.0,0.0,0.0,0.0,0.0,0.0,0.0,0.0,0.0,0.0,0.0,0.0,0.0,0.0,0.0,0.0,0.0,0.0,0.0,0.0,0.0,0.0,0.0,0.0,0.0,0.0,0.0,0.0,0.0,0.0,0.0,0.0,0.0,0.0,0.0,0.0,0.0,0.0,0.0,0.0,0.0,0.0,0.0,0.0,0.0,0.0,0.0,0.0,0.0,0.0,0.0,0.0,0.0,0.0,0.0,0.0,0.0,0.0,0.0,0.0,0.0,0.0,0.0,0.0,0.0,0.0,0.0,0.0,0.0,0.0,0.0,0.0,0.0,0.0,0.0,0.0,0.0,0.0,0.0,0.0,0.0,0.0,0.0,0.0,0.0,0.0,0.0,0.0,0.0,0.0,0.0,0.0,0.0,0.0,0.0,0.0,0.0,0.0,0.0,0.0,0.0,0.0,0.0,0.0,0.0,0.0,0.0,0.0,0.0,0.0,0.0,0.0,0.0,0.0,0.0,0.0,0.0,0.0,0.0,0.0,0.0,0.0,0.0,0.0,0.0,0.0,0.0,0.0,0.0,0.0,0.0,0.0,0.0,0.0,0.0,0.0,0.0,0.0,0.0,0.0,0.0,0.0,0.0,0.0,0.0,0.0,0.0,0.0,0.0,0.0,0.0,0.0,0.0,0.0,0.0,0.0,0.0,0.0,0.0,0.0,0.0,0.0,0.0,0.0,0.0,0.0,0.0,0.0,0.0,0.0,0.0,0.0,0.0,0.0,0.0,0.0,0.0,0.0,0.0,0.0,0.0,0.0,0.0,0.0,0.0,0.0,0.0,0.0,0.0,0.0,0.0,0.0,0.0,0.0,0.0,0.0,0.0,0.0,0.0,0.0,0.0,0.0,0.0,0.0,0.0,0.0,0.0,0.0,0.0,0.0,0.0,0.0,0.0,0.0,0.0,0.0,0.0,0.0,0.0,0.0,0.0,0.0,0.0,0.0,0.0,0.0,0.0,0.0,0.0,0.0,0.0,0.0,0.0,0.0,0.0,0.0,0.0,0.0,0.0,0.0,0.0,0.0,0.0,0.0,0.0,0.0,0.0,0.0,0.0,0.0,0.0,0.0,0.0,0.0,0.0,0.0,0.0,0.0,0.0,0.0,0.0,0.0,0.0,0.0,0.0,0.0,0.0,0.0,0.0,0.0,0.0,0.0,0.0,0.0,0.0,0.0,0.0,0.0,0.0,0.0,0.0,0.0,0.0,0.0,0.0,0.0,0.0,0.0,0.0,0.0,0.0,0.0,0.0,0.0,0.0,0.0,0.0,0.0,0.0,0.0,0.0,0.0,0.0,0.0,0.0,0.0,0.0,0.0,0.0,0.0,0.0,0.0,0.0,0.0,0.0,0.0,0.0,0.0,0.0,0.0,0.0,0.0,0.0,0.0,0.0,0.0,0.0,0.0,0.0,0.0,0.0,0.0,0.0,0.0,0.0,0.0,0.0,0.0,0.0,0.0,0.0,0.0,0.0,0.0,0.0,0.0,0.0,0.0,0.0,0.0,0.0,0.0,0.0,0.0,0.0,0.0,0.0,0.0,0.0,0.0,0.0,0.0,0.0,0.0,0.0,0.0,0.0,0.0,0.0,0.0,0.0,0.0,0.0,0.0,0.0,0.0,0.0,0.0,0.0,0.0,0.0,0.0,0.0,0.0,0.0,0.0,0.0,0.0,0.0,0.0,0.0,0.0,0.0,0.0,0.0,0.0,0.0,0.0,0.0,0.0,0.0,0.0,0.0,0.0,0.0,0.0,0.0,0.0,0.0,0.0,0.0,0.0,0.0,0.0,0.0,0.0,0.0,0.0,0.0,0.0,0.0,0.0,0.0,0.0,0.0,0.0,0.0,0.0,0.0,0.0,0.0,0.0,0.0,0.0,0.0,0.0,0.0,0.0,0.0,0.0,0.0,0.0,0.0,0.0,0.0,0.0,0.0,0.0,0.0,0.0,0.0,0.0,0.0,0.0,0.0,0.0,0.0,0.0,0.0,0.0,0.0,0.0,0.0,0.0,0.0,0.0,0.0,0.0,0.0,0.0,0.0,0.0,0.0,0.0,0.0,0.0,0.0,0.0,0.0,0.0,0.0,0.0,0.0,0.0,0.0,0.0,0.0,0.0,0.0,0.0,0.0,0.0,0.0,0.0,0.0,0.0,0.0,0.0,0.0,0.0,0.0,0.0,0.0,0.0,0.0,0.0,0.0,0.0,0.0,0.0,0.0,0.0,0.0,0.0,0.0,0.0,0.0,0.0,0.0,0.0,0.0,0.0,0.0,0.0,0.0,0.0,0.0,0.0,0.0,0.0,0.0,0.0,0.0,0.0,0.0,0.0,0.0,0.0,0.0,0.0,0.0,0.0,0.0,0.0,0.0,0.0,0.0,0.0,0.0,0.0,0.0,0.0,0.0,0.0,0.0,0.0,0.0,-1.6513,0.0,0.0,0.0,0.0,0.0,0.0,0.0,0.0,0.0,0.0,0.0,0.0,0.0,0.0,0.0,0.0,0.0,0.0,0.0,0.0,0.0,0.0,0.0,0.0,0.0,0.0,0.0,0.0,0.0,0.0,0.0,0.0,0.0,0.0,0.0,0.0,0.0,0.0,0.0,0.0,0.0,0.0,0.0,0.0,0.0,0.0,0.0,0.0,0.0,0.0,0.0,0.0,0.0,0.0,0.0,0.0,0.0,0.0,0.0,0.0,0.0,0.0,0.0,0.0,0.0,0.0,0.0,0.0,0.0,0.0,0.0,0.0,0.0,0.0,0.0,0.0,0.0,0.0,0.0,0.0,0.0,0.0,0.0,0.0,0.0,0.0,0.0,0.0,0.0,0.0,0.0,0.0,0.0,0.0,0.0,0.0,0.0,0.0,0.0,0.0,0.0,0.0,0.0,0.0,0.0,0.0,0.0,0.0,0.0,0.0,-1.6513,-1.6513,-1.6513,-1.6513,-1.6513,0.0,0.0,0.0,0.0,0.0,0.0,0.0,0.0,0.0,0.0,0.0,0.0,0.0,0.0,0.0,0.0,0.0,0.0,0.0,0.0,0.0,0.0,0.0,0.0,0.0,0.0,0.0,0.0,0.0,0.0,0.0,0.0,0.0,0.0,0.0,0.0,0.0,0.0,0.0,0.0,0.0,0.0,0.0,0.0,0.0,0.0,0.0,0.0,0.0,0.0,0.0,0.0,0.0,0.0,0.0,0.0,0.0,0.0,0.0,0.0,0.0,0.0,0.0,0.0,0.0,0.0,0.0,0.0,0.0,0.0,0.0,0.0,0.0,0.0,0.0,0.0,0.0,0.0,0.0,0.0,0.0,0.0,0.0,0.0,0.0,0.0,0.0,0.0,0.0,0.0,0.0,0.0,0.0,0.0,0.0,0.0,0.0,0.0,0.0,0.0,0.0,0.0,0.0,0.0,0.0,0.0,0.0,0.0,0.0,0.0,0.0,0.0,-1.6513,-1.6513,-1.6513,0.0,0.0,0.0,0.0,0.0,0.0,0.0,0.0,0.0,0.0,0.0,0.0,0.0,0.0,0.0,0.0,0.0,0.0,0.0,0.0,0.0,0.0,0.0,0.0,0.0,0.0,0.0,0.0,0.0,0.0,0.0,0.0,0.0,0.0,0.0,0.0,0.0,0.0,0.0,0.0,0.0,0.0,0.0,0.0,0.0,0.0,0.0,0.0,0.0,0.0,0.0,0.0,0.0,0.0,0.0,0.0,0.0,0.0,0.0,0.0,0.0,0.0,0.0,0.0,0.0,0.0,0.0,0.0,0.0,0.0,0.0,0.0,0.0,0.0,0.0,0.0,0.0,0.0,0.0,0.0,0.0,0.0,0.0,0.0,0.0,0.0,0.0,0.0,0.0,0.0,0.0,0.0,0.0,0.0,0.0,0.0,0.0,0.0,0.0,0.0,0.0,0.0,0.0,0.0,0.0,0.0,0.0,0.0,0.0,0.0,-1.6513,-1.6513,-1.6513,0.0,-1.6513,0.0,0.0,0.0,0.0,0.0,0.0,0.0,0.0,0.0,0.0,0.0,0.0,0.0,0.0,0.0,0.0,0.0,0.0,0.0,0.0,0.0,0.0,0.0,0.0,0.0,0.0,0.0,0.0,0.0,0.0,0.0,0.0,0.0,0.0,0.0,0.0,0.0,0.0,0.0,0.0,0.0,0.0,0.0,0.0,0.0,0.0,0.0,0.0,0.0,0.0,0.0,0.0,0.0,0.0,0.0,0.0,0.0,0.0,0.0,0.0,0.0,0.0,0.0,0.0,0.0,0.0,0.0,0.0,0.0,0.0,0.0,0.0,0.0,0.0,0.0,0.0,0.0,0.0,0.0,0.0,0.0,0.0,0.0,0.0,0.0,0.0,0.0,0.0,0.0,0.0,0.0,0.0,0.0,0.0,0.0,0.0,0.0,0.0,0.0,0.0,0.0,0.0,0.0,0.0,0.0,0.0,0.0,0.0,0.0,0.0,-1.7513,-1.7503,-1.72,-1.6839,0.0,0.0,0.0,0.0,0.0,0.0,0.0,0.0,0.0,0.0,0.0,0.0,0.0,0.0,0.0,0.0,0.0,0.0,0.0,0.0,0.0,0.0,0.0,0.0,0.0,0.0,0.0,0.0,0.0,0.0,0.0,0.0,0.0,0.0,0.0,0.0,0.0,0.0,0.0,0.0,0.0,0.0,0.0,0.0,0.0,0.0,0.0,0.0,0.0,0.0,0.0,0.0,0.0,0.0,0.0,0.0,0.0,0.0,0.0,0.0,0.0,0.0,0.0,0.0,0.0,0.0,0.0,0.0,0.0,0.0,0.0,0.0,0.0,0.0,0.0,0.0,0.0,0.0,0.0,0.0,0.0,0.0,0.0,0.0,0.0,0.0,0.0,0.0,0.0,0.0,0.0,0.0,0.0,0.0,0.0,0.0,0.0,0.0,0.0,0.0,0.0,0.0,0.0,0.0,0.0,0.0,0.0,0.0,0.0,0.0,-1.8204,-1.8204,-1.8191,-1.7827,-1.7413,-1.6977,0.0,0.0,0.0,0.0,0.0,0.0,0.0,0.0,0.0,0.0,0.0,0.0,0.0,0.0,0.0,0.0,0.0,0.0,0.0,0.0,0.0,0.0,0.0,0.0,0.0,0.0,0.0,0.0,0.0,0.0,0.0,0.0,0.0,0.0,0.0,0.0,0.0,0.0,0.0,0.0,0.0,0.0,0.0,0.0,0.0,0.0,0.0,0.0,0.0,0.0,0.0,0.0,0.0,0.0,0.0,0.0,0.0,0.0,0.0,0.0,0.0,0.0,0.0,0.0,0.0,0.0,0.0,0.0,0.0,0.0,0.0,0.0,0.0,0.0,0.0,0.0,0.0,0.0,0.0,0.0,0.0,0.0,0.0,0.0,0.0,0.0,0.0,0.0,0.0,0.0,0.0,0.0,0.0,0.0,0.0,0.0,0.0,0.0,0.0,0.0,0.0,0.0,0.0,0.0,0.0,0.0,0.0,0.0,-1.8229,-1.8229,-1.8216,-1.8216,-1.8155,-1.8154,0.0,0.0,0.0,0.0,0.0,0.0,0.0,0.0,0.0,0.0,0.0,0.0,0.0,0.0,0.0,0.0,0.0,0.0,0.0,0.0,0.0,0.0,0.0,0.0,0.0,0.0,0.0,0.0,0.0,0.0,0.0,0.0,0.0,0.0,0.0,0.0,0.0,0.0,0.0,0.0,0.0,0.0,0.0,0.0,0.0,0.0,0.0,0.0,0.0,0.0,0.0,0.0,0.0,0.0,0.0,0.0,0.0,0.0,0.0,0.0,0.0,0.0,0.0,0.0,0.0,0.0,0.0,0.0,0.0,0.0,0.0,0.0,0.0,0.0,0.0,0.0,0.0,0.0,0.0,0.0,0.0,0.0,0.0,0.0,0.0,0.0,0.0,0.0,0.0,0.0,0.0,0.0,0.0,0.0,0.0,0.0,0.0,0.0,0.0,0.0,0.0,0.0,0.0,0.0,0.0,0.0,0.0,0.0,0.0,-1.9233,-1.9221,-1.907,-1.8732,-1.8707,-1.8544,0.0,0.0,0.0,0.0,0.0,0.0,0.0,0.0,0.0,0.0,0.0,0.0,0.0,0.0,0.0,0.0,0.0,0.0,0.0,0.0,0.0,0.0,0.0,0.0,0.0,0.0,0.0,0.0,0.0,0.0,0.0,0.0,0.0,0.0,0.0,0.0,0.0,0.0,0.0,0.0,0.0,0.0,0.0,0.0,0.0,0.0,0.0,0.0,0.0,0.0,0.0,0.0,0.0,0.0,0.0,0.0,0.0,0.0,0.0,0.0,0.0,0.0,0.0,0.0,0.0,0.0,0.0,0.0,0.0,0.0,0.0,0.0,0.0,0.0,0.0,0.0,0.0,0.0,0.0,0.0,0.0,0.0,0.0,0.0,0.0,0.0,0.0,0.0,0.0,0.0,0.0,0.0,0.0,0.0,0.0,0.0,0.0,0.0,0.0,0.0,0.0,0.0,0.0,0.0,0.0,0.0,0.0,0.0,0.0,-1.9798,0.0,-1.9635,-1.9271,-1.9259,-1.9083,0.0,0.0,0.0,0.0,0.0,0.0,0.0,0.0,0.0,0.0,0.0,0.0,0.0,0.0,0.0,0.0,0.0,0.0,0.0,0.0,0.0,0.0,0.0,0.0,0.0,0.0,0.0,0.0,0.0,0.0,0.0,0.0,0.0,0.0,0.0,0.0,0.0,0.0,0.0,0.0,0.0,0.0,0.0,0.0,0.0,0.0,0.0,0.0,0.0,0.0,0.0,0.0,0.0,0.0,0.0,0.0,0.0,0.0,0.0,0.0,0.0,0.0,0.0,0.0,0.0,0.0,0.0,0.0,0.0,0.0,0.0,0.0,0.0,0.0,0.0,0.0,0.0,0.0,0.0,0.0,0.0,0.0,0.0,0.0,0.0,0.0,0.0,0.0,0.0,0.0,0.0,0.0,0.0,0.0,0.0,0.0,0.0,0.0,0.0,0.0,0.0,0.0,0.0,0.0,0.0,0.0,0.0,0.0,-1.9798,-1.9798,-1.9798,-1.9786,-1.9798,-1.9773,-1.9786,0.0,0.0,0.0,0.0,0.0,0.0,0.0,0.0,0.0,0.0,0.0,0.0,0.0,0.0,0.0,0.0,0.0,0.0,0.0,0.0,0.0,0.0,0.0,0.0,0.0,0.0,0.0,0.0,0.0,0.0,0.0,0.0,0.0,0.0,0.0,0.0,0.0,0.0,0.0,0.0,0.0,0.0,0.0,0.0,0.0,0.0,0.0,0.0,0.0,0.0,0.0,0.0,0.0,0.0,0.0,0.0,0.0,0.0,0.0,0.0,0.0,0.0,0.0,0.0,0.0,0.0,0.0,0.0,0.0,0.0,0.0,0.0,0.0,0.0,0.0,0.0,0.0,0.0,0.0,0.0,0.0,0.0,0.0,0.0,0.0,0.0,0.0,0.0,0.0,0.0,0.0,0.0,0.0,0.0,0.0,0.0,0.0,0.0,0.0,0.0,0.0,0.0,0.0,0.0,0.0,0.0,0.0,0.0,0.0,-1.9798,-1.9798,-1.9798,-1.9798,-1.9798,-1.9798,0.0,0.0,0.0,0.0,0.0,0.0,0.0,0.0,0.0,0.0,0.0,0.0,0.0,0.0,0.0,0.0,0.0,0.0,0.0,0.0,0.0,0.0,0.0,0.0,0.0,0.0,0.0,0.0,0.0,0.0,0.0,0.0,0.0,0.0,0.0,0.0,0.0,0.0,0.0,0.0,0.0,0.0,0.0,0.0,0.0,0.0,0.0,0.0,0.0,0.0,0.0,0.0,0.0,0.0,0.0,0.0,0.0,0.0,0.0,0.0,0.0,0.0,0.0,0.0,0.0,0.0,0.0,0.0,0.0,0.0,0.0,0.0,0.0,0.0,0.0,0.0,0.0,0.0,0.0,0.0,0.0,0.0,0.0,0.0,0.0,0.0,0.0,0.0,0.0,0.0,0.0,0.0,0.0,0.0,0.0,0.0,0.0,0.0,0.0,0.0,0.0,0.0,0.0,0.0,0.0,0.0,0.0,0.0,0.0,-1.9798,-1.9798,-1.9798,-1.9798,-1.9798,-1.9798,-1.9798,0.0,0.0,0.0,0.0,0.0,0.0,0.0,0.0,0.0,0.0,0.0,0.0,0.0,0.0,0.0,0.0,0.0,0.0,0.0,0.0,0.0,0.0,0.0,0.0,0.0,0.0,0.0,0.0,0.0,0.0,0.0,0.0,0.0,0.0,0.0,0.0,0.0,0.0,0.0,0.0,0.0,0.0,0.0,0.0,0.0,0.0,0.0,0.0,0.0,0.0,0.0,0.0,0.0,0.0,0.0,0.0,0.0,0.0,0.0,0.0,0.0,0.0,0.0,0.0,0.0,0.0,0.0,0.0,0.0,0.0,0.0,0.0,0.0,0.0,0.0,0.0,0.0,0.0,0.0,0.0,0.0,0.0,0.0,0.0,0.0,0.0,0.0,0.0,0.0,0.0,0.0,0.0,0.0,0.0,0.0,0.0,0.0,0.0,0.0,0.0,0.0,0.0,0.0,0.0,0.0,0.0,0.0,0.0,-1.9798,-1.9798,-1.9798,-1.9798,-1.9798,-1.9798,0.0,0.0,0.0,0.0,0.0,0.0,0.0,0.0,0.0,0.0,0.0,0.0,0.0,0.0,0.0,0.0,0.0,0.0,0.0,0.0,0.0,0.0,0.0,0.0,0.0,0.0,0.0,0.0,0.0,0.0,0.0,0.0,0.0,0.0,0.0,0.0,0.0,0.0,0.0,0.0,0.0,0.0,0.0,0.0,0.0,0.0,0.0,0.0,0.0,0.0,0.0,0.0,0.0,0.0,0.0,0.0,0.0,0.0,0.0,0.0,0.0,0.0,0.0,0.0,0.0,0.0,0.0,0.0,0.0,0.0,0.0,0.0,0.0,0.0,0.0,0.0,0.0,0.0,0.0,0.0,0.0,0.0,0.0,0.0,0.0,0.0,0.0,0.0,0.0,0.0,0.0,0.0,0.0,0.0,0.0,0.0,0.0,0.0,0.0,0.0,0.0,0.0,0.0,0.0,0.0,0.0,0.0,0.0,0.0,-1.9798,-1.9798,-1.9798,-1.9798,-1.9798,-1.9798,0.0,0.0,0.0,0.0,0.0,0.0,0.0,0.0,0.0,0.0,0.0,0.0,0.0,0.0,0.0,0.0,0.0,0.0,0.0,0.0,0.0,0.0,0.0,0.0,0.0,0.0,0.0,0.0,0.0,0.0,0.0,0.0,0.0,0.0,0.0,0.0,0.0,0.0,0.0,0.0,0.0,0.0,0.0,0.0,0.0,0.0,0.0,0.0,0.0,0.0,0.0,0.0,0.0,0.0,0.0,0.0,0.0,0.0,0.0,0.0,0.0,0.0,0.0,0.0,0.0,0.0,0.0,0.0,0.0,0.0,0.0,0.0,0.0,0.0,0.0,0.0,0.0,0.0,0.0,0.0,0.0,0.0,0.0,0.0,0.0,0.0,0.0,0.0,0.0,0.0,0.0,0.0,0.0,0.0,0.0,0.0,0.0,0.0,0.0,0.0,0.0,0.0,0.0,0.0,0.0,0.0,0.0,0.0,-1.9927,-2.0194,-1.9952,-1.9798,-1.9798,-1.9798,-1.9798,0.0,0.0,0.0,0.0,0.0,0.0,0.0,0.0,0.0,0.0,0.0,0.0,0.0,0.0,0.0,0.0,0.0,0.0,0.0,0.0,0.0,0.0,0.0,0.0,0.0,0.0,0.0,0.0,0.0,0.0,0.0,0.0,0.0,0.0,0.0,0.0,0.0,0.0,0.0,0.0,0.0,0.0,0.0,0.0,0.0,0.0,0.0,0.0,0.0,0.0,0.0,0.0,0.0,0.0,0.0,0.0,0.0,0.0,0.0,0.0,0.0,0.0,0.0,0.0,0.0,0.0,0.0,0.0,0.0,0.0,0.0,0.0,0.0,0.0,0.0,0.0,0.0,0.0,0.0,0.0,0.0,0.0,0.0,0.0,0.0,0.0,0.0,0.0,0.0,0.0,0.0,0.0,0.0,0.0,0.0,0.0,0.0,0.0,0.0,0.0,0.0,0.0,0.0,0.0,0.0,0.0,0.0,0.0,-2.0169,-2.0671,-2.0105,-1.9824,-1.9901,-1.9901,-1.985,0.0,0.0,0.0,0.0,0.0,0.0,0.0,0.0,0.0,0.0,0.0,0.0,0.0,0.0,0.0,0.0,0.0,0.0,0.0,0.0,0.0,0.0,0.0,0.0,0.0,0.0,0.0,0.0,0.0,0.0,0.0,0.0,0.0,0.0,0.0,0.0,0.0,0.0,0.0,0.0,0.0,0.0,0.0,0.0,0.0,0.0,0.0,0.0,0.0,0.0,0.0,0.0,0.0,0.0,0.0,0.0,0.0,0.0,0.0,0.0,0.0,0.0,0.0,0.0,0.0,0.0,0.0,0.0,0.0,0.0,0.0,0.0,0.0,0.0,0.0,0.0,0.0,0.0,0.0,0.0,0.0,0.0,0.0,0.0,0.0,0.0,0.0,0.0,0.0,0.0,0.0,0.0,0.0,0.0,0.0,0.0,0.0,0.0,0.0,0.0,0.0,0.0,0.0,0.0,0.0,0.0,0.0,0.0,-2.0396,-2.0029,-1.9875,-2.0055,-2.0585,-2.0597,-2.0321,0.0,0.0,0.0,0.0,0.0,0.0,0.0,0.0,0.0,0.0,0.0,0.0,0.0,0.0,0.0,0.0,0.0,0.0,0.0,0.0,0.0,0.0,0.0,0.0,0.0,0.0,0.0,0.0,0.0,0.0,0.0,0.0,0.0,0.0,0.0,0.0,0.0,0.0,0.0,0.0,0.0,0.0,0.0,0.0,0.0,0.0,0.0,0.0,-1.1896,0.0,0.0,0.0,0.0,0.0,0.0,0.0,0.0,0.0,0.0,0.0,0.0,0.0,0.0,0.0,0.0,0.0,0.0,0.0,0.0,0.0,0.0,0.0,0.0,0.0,0.0,0.0,0.0,0.0,0.0,0.0,0.0,0.0,0.0,0.0,0.0,0.0,0.0,0.0,0.0,0.0,0.0,0.0,0.0,0.0,0.0,0.0,0.0,0.0,0.0,0.0,0.0,0.0,0.0,0.0,0.0,0.0,0.0,0.0,-2.0906,-2.1124,-2.0584,-2.0446,-2.0771,-2.1077,-2.0917,0.0,0.0,0.0,0.0,0.0,0.0,0.0,0.0,0.0,0.0,0.0,0.0,0.0,0.0,0.0,0.0,0.0,0.0,0.0,0.0,0.0,0.0,0.0,0.0,0.0,0.0,0.0,0.0,0.0,0.0,0.0,0.0,0.0,0.0,0.0,0.0,0.0,0.0,0.0,0.0,0.0,0.0,0.0,0.0,0.0,0.0,0.0,0.0,0.0,0.0,0.0,0.0,0.0,0.0,0.0,0.0,0.0,0.0,0.0,0.0,0.0,0.0,0.0,0.0,0.0,0.0,0.0,0.0,0.0,0.0,0.0,0.0,0.0,0.0,0.0,0.0,0.0,0.0,0.0,0.0,0.0,0.0,0.0,0.0,0.0,0.0,0.0,0.0,0.0,0.0,0.0,0.0,0.0,0.0,0.0,0.0,0.0,0.0,0.0,0.0,0.0,0.0,0.0,0.0,0.0,0.0,0.0,-2.1053,-2.1321,-2.2328,-2.1272,-2.0746,-2.093,-2.1245,-2.1269,-2.0944,0.0,0.0,0.0,0.0,0.0,0.0,0.0,0.0,0.0,0.0,0.0,0.0,0.0,0.0,0.0,0.0,0.0,0.0,0.0,0.0,0.0,0.0,0.0,0.0,0.0,0.0,0.0,0.0,0.0,0.0,0.0,0.0,0.0,0.0,0.0,0.0,0.0,0.0,-1.5332,-1.542,0.0,0.0,0.0,0.0,0.0,0.0,0.0,0.0,-1.2512,0.0,0.0,0.0,0.0,0.0,0.0,0.0,0.0,0.0,0.0,0.0,0.0,0.0,0.0,0.0,0.0,0.0,0.0,0.0,0.0,0.0,0.0,0.0,0.0,0.0,0.0,0.0,0.0,0.0,0.0,0.0,0.0,0.0,0.0,0.0,0.0,0.0,0.0,0.0,0.0,0.0,0.0,0.0,0.0,0.0,0.0,0.0,0.0,0.0,0.0,0.0,0.0,0.0,0.0,0.0,0.0,-2.0944,-2.0845,-2.0894,-2.1091,-2.0371,-2.0484,-2.1472,-2.0607,-2.057,-2.1472,0.0,0.0,0.0,0.0,0.0,0.0,0.0,0.0,0.0,0.0,0.0,0.0,0.0,0.0,0.0,0.0,0.0,0.0,0.0,0.0,0.0,0.0,0.0,0.0,0.0,0.0,0.0,0.0,0.0,0.0,0.0,0.0,0.0,0.0,0.0,0.0,0.0,0.0,0.0,-1.542,-1.5352,0.0,0.0,0.0,0.0,0.0,0.0,0.0,0.0,-1.2795,0.0,0.0,0.0,0.0,0.0,0.0,0.0,0.0,0.0,0.0,0.0,0.0,0.0,0.0,0.0,0.0,0.0,0.0,0.0,0.0,0.0,0.0,0.0,0.0,0.0,0.0,0.0,0.0,0.0,0.0,0.0,0.0,0.0,0.0,0.0,0.0,0.0,0.0,0.0,0.0,0.0,0.0,0.0,0.0,0.0,0.0,0.0,0.0,0.0,0.0,0.0,0.0,0.0,0.0,0.0,-2.1283,-2.1609,-2.1927,-2.223,-2.1629,-2.1582,-2.2184,-2.1629,-2.1283,0.0,0.0,0.0,0.0,0.0,0.0,0.0,0.0,0.0,0.0,0.0,0.0,0.0,0.0,0.0,0.0,0.0,0.0,0.0,0.0,0.0,0.0,0.0,0.0,0.0,0.0,0.0,0.0,0.0,0.0,0.0,0.0,0.0,0.0,0.0,0.0,0.0,0.0,0.0,0.0,-1.542,-1.542,-1.542,0.0,0.0,0.0,0.0,0.0,0.0,-1.3786,-1.3161,0.0,0.0,0.0,0.0,0.0,0.0,0.0,0.0,0.0,0.0,0.0,0.0,0.0,0.0,0.0,0.0,0.0,0.0,0.0,0.0,0.0,0.0,0.0,0.0,0.0,0.0,0.0,0.0,0.0,0.0,0.0,0.0,0.0,0.0,0.0,0.0,0.0,0.0,0.0,0.0,0.0,0.0,0.0,0.0,0.0,0.0,0.0,0.0,0.0,0.0,0.0,0.0,0.0,0.0,0.0,-2.1697,-2.223,-2.2793,-2.3377,-2.2815,-2.2558,-2.2709,-2.2581,-2.2021,0.0,0.0,0.0,0.0,0.0,0.0,0.0,0.0,0.0,0.0,0.0,0.0,0.0,0.0,0.0,0.0,0.0,0.0,0.0,0.0,0.0,0.0,0.0,0.0,0.0,0.0,0.0,0.0,0.0,0.0,0.0,0.0,0.0,0.0,0.0,0.0,0.0,0.0,0.0,0.0,0.0,-1.542,-1.542,-1.542,0.0,0.0,0.0,0.0,-1.5294,-1.4332,0.0,0.0,0.0,0.0,0.0,0.0,0.0,0.0,0.0,0.0,0.0,0.0,0.0,0.0,0.0,0.0,0.0,0.0,0.0,0.0,0.0,0.0,0.0,0.0,0.0,0.0,0.0,0.0,0.0,0.0,0.0,0.0,0.0,0.0,0.0,0.0,0.0,0.0,0.0,0.0,0.0,0.0,0.0,0.0,0.0,0.0,0.0,0.0,0.0,0.0,0.0,0.0,0.0,0.0,0.0,0.0,-2.1673,-2.1767,-2.2146,-2.2725,-2.2146,-2.21,-2.2686,-2.2123,-2.1744,0.0,0.0,0.0,0.0,0.0,0.0,0.0,0.0,0.0,0.0,0.0,0.0,0.0,0.0,0.0,0.0,0.0,0.0,0.0,0.0,0.0,0.0,0.0,0.0,0.0,0.0,0.0,0.0,0.0,0.0,0.0,0.0,0.0,0.0,0.0,0.0,0.0,0.0,0.0,0.0,0.0,-1.542,-1.542,-1.542,-1.542,0.0,0.0,-1.5284,-1.5381,-1.5235,0.0,0.0,0.0,0.0,0.0,0.0,0.0,0.0,0.0,0.0,0.0,0.0,0.0,0.0,0.0,0.0,0.0,0.0,0.0,0.0,0.0,0.0,0.0,0.0,0.0,0.0,0.0,0.0,0.0,0.0,0.0,0.0,0.0,0.0,0.0,0.0,0.0,0.0,0.0,0.0,0.0,0.0,0.0,0.0,0.0,0.0,0.0,0.0,0.0,0.0,0.0,0.0,0.0,0.0,0.0,-2.2011,-2.2262,-2.2606,-2.2928,-2.3187,-2.2913,-2.2913,-2.3201,-2.2935,-2.2432,0.0,0.0,0.0,0.0,0.0,0.0,0.0,0.0,0.0,0.0,0.0,0.0,0.0,0.0,0.0,0.0,0.0,0.0,0.0,0.0,0.0,0.0,0.0,0.0,0.0,0.0,0.0,0.0,0.0,0.0,0.0,0.0,0.0,0.0,0.0,0.0,0.0,0.0,0.0,0.0,0.0,0.0,-1.542,-1.542,0.0,0.0,0.0,-1.542,-1.542,0.0,0.0,0.0,0.0,0.0,0.0,0.0,0.0,0.0,0.0,0.0,0.0,0.0,0.0,0.0,0.0,0.0,0.0,0.0,0.0,0.0,0.0,0.0,0.0,0.0,0.0,0.0,0.0,0.0,0.0,0.0,0.0,0.0,0.0,0.0,0.0,0.0,0.0,0.0,0.0,0.0,0.0,0.0,0.0,0.0,0.0,0.0,0.0,0.0,0.0,0.0,0.0,0.0,0.0,0.0,0.0,0.0,-2.2709,-2.3312,-2.3595,-2.3595,-2.3759,-2.3789,-2.361,-2.3759,0.0,0.0,0.0,0.0,0.0,0.0,0.0,0.0,0.0,0.0,0.0,0.0,0.0,0.0,0.0,0.0,0.0,0.0,0.0,0.0,0.0,0.0,0.0,0.0,0.0,0.0,0.0,-1.924,0.0,0.0,0.0,0.0,0.0,0.0,0.0,0.0,0.0,0.0,0.0,0.0,0.0,0.0,-1.542,-1.542,-1.542,-1.542,0.0,0.0,-1.542,-1.542,-1.542,-1.542,0.0,0.0,0.0,0.0,0.0,0.0,0.0,0.0,0.0,0.0,0.0,0.0,0.0,0.0,0.0,0.0,0.0,0.0,0.0,0.0,0.0,0.0,0.0,0.0,0.0,0.0,0.0,0.0,0.0,0.0,0.0,0.0,0.0,0.0,0.0,0.0,0.0,0.0,0.0,0.0,0.0,0.0,0.0,0.0,0.0,0.0,0.0,0.0,0.0,0.0,0.0,0.0,0.0,0.0,-2.2709,-2.2731,-2.329,-2.361,-2.3625,-2.4201,-2.4231,-2.364,-2.4201,-2.4205,0.0,0.0,0.0,0.0,0.0,0.0,0.0,0.0,0.0,0.0,0.0,0.0,0.0,0.0,0.0,0.0,0.0,0.0,0.0,0.0,0.0,0.0,0.0,0.0,0.0,0.0,0.0,0.0,0.0,0.0,0.0,0.0,0.0,0.0,0.0,0.0,0.0,0.0,0.0,0.0,0.0,-1.542,-1.542,-1.542,-1.542,0.0,-1.542,-1.542,-1.542,-1.542,-1.542,-1.542,0.0,0.0,0.0,0.0,0.0,0.0,0.0,0.0,0.0,0.0,0.0,0.0,0.0,0.0,0.0,0.0,0.0,0.0,0.0,0.0,0.0,0.0,0.0,0.0,0.0,0.0,0.0,0.0,0.0,0.0,0.0,0.0,0.0,0.0,0.0,0.0,0.0,0.0,0.0,0.0,0.0,0.0,0.0,0.0,0.0,0.0,0.0,0.0,0.0,0.0,0.0,0.0,0.0,-2.3666,-2.4448,-2.4298,-2.4418,-2.4822,-2.5083,-2.5083,-2.4852,-2.5068,-2.4739,0.0,0.0,0.0,0.0,0.0,0.0,0.0,0.0,0.0,0.0,0.0,0.0,0.0,0.0,0.0,0.0,0.0,0.0,0.0,0.0,0.0,0.0,0.0,0.0,0.0,0.0,0.0,0.0,-1.8953,-1.8501,-1.7302,0.0,0.0,0.0,0.0,0.0,0.0,0.0,0.0,0.0,0.0,-1.542,-1.542,-1.542,0.0,0.0,-1.542,-1.542,-1.542,-1.542,-1.542,-1.542,-1.5147,0.0,0.0,0.0,0.0,0.0,0.0,0.0,0.0,0.0,0.0,0.0,0.0,0.0,0.0,0.0,0.0,0.0,0.0,0.0,0.0,0.0,0.0,0.0,0.0,0.0,0.0,0.0,0.0,0.0,0.0,0.0,0.0,0.0,0.0,0.0,0.0,0.0,0.0,0.0,0.0,0.0,0.0,0.0,0.0,0.0,0.0,0.0,0.0,0.0,0.0,0.0,0.0,-2.4634,-2.56,-2.5128,-2.5113,-2.56,-2.5809,-2.5809,-2.5591,-2.5785,-2.5471,0.0,0.0,0.0,0.0,0.0,0.0,0.0,0.0,0.0,0.0,0.0,0.0,0.0,0.0,0.0,0.0,0.0,0.0,0.0,0.0,0.0,0.0,0.0,0.0,0.0,0.0,0.0,0.0,-1.9579,-1.8874,-1.744,0.0,0.0,0.0,0.0,0.0,0.0,0.0,0.0,0.0,0.0,-1.542,-1.542,-1.542,-1.542,-1.542,-1.542,-1.5449,-1.5586,-1.5498,-1.5449,-1.5586,0.0,0.0,0.0,0.0,0.0,0.0,0.0,0.0,0.0,0.0,0.0,0.0,0.0,0.0,0.0,0.0,0.0,0.0,0.0,0.0,0.0,0.0,0.0,0.0,0.0,0.0,0.0,-2.6607,0.0,0.0,-2.586,0.0,0.0,0.0,0.0,0.0,0.0,0.0,0.0,0.0,0.0,0.0,0.0,0.0,0.0,0.0,0.0,0.0,0.0,0.0,0.0,0.0,0.0,-2.557,-2.5615,-2.563,-2.56,-2.5659,-2.6243,-2.6273,-2.5689,-2.6228,-2.6572,-2.6518,0.0,0.0,0.0,0.0,0.0,0.0,0.0,0.0,0.0,0.0,0.0,0.0,0.0,0.0,0.0,0.0,0.0,0.0,0.0,0.0,0.0,0.0,0.0,0.0,0.0,0.0,-1.9798,-1.915,-1.8167,0.0,0.0,0.0,0.0,0.0,0.0,0.0,0.0,0.0,-1.541,-1.542,-1.542,-1.542,-1.542,-1.542,-1.542,-1.542,-1.5557,-1.5997,-1.5693,-1.5557,0.0,0.0,0.0,0.0,0.0,0.0,0.0,0.0,0.0,0.0,0.0,0.0,0.0,0.0,0.0,0.0,0.0,0.0,0.0,0.0,0.0,0.0,0.0,0.0,0.0,0.0,0.0,-2.6708,-2.6691,0.0,0.0,0.0,0.0,0.0,0.0,0.0,0.0,0.0,0.0,0.0,-2.5186,-2.5028,0.0,0.0,0.0,0.0,0.0,0.0,0.0,0.0,0.0,0.0,0.0,0.0,-2.6033,-2.6881,-2.6467,-2.6482,-2.6901,-2.7151,-2.7165,-2.6956,-2.7151,-2.727,-2.7255,0.0,0.0,0.0,0.0,0.0,0.0,0.0,0.0,0.0,0.0,0.0,0.0,0.0,0.0,0.0,0.0,0.0,0.0,0.0,0.0,0.0,0.0,0.0,0.0,0.0,-1.9798,0.0,0.0,0.0,0.0,0.0,0.0,0.0,0.0,0.0,0.0,0.0,-1.6132,-1.6122,-1.6122,-1.595,-1.5468,-1.542,-1.542,0.0,0.0,0.0,0.0,0.0,0.0,0.0,0.0,0.0,0.0,0.0,0.0,0.0,0.0,-1.4273,-1.3183,-1.2787,-1.2604,-1.2604,0.0,0.0,0.0,0.0,0.0,0.0,0.0,0.0,0.0,0.0,0.0,0.0,0.0,0.0,-2.6708,-2.6708,-2.6708,0.0,0.0,0.0,0.0,0.0,0.0,0.0,0.0,-2.6086,-2.6068,-2.5709,-2.5561,-2.5426,-2.5314,-2.4574,-2.4478,0.0,0.0,0.0,0.0,0.0,0.0,0.0,0.0,-2.6731,-2.754,-2.718,-2.7165,-2.757,-2.7585,-2.7585,-2.7585,-2.7585,-2.7585,-2.7585,-2.6761,-2.6281,0.0,0.0,0.0,0.0,0.0,0.0,0.0,0.0,0.0,0.0,0.0,0.0,0.0,0.0,0.0,0.0,0.0,0.0,0.0,0.0,0.0,0.0,0.0,-1.9695,0.0,0.0,0.0,0.0,0.0,0.0,0.0,0.0,0.0,-1.6624,-1.6708,-1.6793,-1.6549,-1.6521,-1.6402,-1.6123,0.0,0.0,0.0,0.0,0.0,0.0,0.0,-1.6445,-1.6885,-1.6794,-1.6697,-1.6697,-1.6463,-1.6201,-1.5918,0.0,0.0,-1.4079,-1.3748,-1.366,-1.3651,-1.3762,-1.3786,-1.3497,-1.391,-1.4135,0.0,0.0,0.0,0.0,-2.6708,0.0,0.0,0.0,-2.6708,-2.6708,0.0,-2.6708,0.0,0.0,0.0,0.0,-2.6657,-2.621,0.0,0.0,-2.6725,-2.6725,-2.6708,-2.6292,-2.644,-2.7027,-2.5982,-2.6104,-2.7162,-2.5538,0.0,0.0,0.0,0.0,0.0,0.0,-2.7585,-2.7585,-2.7585,-2.7585,-2.7585,-2.7585,-2.7585,-2.7585,-2.7585,-2.7585,-2.7585,-2.757,-2.6994,-2.5742,-2.496,0.0,0.0,0.0,0.0,0.0,0.0,0.0,0.0,0.0,0.0,0.0,0.0,0.0,0.0,0.0,0.0,0.0,0.0,0.0,0.0,-1.9798,0.0,0.0,0.0,0.0,0.0,0.0,0.0,0.0,0.0,0.0,-1.6853,-1.7213,-1.7368,-1.6684,0.0,0.0,0.0,0.0,-1.6648,-1.7789,-1.7295,-1.6907,-1.7337,-1.7021,-1.6904,-1.7334,0.0,0.0,-1.6726,-1.6726,-1.6707,-1.6697,-1.6658,-1.6434,-1.5566,-1.5139,-1.4941,-1.4951,-1.5232,-1.523,-1.4663,-1.5524,-1.6103,-2.8028,0.0,0.0,0.0,0.0,-2.6708,-2.6708,-2.6708,-2.6708,-2.6708,-2.6708,-2.6708,0.0,0.0,0.0,0.0,0.0,0.0,-2.659,-2.6725,-2.7232,-2.7469,-2.7485,-2.7541,-2.7682,-2.7844,-2.7175,-2.6815,-2.6763,-2.6684,-2.6657,-2.6673,0.0,0.0,0.0,0.0,-2.7585,-2.7585,-2.7585,-2.7585,-2.7585,-2.7585,-2.7585,-2.7585,-2.7585,-2.7585,-2.7585,-2.7585,-2.7419,-2.7034,-2.597,0.0,0.0,0.0,0.0,0.0,0.0,0.0,0.0,0.0,0.0,0.0,0.0,0.0,0.0,0.0,0.0,0.0,0.0,0.0,-1.9798,-1.9798,-1.9721,0.0,0.0,0.0,0.0,0.0,0.0,0.0,0.0,0.0,-1.8758,-1.8507,-1.8235,0.0,0.0,-1.8493,-1.7933,-1.8147,-1.8311,-1.8036,-1.7781,0.0,-1.7445,-1.7275,-1.7344,-1.7764,-1.7725,-1.7549,-1.7246,-1.7197,-1.71,-1.6765,-1.6697,-1.6609,-1.6404,-1.6258,-1.6188,-1.6198,-1.6284,-1.6297,-1.6096,-1.6434,-1.658,-3.0294,-2.9533,-2.8653,-2.801,-2.7622,-2.7605,-2.7605,-2.7622,-2.7622,-2.7605,-2.7622,-2.7622,-2.7605,-2.7622,-2.7604,0.0,0.0,0.0,-2.7605,-2.7604,-2.8061,-2.8281,-2.8297,-2.8446,-2.8684,-2.8912,-2.8371,-2.8211,-2.8361,-2.8032,-2.8023,-2.8191,0.0,-2.7195,-2.7585,-2.7585,-2.7585,-2.7585,-2.7585,-2.7585,-2.7585,-2.7585,-2.7585,-2.7585,-2.7585,-2.7585,-2.7585,-2.7585,-2.7585,-2.7585,-2.659,-2.5896,0.0,0.0,0.0,0.0,0.0,0.0,0.0,0.0,0.0,0.0,0.0,-1.9798,-1.9798,0.0,0.0,0.0,-1.9798,-1.9798,-1.9798,-1.9798,0.0,0.0,0.0,0.0,0.0,0.0,0.0,-1.8904,-1.9623,-2.0218,-2.033,-2.004,-1.9629,-1.9177,-1.9578,-1.9765,-1.9336,0.0,-1.9542,-1.9529,-1.8962,-1.8458,-1.8185,-1.785,-1.7725,-1.7969,-1.8008,-1.793,-1.7695,-1.7637,-1.7598,-1.7486,-1.7447,-1.7506,-1.7681,-1.7744,-1.7549,-1.71,-1.7096,-1.7204,-1.7204,-1.734,-1.7447,-3.3,-3.2209,-3.0211,-2.9297,-2.9179,-2.9179,-2.9179,-2.9162,-2.9094,-2.9077,-2.9094,-2.9027,-2.8993,-2.8993,-2.8993,0.0,-2.8993,-2.8993,-2.8976,-2.8993,-2.9111,-2.9179,-2.9179,-2.9314,-2.9702,-3.0359,-2.9789,-3.0125,-3.1066,-2.9554,-2.8943,-2.9361,-2.8247,-2.765,-2.7585,-2.7585,-2.7585,-2.7585,-2.7585,-2.7585,-2.7585,-2.7585,-2.7585,-2.7585,-2.7585,-2.7585,-2.7585,-2.7585,-2.7585,-2.7575,-2.6956,-2.6341,-2.5774,0.0,0.0,0.0,0.0,0.0,0.0,0.0,0.0,0.0,0.0,0.0,0.0,0.0,0.0,0.0,-1.9798,0.0,-1.9798,-1.9798,0.0,0.0,0.0,-1.9874,-1.9874,-1.9885,-2.015,-2.0704,0.0,0.0,-2.1509,-2.1556,-2.1343,-2.0687,-2.0577,-2.0744,-2.1188,-2.0633,-2.0584,-2.1705,-2.0614,-1.9593,-1.9601,-1.8907,-1.8325,-1.8184,-1.8115,-1.8154,-1.8144,-1.8135,-1.8291,-1.8529,-1.8646,-1.8744,-1.9199,-1.916,-1.8926,-1.7764,-1.7861,-1.8115,-1.8125,-1.8379,-1.8568,-3.3305,-3.3102,-3.2577,-3.1715,-3.0683,-3.0666,-3.0683,-3.0632,-3.0091,-2.9837,-2.982,-2.9247,-2.8993,-2.8993,-2.8993,-2.8993,-2.8993,-2.8993,-2.8993,-2.9077,-3.0142,-3.0666,-3.0717,-3.1816,-3.2442,-3.2591,-3.247,-3.2027,-3.1369,-3.091,-3.0257,-2.94,-2.8662,-2.8067,-2.7625,-2.7585,-2.7585,-2.7585,-2.7585,-2.7585,-2.7585,-2.7585,-2.7585,-2.7585,-2.7585,-2.7585,-2.7585,-2.7585,-2.7585,-2.7585,-2.7433,-2.7257,-2.7119,-2.5995,0.0,0.0,0.0,0.0,0.0,0.0,0.0,0.0,0.0,-1.9798,-1.9798,0.0,-1.9798,0.0,-1.9798,-1.9798,-1.9798,-1.9798,0.0,0.0,-2.0214,-2.0478,-2.0478,-2.0828,-2.1169,-2.128,-2.132,-2.1506,-2.2046,-2.2121,-2.2214,-2.2424,-2.2097,-2.1829,-2.1757,-2.2128,-2.2372,-2.2448,-2.2139,-2.1812,-2.143,-2.073,-1.9848,-1.9118,-1.8975,-1.8984,-1.901,-1.8984,-1.905,-1.9121,-1.9131,-1.918,-1.9287,-1.9277,-1.9209,-1.8906,-1.8916,-1.8984,-1.8984,-1.9062,-1.9141,-3.5402,-3.5368,-3.5064,-3.4443,-3.363,-3.2594,-3.2188,-3.2138,-3.1729,-3.1579,-3.1526,-3.1123,-3.0954,-3.0954,-3.0954,-3.0954,-3.0954,-3.0973,-3.0954,-3.1004,-3.1799,-3.2188,-3.2222,-3.3017,-3.3389,-3.3389,-3.3389,-3.3022,-3.2305,-3.2034,-3.1511,-3.0784,-2.9903,-2.9261,-2.8921,-2.8062,-2.7585,-2.7585,-2.7585,-2.7585,-2.7585,-2.7585,-2.7585,-2.7585,-2.7585,-2.7585,-2.7585,-2.7585,-2.7585,-2.7585,-2.7585,-2.7585,-2.7585,-2.6899,-2.6323,0.0,0.0,0.0,0.0,0.0,0.0,0.0,0.0,0.0,0.0,0.0,-1.9798,-1.9798,-1.9798,-1.9899,-2.0162,-2.0214,-2.0275,-2.0526,-2.0867,-2.1056,-2.1056,-2.1333,-2.1581,-2.182,-2.1857,-2.2058,-2.2569,-2.2673,-2.2869,-2.3409,-2.3233,-2.3012,-2.2893,-2.3238,-2.353,-2.3614,-2.3312,-2.2848,-2.2309,-2.1748,-2.1096,-2.0196,-1.9955,-1.9847,-1.9386,-1.9277,-1.9346,-1.9521,-1.9561,-1.9639,-1.9842,-1.9891,-1.9891,-1.9891,-1.9891,-1.9754,-1.9412,-1.9434,-1.9561,-3.8131,-3.8057,-3.7324,-3.7029,-3.6859,-3.4752,-3.3778,-3.3656,-3.3575,-3.3491,-3.3389,-3.3389,-3.3389,-3.3389,-3.3389,-3.3389,-3.3389,-3.3389,-3.3389,-3.3406,-3.3508,-3.3558,-3.3541,-3.3643,-3.3677,-3.3672,-3.3694,-3.3643,-3.3537,-3.3017,-3.2707,-3.258,-3.1438,-3.0864,-3.0767,-2.894,-2.7896,-2.7735,-2.7735,-2.769,-2.7585,-2.7585,-2.7585,-2.7585,-2.7585,-2.7585,-2.7585,-2.7585,-2.7585,-2.7585,-2.7585,-2.7585,-2.7585,-2.7585,-2.728,0.0,-2.6044,0.0,0.0,0.0,0.0,0.0,0.0,0.0,0.0,-2.0012,-2.0024,-2.0024,-2.0024,-2.0225,-2.0754,-2.0792,-2.0993,-2.143,-2.1556,-2.1594,-2.1594,-2.1656,-2.1882,-2.2343,-2.241,-2.2594,-2.3133,-2.3221,-2.3421,-2.3979,-2.4079,-2.4073,-2.4161,-2.4155,-2.4261,-2.4845,-2.4324,-2.3754,-2.296,-2.2651,-2.227,-2.1417,-2.1033,-2.0648,-1.9886,-1.9603,-1.958,-1.9912,-2.0,-2.0117,-2.0546,-2.0586,-2.0586,-2.0546,-2.0537,-2.0321,-1.9764,-1.9775,-1.998,-3.9285,-3.9226,-3.8599,-3.8333,-3.8203,-3.6786,-3.5791,-3.5143,-3.4556,-3.3947,-3.3406,-3.3389,-3.3389,-3.3389,-3.3389,-3.3389,-3.3389,-3.3389,-3.3389,-3.3402,-3.4015,-3.4286,-3.432,-3.489,-3.5177,-3.5177,-3.5177,-3.4856,-3.4286,-3.4182,-3.3814,-3.3237,-3.2479,-3.2138,-3.2076,0.0,0.0,0.0,-2.8397,-2.8154,-2.763,-2.7585,-2.7585,-2.7585,-2.7585,0.0,-2.7585,-2.7585,-2.7585,-2.7585,-2.7585,0.0,0.0,0.0,0.0,0.0,0.0,0.0,0.0,0.0,0.0,0.0,-2.2428,-2.1835,-2.1249,-2.1194,-2.1167,-2.1167,-2.1167,-2.1217,-2.1317,-2.1358,-2.1368,-2.1481,-2.1895,-2.2146,-2.2171,-2.2518,-2.2844,-2.2932,-2.2945,-2.317,-2.3728,-2.3828,-2.4042,-2.4556,-2.4625,-2.4845,-2.5222,-2.4888,-2.4883,-2.5327,-2.5606,-2.5495,-2.459,-2.4449,-2.4072,-2.3173,-2.2247,-2.1754,-2.1472,-2.0797,-2.0341,-2.0507,-2.0478,-2.0488,-2.0595,-2.0615,-2.0615,-2.0615,-2.0615,-2.0556,-2.04,-2.0419,-2.0488,-4.05,-4.021,-3.9845,-3.936,0.0,-3.806,-3.7342,-3.6648,-3.5537,-3.4844,-3.4484,-3.4467,-3.4467,-3.4484,-3.4484,-3.4467,-3.4506,-3.4484,-3.4489,-3.4523,-3.4861,-3.5064,-3.5047,-3.543,-3.5616,-3.5616,-3.5616,-3.5397,-3.5064,-3.5047,-3.4861,-3.4467,-3.3844,-3.3528,-3.3505,-3.256,-3.1115,-2.9127,-2.9086,-2.8757,-2.8113,-2.8109,-2.7944,-2.7615,-2.7585,0.0,0.0,0.0,0.0,0.0,0.0,0.0,0.0,-2.7585,0.0,-2.706,-2.7049,-2.6707,-2.6,-2.5635,-2.5158,-2.4448,-2.4122,-2.3268,-2.1643,-2.1481,-2.1481,-2.1481,-2.1481,-2.1606,-2.187,-2.1895,-2.2008,-2.2272,-2.2518,-2.2694,-2.2744,-2.3183,-2.3521,-2.3559,-2.3772,-2.4061,-2.4356,-2.4406,-2.46,-2.5076,-2.5209,-2.5398,-2.585,-2.5548,-2.541,-2.5925,-2.6273,-2.6302,-2.5873,-2.5721,-2.5406,-2.4445,-2.3806,-2.3294,-2.2802,-2.1924,-2.1308,-2.126,-2.0934,-2.0605,-2.0615,-2.0615,-2.0615,-2.0615,-2.0615,-2.0615,-2.0615,-2.0615,-2.0615,-4.1796,-4.1336,-4.1144,-4.0451,-3.946,-3.9053,-3.8511,-3.7821,-3.6417,0.0,0.0,-3.5667,-3.5616,-3.5616,-3.5616,-3.5616,-3.5616,-3.5752,-3.5825,-3.5825,-3.5938,-3.6005,-3.5988,-3.5853,-3.5802,-3.5785,-3.5684,-3.5616,-3.5616,-3.5616,-3.5616,-3.5554,-3.5052,-3.4736,-3.4592,-3.4062,-3.2639,-3.0411,-3.006,-2.9564,-2.8786,-2.8771,-2.8457,-2.7794,-2.7779,-2.772,-2.76,-2.7585,-2.7585,-2.7585,-2.7585,-2.7585,-2.7585,-2.7585,-2.7585,-2.7585,-2.7585,-2.7331,-2.6747,-2.668,-2.639,-2.566,-2.5481,-2.4419,-2.2143,-2.1995,-2.1923,-2.1823,-2.1782,-2.197,-2.241,-2.246,-2.2606,-2.3058,-2.3195,-2.3258,-2.3283,-2.3791,-2.4142,-2.4192,-2.4506,-2.4838,-2.4901,-2.4926,-2.5146,-2.5611,-2.5749,-2.5933,-2.6311,-2.6038,-2.5946,-2.6348,-2.6461,-2.6487,-2.6487,-2.6418,-2.6176,-2.5418,-2.5075,-2.4707,-2.3891,-2.2765,-2.2065,-2.1924,-2.1221,-2.0722,-2.0615,-2.0615,-2.0615,-2.0615,-2.0615,-2.0615,-2.0615,-2.0615,-2.0615,-4.3196,-4.3087,-4.2624,-4.2022,-4.1323,-4.0152,-3.8969,-3.7838,-3.7015,-3.6643,-3.6609,-3.591,-3.5616,-3.5616,-3.5616,-3.5616,-3.565,-3.6315,-3.6626,-3.6677,-3.7297,-3.7584,-3.755,-3.6924,-3.662,-3.6569,-3.596,-3.5616,-3.5616,-3.5616,-3.5616,-3.5616,-3.5515,-3.5168,-3.4624,-3.4503,-3.3973,-3.3022,-3.1903,-3.0708,-2.9487,-2.9445,-2.9131,-2.8502,-2.8457,-2.8199,-2.763,-2.76,-2.7585,-2.7585,-2.7585,-2.7585,-2.7585,-2.7585,-2.7585,-2.7585,-2.7585,-2.7534,-2.7433,-2.7448,-2.7152,-2.6404,-2.5755,-2.4953,-2.401,-2.3898,-2.3622,-2.2988,-2.2862,-2.2895,-2.2982,-2.2982,-2.3032,-2.3145,-2.3547,-2.3879,-2.3879,-2.4381,-2.4707,-2.4675,-2.4738,-2.5034,-2.5423,-2.5485,-2.5686,-2.621,-2.6273,-2.6386,-2.6436,-2.6424,-2.6411,-2.6474,-2.6487,-2.6487,-2.6487,-2.6487,-2.6383,-2.6361,-2.5558,-2.5075,-2.4862,-2.3404,-2.2328,-2.2065,-2.1451,-2.0828,-2.0683,-2.0615,-2.0644,-2.0644,-2.0615,-2.0615,-2.0615,-2.0615,-2.0615,-4.3339,-4.3105,-4.3105,-4.2619,-4.1754,-4.1125,-4.0547,-3.9976,-3.9234,-3.8338,-3.7388,-3.6986,-3.685,-3.685,-3.685,-3.6834,-3.6867,-3.7229,-3.7398,-3.7415,-3.7736,-3.7898,-3.7865,-3.755,-3.7398,-3.7364,-3.7026,-3.6857,-3.6834,-3.6817,-3.6648,-3.6248,-3.5802,-3.5447,-3.5161,-3.5161,-3.48,-3.4137,-3.283,-3.1662,-3.0712,-3.0292,-2.9774,-2.9146,-2.9131,-2.8816,-2.8158,-2.8154,-2.7989,-2.7615,-2.7585,-2.7585,-2.7585,-2.7585,-2.7585,-2.7585,-2.7585,-2.7585,-2.7585,-2.7585,-2.7458,-2.7111,-2.6785,-2.6269,-2.5536,-2.4766,-2.4147,-2.3767,-2.3352,-2.3095,-2.3108,-2.3384,-2.3572,-2.3602,-2.4073,-2.4431,-2.4494,-2.4908,-2.5234,-2.5272,-2.5523,-2.5799,-2.6059,-2.6097,-2.616,-2.6461,-2.6487,-2.6487,-2.6487,-2.6487,-2.6487,-2.6487,-2.6487,-2.6487,-2.6487,-2.6487,-2.6487,-2.6487,-2.6129,-2.5851,-2.5734,-2.4505,-2.3734,-2.3551,-2.2813,-2.201,-2.1479,-2.1364,-2.1145,-2.0644,-2.0615,-2.0615,-2.0615,-2.0615,-2.0615,-4.3268,-4.292,-4.3339,-4.2922,-4.2,-4.1835,-4.181,-4.174,-4.1176,-4.0145,-3.8842,-3.8308,-3.8014,-3.7905,-3.7898,-3.7882,-3.7922,-3.8091,-3.8142,-3.8176,-3.8328,-3.8396,-3.8379,-3.8244,-3.8142,-3.8125,-3.7966,-3.7898,-3.7898,-3.7898,-3.7618,-3.7049,-3.6434,-3.6022,-3.587,-3.5876,-3.5507,-3.48,-3.3659,-3.2656,-3.1827,-3.1271,-3.0626,-2.9876,-2.9816,-2.949,-2.8876,-2.8831,-2.8502,-2.7884,-2.7824,-2.7779,-2.76,-2.7585,-2.7585,-2.7585,-2.7585,-2.7585,-2.7585,-2.7585,-2.7585,-2.7585,-2.7585,-2.7431,-2.6951,-2.58,-2.4939,-2.4738,-2.4285,-2.3906,-2.3917,-2.4231,-2.4386,-2.4268,-2.4669,-2.4951,-2.5034,-2.5473,-2.5787,-2.585,-2.6235,-2.6461,-2.6487,-2.6487,-2.6474,-2.6474,-2.6487,-2.6487,-2.6487,-2.6487,-2.6487,-2.6487,-2.6487,-2.6487,-2.6487,-2.6487,-2.6487,-2.6487,-2.6452,-2.6418,-2.6233,-2.5629,-2.504,-2.4743,-2.4072,-2.3036,-2.2226,-2.1962,-2.1555,-2.0828,-2.0615,-2.0615,-2.0615,-2.0615,-2.0615,-4.348,-4.3427,-4.348,-4.3178,-4.2596,-4.208,-4.1853,-4.1835,-4.1725,-4.1626,-4.1173,-3.9473,-3.8419,-3.7936,-3.7956,-3.799,-3.8024,-3.8599,-3.8903,-3.8971,-3.9605,-3.9893,-3.9757,-3.9191,-3.8903,-3.8819,-3.8278,-3.8058,-3.8041,-3.7973,-3.7848,-3.7804,-3.7719,-3.7313,-3.6778,-3.6694,-3.6309,-3.5509,-3.48,-3.3804,-3.259,-3.2439,-3.176,-3.0447,-3.0417,-3.0133,-2.9547,-2.9517,-2.919,-2.8577,-2.8502,-2.8233,-2.7705,-2.7615,-2.7615,-2.763,-2.763,-2.7585,-2.7615,-2.7585,-2.7645,-2.7585,-2.766,-2.7889,-2.8271,-2.7661,-2.6904,-2.6411,-2.6169,-2.5896,-2.5818,-2.584,-2.5519,-2.4834,-2.5222,-2.5523,-2.5586,-2.6072,-2.6424,-2.6424,-2.6436,-2.6487,-2.6487,-2.6487,-2.6487,-2.6487,-2.6487,-2.6487,-2.6487,-2.6487,-2.6487,-2.6487,-2.6487,-2.6487,-2.6487,-2.6487,-2.6487,-2.6487,-2.6487,-2.6487,-2.6314,-2.5769,-2.5004,-2.5194,-2.4409,-2.3478,-2.2627,-2.2,-2.1811,-2.1088,-2.0722,-2.0615,-2.0615,-2.0615,-2.0615,-4.4213,-4.4158,-4.3681,-4.3375,-4.3142,-4.2903,-4.281,-4.281,-4.281,-4.262,-4.2268,-4.1406,-4.0555,-3.9684,-3.9353,-3.9191,-3.9225,-3.952,-3.9673,-3.969,-3.9977,-4.0113,-4.0062,-3.9808,-3.9631,-3.9656,-3.9351,-3.9216,-3.9123,-3.8751,-3.8548,-3.8497,-3.8125,-3.7736,-3.7466,-3.7449,-3.7077,-3.6309,-3.6051,-3.5199,-3.386,-3.3013,-3.2326,-3.1778,-3.1317,-3.0791,-3.0208,-3.0118,-2.9834,-2.925,-2.9175,-2.9082,-2.8813,-2.8783,-2.8783,-2.8783,-2.8783,-2.8783,-2.8783,-2.8798,-2.8783,-2.8783,-2.8798,-2.8891,-2.9146,-2.8892,-2.8723,-2.8694,-2.7697,-2.6724,-2.6254,-2.6387,-2.6218,-2.5545,-2.5774,-2.6135,-2.6147,-2.6336,-2.6487,-2.6487,-2.6487,-2.6487,-2.6487,-2.6487,-2.6487,-2.6487,-2.6487,-2.6487,-2.6487,-2.6487,-2.6487,-2.6487,-2.6487,-2.6487,-2.6487,-2.6487,-2.6487,-2.6487,-2.6487,-2.6487,-2.6418,-2.628,-2.5921,-2.5851,-2.5394,-2.4767,-2.4084,-2.3708,-2.3368,-2.2124,-2.0867,-2.0615,-2.0615,-2.0615,-2.0615,-4.5039,-4.4929,-4.4397,-4.414,-4.414,-4.4158,-4.4158,-4.4103,-4.3938,-4.3615,-4.321,-4.2706,-4.1979,-4.1133,-4.057,-4.0254,-4.0121,-4.0113,-4.0113,-4.0113,-4.0113,-4.0113,-4.0113,-4.0113,-4.0113,-4.0113,-4.0079,-4.0079,-4.0045,-3.958,-3.9317,-3.9191,-3.8768,-3.8396,-3.8227,-3.8193,-3.7838,-3.7144,-3.7117,-3.6461,-3.5214,-3.4066,-3.3255,-3.2857,-3.216,-3.1583,-3.1099,-3.0861,-3.0492,-2.9864,-2.9834,-2.9759,-2.9621,-2.9621,-2.9621,-2.9621,-2.9621,-2.9621,-2.9621,-2.9621,-2.9621,-2.9621,-2.9621,-2.9654,-2.9831,-2.9834,-3.0133,-3.0529,-2.9334,-2.8199,-2.7428,-2.7377,-2.7076,-2.6325,-2.643,-2.6487,-2.6474,-2.6487,-2.6487,-2.6487,-2.6487,-2.6487,-2.6487,-2.6487,-2.6487,-2.6487,-2.6487,-2.6487,-2.6487,-2.6487,-2.6487,-2.6487,-2.6487,-2.6487,-2.6487,-2.6487,-2.6487,-2.6487,-2.6487,-2.6487,-2.6487,-2.6499,-2.6499,-2.6198,-2.6418,-2.6047,-2.4898,-2.4671,-2.4528,-2.2925,-2.1707,-2.1088,-2.1116,-2.0867,-2.0644,-4.5847,-4.5828,-4.5792,-4.57,-4.5755,-4.5718,-4.5736,-4.559,-4.4966,-4.4618,-4.4309,-4.2799,-4.1888,-4.1835,-4.1318,-4.0618,-4.0146,-4.0113,-4.0113,-4.0113,-4.0113,-4.0113,-4.0113,-4.0113,-4.0113,-4.0113,-4.0113,-4.0113,-4.0113,-4.0045,-4.0062,-4.0011,-3.991,-3.9622,-3.9039,-3.8937,-3.8582,-3.7939,-3.7855,-3.7459,-3.669,-3.5892,-3.487,-3.3752,-3.2879,-3.2446,-3.2345,-3.1792,-3.1137,-3.0492,-3.0462,-3.0223,-2.9726,-2.9639,-2.9669,-2.9696,-2.9681,-2.9639,-2.9669,-2.9699,-2.9726,-2.9654,-2.9786,-2.9864,-3.0402,-3.0477,-3.0746,-3.1332,-3.1127,-3.0676,-2.9948,-2.9156,-2.8498,-2.7663,-2.6968,-2.6679,-2.6589,-2.6692,-2.6521,-2.6555,-2.6521,-2.6487,-2.6487,-2.6487,-2.6487,-2.6487,-2.6487,-2.6487,-2.6487,-2.6487,-2.6487,-2.6487,-2.6487,-2.6487,-2.6487,-2.6487,-2.6487,-2.6487,-2.6487,-2.6487,-2.6487,-2.6487,-2.6487,-2.6487,-2.6487,-2.6129,-2.5335,-2.4826,-2.4528,-2.3562,-2.2627,-2.2065,-2.1962,-2.1193,-2.0934,-4.6342,-4.5902,-4.5902,-4.5902,-4.5902,-4.5902,-4.5902,-4.5865,-4.5608,-4.5461,-4.537,-4.4707,-4.4252,-4.3894,-4.3706,-4.2286,-4.0222,-4.0113,-4.0113,-4.0113,-4.0113,-4.0113,-4.0113,-4.0113,-4.0113,-4.0113,-4.0113,-4.0113,-4.0113,-4.0113,-4.0113,-4.0113,-4.0113,-3.9943,-3.9757,-3.9723,-3.9326,-3.8684,-3.8599,-3.8244,-3.7516,-3.6781,-3.6148,-3.5577,-3.3672,-3.2586,-3.2586,-3.191,-3.1376,-3.1137,-3.1122,-3.1032,-3.0838,-3.0808,-3.0808,-3.0821,-3.0793,-3.0836,-3.0821,-3.0821,-3.0836,-3.0808,-3.0808,-3.0866,-3.1077,-3.1152,-3.1241,-3.1436,-3.1496,-3.1307,-3.1029,-3.0343,-2.9473,-2.8684,-2.8279,-2.8005,-2.7986,-2.7637,-2.725,-2.7183,-2.6871,-2.6487,-2.6521,-2.6487,-2.6487,-2.6487,-2.6487,-2.6487,-2.6487,-2.6487,-2.6487,-2.6487,-2.6487,-2.6487,-2.6487,-2.6487,-2.6487,-2.6487,-2.6487,-2.6487,-2.6487,-2.6487,-2.6487,-2.6487,-2.6487,-2.6418,-2.5734,-2.5419,-2.5004,-2.467,-2.3728,-2.3172,-2.2951,-2.2371,-2.1983,-4.7186,-4.6709,-4.6673,-4.6673,-4.6691,-4.6673,-4.6691,-4.6654,-4.6397,-4.6287,-4.6232,-4.5846,-4.5434,-4.51,-4.488,-4.3687,-4.1536,-4.1251,-4.0899,-4.0485,-4.0443,-4.0333,-4.013,-4.0113,-4.0113,-4.0113,-4.0113,-4.0113,-4.0113,-4.0113,-4.0113,-4.0113,-4.0113,-4.0113,-4.0113,-4.0113,-3.9842,-3.9411,-3.9368,-3.8988,-3.8294,-3.777,-3.7388,-3.6855,-3.4834,-3.3483,-3.3251,-3.2339,-3.1838,-3.1824,-3.164,-3.1496,-3.1496,-3.1496,-3.1496,-3.1496,-3.1481,-3.1496,-3.1496,-3.1496,-3.1496,-3.1496,-3.1496,-3.1496,-3.1496,-3.1496,-3.1496,-3.1496,-3.1496,-3.1496,-3.1409,-3.0999,-3.0359,-2.9566,-2.9192,-2.8989,-2.8957,-2.8473,-2.8168,-2.7986,-2.7129,-2.6714,-2.6782,-2.6624,-2.6521,-2.6487,-2.6487,-2.6487,-2.6487,-2.6487,-2.6487,-2.6487,-2.6487,-2.6487,-2.6487,-2.6487,-2.6487,-2.6487,-2.6487,-2.6487,-2.6487,-2.6487,-2.6487,-2.6487,-2.6499,-2.6487,-2.633,-2.5998,-2.5812,-2.5659,-2.5073,-2.4439,-2.4118,-2.3714,-2.3235,-4.8251,-4.8177,-4.8288,-4.8141,-4.8086,-4.8086,-4.8214,-4.8012,-4.7388,-4.7094,-4.6983,-4.5868,-4.553,-4.5186,-4.5021,-4.4356,-4.4079,-4.3634,-4.2622,-4.1393,-4.1247,-4.0865,-4.0333,-4.0367,-4.0282,-4.0214,-4.013,-4.0113,-4.0113,-4.0113,-4.0113,-4.0113,-4.0113,-4.0113,-4.0113,-4.0096,-4.0096,-4.0011,-3.9994,-3.9673,-3.9089,-3.887,-3.8497,-3.7858,-3.6422,-3.535,-3.4676,-3.3335,-3.2559,-3.2465,-3.1923,-3.1524,-3.1524,-3.1496,-3.1496,-3.1496,-3.1496,-3.1496,-3.1496,-3.1496,-3.1496,-3.1496,-3.1496,-3.1496,-3.1496,-3.1496,-3.1496,-3.1496,-3.1496,-3.1496,-3.1496,-3.1409,-3.1087,-3.0389,-2.9735,-2.9317,-2.9192,-2.9066,-2.8989,-2.8703,-2.7604,-2.6939,-2.7263,-2.6985,-2.6521,-2.6487,-2.6487,-2.6487,-2.6487,-2.6487,-2.6487,-2.6487,-2.6487,-2.6487,-2.6487,-2.6487,-2.6487,-2.6487,-2.6487,-2.6487,-2.6487,-2.6487,-2.6487,-2.6499,-2.67,-2.6725,-2.6839,-2.6613,-2.697,-2.6792,-2.6166,-2.5778,-2.5597,-2.5248,-2.4301,-4.8324,-4.8324,-4.8324,-4.8324,-4.8324,-4.8324,-4.8324,-4.8306,-4.7993,-4.7939,-4.7846,-4.7492,-4.7306,-4.7248,-4.7092,-4.6773,-4.6392,-4.6137,-4.4894,-4.2896,-4.221,-4.1839,-4.161,-4.1602,-4.1322,-4.0832,-4.0333,-4.0113,-4.0146,-4.013,-4.0113,-4.0113,-4.0113,-4.0113,-4.0113,-4.0113,-4.0113,-4.0113,-4.0113,-3.996,-3.9723,-3.9242,-3.887,-3.8592,-3.7713,-3.7095,-3.6755,-3.4563,-3.3108,-3.2683,-3.2382,-3.2035,-3.1611,-3.1496,-3.1496,-3.1496,-3.1496,-3.1496,-3.1496,-3.1496,-3.1496,-3.1496,-3.1496,-3.1496,-3.1496,-3.1496,-3.1496,-3.1496,-3.1496,-3.1496,-3.1496,-3.1496,-3.1395,-3.1146,-3.0881,-3.0614,-3.0524,-3.0163,-2.9628,-2.9002,-2.8019,-2.755,-2.7504,-2.7074,-2.6658,-2.6555,-2.6555,-2.6555,-2.6487,-2.6487,-2.6487,-2.6487,-2.6487,-2.6487,-2.6487,-2.6487,-2.6487,-2.6487,-2.6487,-2.6487,-2.6487,-2.6499,-2.6487,-2.6675,-2.6864,-2.7052,-2.7165,-2.7381,-2.772,-2.7846,-2.7384,-2.7237,-2.7286,-2.6651,-2.5695,-4.8324,-4.8324,-4.8324,-4.8324,-4.8324,-4.8324,-4.8324,-4.8324,-4.8324,-4.8324,-4.8306,-4.8287,-4.8324,-4.8324,-4.8324,-4.8094,-4.7736,-4.753,-4.6498,-4.4794,-4.3544,-4.2875,-4.239,-4.2303,-4.2083,-4.1644,-4.1136,-4.0942,-4.0908,-4.0654,-4.051,-4.0493,-4.0265,-4.0113,-4.0113,-4.0113,-4.0113,-4.0113,-4.0113,-4.0113,-4.0011,-3.9656,-3.9402,-3.9292,-3.8684,-3.8328,-3.8138,-3.6257,-3.4744,-3.3789,-3.3079,-3.2259,-3.1582,-3.1496,-3.1496,-3.1496,-3.1496,-3.1496,-3.1496,-3.1496,-3.1496,-3.1496,-3.1496,-3.1496,-3.1496,-3.1496,-3.1496,-3.1496,-3.1496,-3.1615,-3.1809,-3.1869,-3.1959,-3.2228,-3.1721,-3.154,-3.1365,-3.0763,-3.0359,-2.9766,-2.8925,-2.8492,-2.8427,-2.7966,-2.7297,-2.7074,-2.6939,-2.676,-2.6624,-2.6487,-2.6487,-2.6487,-2.6487,-2.6487,-2.6487,-2.6487,-2.6487,-2.6487,-2.6487,-2.6487,-2.6487,-2.6499,-2.6512,-2.6977,-2.7266,-2.7519,-2.767,-2.8084,-2.8423,-2.8411,-2.8411,-2.8275,-2.8089,-2.7788,-2.7004,-4.8324,-4.8324,-4.8324,-4.8324,-4.8324,-4.8324,-4.8324,-4.8324,-4.8324,-4.8324,-4.8324,-4.8324,-4.8324,-4.8324,-4.8324,-4.8267,-4.8209,-4.7756,-4.7391,-4.6659,-4.5423,-4.405,-4.2985,-4.2637,-4.2455,-4.2354,-4.2202,-4.2168,-4.1999,-4.1508,-4.1271,-4.1204,-4.062,-4.0197,-4.0248,-4.0163,-4.0113,-4.0113,-4.0113,-4.0113,-4.0113,-4.0079,-4.0045,-4.0011,-3.9436,-3.9056,-3.8896,-3.8098,-3.7075,-3.5712,-3.3874,-3.2604,-3.186,-3.1613,-3.1615,-3.154,-3.1496,-3.1496,-3.1496,-3.1496,-3.1496,-3.1496,-3.1496,-3.1496,-3.1496,-3.1496,-3.1555,-3.166,-3.1645,-3.1884,-3.2392,-3.2542,-3.2826,-3.3185,-3.2482,-3.1869,-3.1602,-3.1086,-3.1084,-3.1205,-3.0276,-2.9474,-3.0204,-2.9596,-2.8847,-2.8245,-2.7947,-2.7452,-2.7033,-2.6853,-2.6546,-2.6487,-2.6499,-2.6487,-2.6487,-2.6487,-2.6487,-2.6487,-2.6499,-2.6524,-2.66,-2.665,-2.6864,-2.7316,-2.7745,-2.8009,-2.8298,-2.8674,-2.8938,-2.8988,-2.8988,-2.8938,-2.875,-2.8461,-2.8085,-4.8324,-4.8324,-4.8324,-4.8324,-4.8324,-4.8324,-4.8324,-4.8324,-4.8324,-4.8324,-4.8324,-4.8324,-4.8324,-4.8324,-4.8324,-4.8324,-4.8248,-4.8132,-4.7777,-4.737,-4.6948,-4.5893,-4.4621,-4.3579,-4.3132,-4.3064,-4.2658,-4.2303,-4.2269,-4.2117,-4.2016,-4.1965,-4.1288,-4.0916,-4.0865,-4.0417,-4.013,-4.0113,-4.0113,-4.0113,-4.0113,-4.0113,-4.0113,-4.0079,-3.9893,-3.9791,-3.9715,-3.9089,-3.8043,-3.6561,-3.5034,-3.3841,-3.3126,-3.2593,-3.2107,-3.169,-3.157,-3.1525,-3.1525,-3.1525,-3.1511,-3.1496,-3.1555,-3.1496,-3.1496,-3.1511,-3.1735,-3.2064,-3.2243,-3.2527,-3.3066,-3.326,-3.3395,-3.341,-3.32,-3.2946,-3.2856,-3.2809,-3.2779,-3.2809,-3.1936,-3.155,-3.1395,-3.1045,-3.0382,-2.9964,-2.9234,-2.8403,-2.7957,-2.7173,-2.6853,-2.6593,-2.6512,-2.6499,-2.6487,-2.6487,-2.6487,-2.6487,-2.6524,-2.6587,-2.6751,-2.6952,-2.7306,-2.7795,-2.8348,-2.8687,-2.8888,-2.9176,-2.934,-2.944,-2.9465,-2.9415,-2.9352,-2.9126,-2.8787,-4.8324,-4.8324,-4.8324,-4.8324,-4.8324,-4.8324,-4.8324,-4.8324,-4.8324,-4.8324,-4.8324,-4.8324,-4.8324,-4.8324,-4.8324,-4.8324,-4.8324,-4.8324,-4.8113,-4.7797,-4.7473,-4.6623,-4.5458,-4.435,-4.391,-4.3876,-4.3481,-4.3301,-4.3244,-4.2946,-4.2777,-4.2625,-4.2033,-4.1677,-4.161,-4.0933,-4.0544,-4.0519,-4.0299,-4.0113,-4.0113,-4.0113,-4.0113,-4.0113,-4.0113,-4.0113,-4.0028,-3.969,-3.8782,-3.7421,-3.6206,-3.5162,-3.4203,-3.3713,-3.3078,-3.2421,-3.2362,-3.2243,-3.1974,-3.1914,-3.1765,-3.163,-3.1705,-3.1899,-3.2004,-3.2138,-3.2587,-3.2841,-3.2916,-3.326,-3.3799,-3.4158,-3.4322,-3.4397,-3.4337,-3.4113,-3.3604,-3.344,-3.3499,-3.3362,-3.3084,-3.2757,-3.2725,-3.2312,-3.1929,-3.1471,-3.0811,-2.9929,-2.909,-2.8074,-2.7263,-2.7103,-2.671,-2.6625,-2.6637,-2.6637,-2.6851,-2.6839,-2.7128,-2.7077,-2.7118,-2.7394,-2.7921,-2.8448,-2.895,-2.9302,-2.9402,-2.949,-2.9591,-2.9679,-2.9779,-2.9754,-2.9641,-2.9553,-2.9264,-4.8324,-4.8324,-4.8324,-4.8324,-4.8324,-4.8324,-4.8324,-4.8324,-4.8324,-4.8324,-4.8324,-4.8324,-4.8324,-4.8324,-4.8324,-4.8324,-4.8324,-4.8324,-4.8305,-4.8055,-4.7656,-4.6837,-4.594,-4.5039,-4.4705,-4.464,-4.4665,-4.4479,-4.4225,-4.3758,-4.3527,-4.3352,-4.2777,-4.2455,-4.2219,-4.1576,-4.1221,-4.0984,-4.0392,-4.013,-4.0113,-4.0113,-4.0113,-4.0113,-4.0113,-4.0113,-4.0113,-3.9986,-3.9471,-3.8288,-3.7456,-3.6432,-3.5304,-3.5042,-3.4529,-3.3937,-3.3741,-3.35,-3.29,-3.2824,-3.2496,-3.2107,-3.2377,-3.2602,-3.2691,-3.3006,-3.3365,-3.3574,-3.3589,-3.3933,-3.4502,-3.5115,-3.528,-3.525,-3.537,-3.4876,-3.4068,-3.3709,-3.3709,-3.3709,-3.3739,-3.3694,-3.3694,-3.3632,-3.3459,-3.3093,-3.2352,-3.1438,-3.0371,-2.9291,-2.8447,-2.7873,-2.7373,-2.6801,-2.6801,-2.6813,-2.708,-2.7318,-2.7821,-2.7959,-2.7846,-2.8122,-2.8587,-2.9063,-2.9377,-2.9553,-2.9654,-2.9741,-2.9779,-2.9779,-2.9779,-2.9779,-2.9767,-2.9716,-2.9515,-4.8324,-4.8324,-4.8324,-4.8324,-4.8324,-4.8324,-4.8324,-4.8324,-4.8324,-4.8324,-4.8324,-4.8324,-4.8324,-4.8324,-4.8324,-4.8324,-4.8324,-4.8324,-4.8324,-4.821,-4.7677,-4.7342,-4.6728,-4.5883,-4.5346,-4.5232,-4.4814,-4.4626,-4.4541,-4.4439,-4.4344,-4.4164,-4.3572,-4.3156,-4.3014,-4.2016,-4.1221,-4.1085,-4.0493,-4.0163,-4.0113,-4.0113,-4.0113,-4.0113,-4.0113,-4.0113,-4.0113,-4.0113,-3.9935,-3.9547,-3.884,-3.7978,-3.7232,-3.6653,-3.6038,-3.5493,-3.5263,-3.4999,-3.4388,-3.4183,-3.3873,-3.3171,-3.3216,-3.329,-3.329,-3.344,-3.3799,-3.4113,-3.4277,-3.4562,-3.51,-3.5385,-3.5489,-3.5489,-3.5489,-3.5385,-3.5115,-3.5026,-3.4936,-3.4981,-3.4966,-3.5055,-3.5011,-3.4921,-3.4746,-3.4567,-3.3867,-3.2933,-3.1808,-3.059,-2.9829,-2.9175,-2.8551,-2.8057,-2.7688,-2.7632,-2.767,-2.7946,-2.8411,-2.875,-2.8637,-2.8649,-2.9076,-2.9402,-2.9679,-2.9779,-2.9779,-2.9779,-2.9779,-2.9779,-2.9779,-2.9779,-2.9779,-2.9779,-2.9767,-4.8324,-4.8324,-4.8324,-4.8324,-4.8324,-4.8324,-4.8324,-4.8324,-4.8324,-4.8324,-4.8324,-4.8324,-4.8324,-4.8324,-4.8324,-4.8324,-4.8324,-4.8324,-4.8324,-4.8248,-4.7957,-4.7838,-4.7656,-4.691,-4.6257,-4.589,-4.532,-4.5052,-4.4971,-4.4748,-4.4547,-4.4598,-4.413,-4.3978,-4.3842,-4.2777,-4.2134,-4.166,-4.0984,-4.0485,-4.0163,-4.0113,-4.0113,-4.0113,-4.0113,-4.0113,-4.0113,-4.0113,-4.0113,-3.9978,-3.9688,-3.9139,-3.8517,-3.8008,-3.7452,-3.6878,-3.6726,-3.6406,-3.5884,-3.5628,-3.5201,-3.4164,-3.4318,-3.4227,-3.4177,-3.4203,-3.4562,-3.4846,-3.4981,-3.5145,-3.5444,-3.5489,-3.5489,-3.5489,-3.5489,-3.5489,-3.5489,-3.5489,-3.5489,-3.5489,-3.5415,-3.5429,-3.5489,-3.5489,-3.5427,-3.4996,-3.4978,-3.4134,-3.3317,-3.2182,-3.1398,-3.0712,-2.9971,-2.9372,-2.8873,-2.8584,-2.836,-2.8637,-2.8963,-2.9227,-2.9302,-2.934,-2.944,-2.9641,-2.9779,-2.9779,-2.9779,-2.9779,-2.9779,-2.9779,-2.9779,-2.9779,-2.9779,-2.9779,-2.9779,-4.8324,-4.8324,-4.8324,-4.8324,-4.8324,-4.8324,-4.8324,-4.8324,-4.8324,-4.8324,-4.8324,-4.8324,-4.8324,-4.8324,-4.8324,-4.8324,-4.8324,-4.8324,-4.8324,-4.8267,-4.8248,-4.8209,-4.8055,-4.7656,-4.7198,-4.6641,-4.5965,-4.563,-4.5346,-4.5025,-4.4759,-4.4637,-4.4581,-4.4479,-4.4378,-4.3792,-4.2997,-4.2439,-4.1542,-4.0882,-4.0375,-4.0231,-4.0113,-4.0113,-4.0113,-4.0113,-4.0113,-4.0113,-4.0113,-4.0113,-4.0113,-3.9731,-3.9315,-3.9032,-3.8854,-3.8169,-3.8168,-3.7809,-3.7298,-3.7042,-3.657,-3.5292,-3.5613,-3.5642,-3.5385,-3.5363,-3.5525,-3.5533,-3.5561,-3.5415,-3.5489,-3.5489,-3.5489,-3.5489,-3.5489,-3.5489,-3.5489,-3.5489,-3.5489,-3.5489,-3.5489,-3.5489,-3.5489,-3.5489,-3.5489,-3.5489,-3.5472,-3.5249,-3.4434,-3.3628,-3.2764,-3.2145,-3.1453,-3.0975,-3.0463,-3.0164,-2.9904,-2.9552,-2.9808,-2.9758,-2.9884,-2.9666,-2.9641,-2.9691,-2.9779,-2.9779,-2.9779,-2.9779,-2.9779,-2.9779,-2.9779,-2.9779,-2.9779,-2.9779,-2.9779,-4.8324,-4.8324,-4.8324,-4.8324,-4.8324,-4.8324,-4.8324,-4.8324,-4.8324,-4.8324,-4.8324,-4.8324,-4.8324,-4.8324,-4.8324,-4.8324,-4.8324,-4.8324,-4.8324,-4.8324,-4.8324,-4.8324,-4.8248,-4.8152,-4.7977,-4.7697,-4.6892,-4.6119,-4.5648,-4.5372,-4.4944,-4.4665,-4.4598,-4.4598,-4.4395,-4.3842,-4.342,-4.2946,-4.1965,-4.1204,-4.0865,-4.0375,-4.0113,-4.0113,-4.0113,-4.0113,-4.0113,-4.0113,-4.0113,-4.0113,-4.0113,-4.0003,-3.9876,-3.9825,-3.9705,-3.9558,-3.948,-3.9093,-3.8574,-3.8455,-3.8098,-3.753,-3.73,-3.7335,-3.7076,-3.6705,-3.6477,-3.6259,-3.5926,-3.5569,-3.5489,-3.5522,-3.5489,-3.5489,-3.5489,-3.5489,-3.5489,-3.5489,-3.5489,-3.5489,-3.5489,-3.5489,-3.5489,-3.5489,-3.5489,-3.5489,-3.5504,-3.5472,-3.5059,-3.4474,-3.384,-3.332,-3.2849,-3.2492,-3.2138,-3.194,-3.1658,-3.0913,-3.0802,-3.0391,-3.0317,-2.9908,-2.9779,-2.983,-2.9779,-2.9779,-2.9779,-2.9779,-2.9779,-2.9779,-2.9779,-2.9779,-2.9779,-2.9779,-2.9779,-4.8324,-4.8324,-4.8324,-4.8324,-4.8324,-4.8324,-4.8324,-4.8324,-4.8324,-4.8324,-4.8324,-4.8324,-4.8324,-4.8324,-4.8324,-4.8324,-4.8324,-4.8324,-4.8324,-4.8324,-4.8324,-4.8324,-4.8324,-4.8324,-4.8324,-4.8152,-4.7617,-4.6824,-4.5965,-4.5284,-4.4971,-4.4692,-4.4598,-4.4598,-4.4547,-4.4248,-4.3775,-4.3284,-4.2354,-4.1542,-4.117,-4.0476,-4.0146,-4.0113,-4.0113,-4.0113,-4.0113,-4.0113,-4.0113,-4.0113,-4.0113,-4.0113,-4.0113,-4.0113,-4.0113,-4.0113,-4.007,-3.9952,-3.9594,-3.9489,-3.9123,-3.8481,-3.8374,-3.8149,-3.7863,-3.7395,-3.7203,-3.704,-3.6538,-3.607,-3.6086,-3.575,-3.5522,-3.5489,-3.5489,-3.5489,-3.5489,-3.5489,-3.5489,-3.5489,-3.5489,-3.5489,-3.5489,-3.5489,-3.5489,-3.5489,-3.5489,-3.5489,-3.5489,-3.5085,-3.4576,-3.4327,-3.3876,-3.3553,-3.3276,-3.3066,-3.2855,-3.2236,-3.1815,-3.1402,-3.0983,-3.0633,-3.0139,-2.9869,-2.983,-2.996,-2.9779,-2.9779,-2.9779,-2.9779,-2.9779,-2.9779,-2.9779,-2.9779,-2.9767,-4.8324,-4.8324,-4.8324,-4.8324,-4.8324,-4.8324,-4.8324,-4.8324,-4.8324,-4.8324,-4.8324,-4.8324,-4.8324,-4.8324,-4.8324,-4.8324,-4.8324,-4.8324,-4.8324,-4.8324,-4.8324,-4.8324,-4.8324,-4.8324,-4.8305,-4.8267,-4.7975,-4.7596,-4.6618,-4.5673,-4.5035,-4.4814,-4.472,-4.4598,-4.4564,-4.4513,-4.4096,-4.3606,-4.2709,-4.1897,-4.1035,-4.0451,-4.0113,-4.0113,-4.0113,-4.0113,-4.0113,-4.0113,-4.0113,-4.0113,-4.0113,-4.0113,-4.0113,-4.0113,-4.0113,-4.0113,-4.0113,-4.0113,-4.007,-4.0045,-3.9731,-3.9209,-3.9156,-3.8816,-3.8458,-3.8262,-3.795,-3.7748,-3.7308,-3.6707,-3.6477,-3.6101,-3.5799,-3.5718,-3.5636,-3.5554,-3.5701,-3.5668,-3.5489,-3.5489,-3.5489,-3.5489,-3.5489,-3.5489,-3.5489,-3.5489,-3.5489,-3.5489,-3.5489,-3.5489,-3.5166,-3.51,-3.4839,-3.4476,-3.4177,-3.3891,-3.3567,-3.3052,-3.277,-3.25,-3.1974,-3.1513,-3.102,-3.0684,-3.0279,-3.0381,-3.0101,-2.9779,-2.9779,-2.9779,-2.9779,-2.9779,-2.9779,-2.9729,-2.9691,-4.8324,-4.8324,-4.8324,-4.8324,-4.8324,-4.8324,-4.8324,-4.8324,-4.8324,-4.8324,-4.8324,-4.8324,-4.8324,-4.8324,-4.8324,-4.8324,-4.8324,-4.8324,-4.8324,-4.8324,-4.8324,-4.8324,-4.8324,-4.8324,-4.8324,-4.8248,-4.7856,-4.7509,-4.7066,-4.6454,-4.5858,-4.5407,-4.4998,-4.4626,-4.4731,-4.4731,-4.4547,-4.4209,-4.3014,-4.1627,-4.0519,-4.0163,-4.0113,-4.0113,-4.0113,-4.0113,-4.0113,-4.0113,-4.0113,-4.0113,-4.0113,-4.0113,-4.0113,-4.0113,-4.0113,-4.0113,-4.0113,-4.0113,-4.0113,-4.0113,-4.007,-3.9808,-3.985,-3.9876,-3.9506,-3.9049,-3.8569,-3.7851,-3.769,-3.744,-3.6978,-3.6554,-3.6477,-3.6196,-3.591,-3.6006,-3.6149,-3.5668,-3.5522,-3.5489,-3.5489,-3.5489,-3.5489,-3.5489,-3.5489,-3.5489,-3.5489,-3.5489,-3.5489,-3.5489,-3.5489,-3.5392,-3.5311,-3.5019,-3.4872,-3.4624,-3.4361,-3.3876,-3.3739,-3.3533,-3.2925,-3.2429,-3.2321,-3.1938,-3.1439,-3.0642,-3.0138,-2.991,-2.9845,-2.9603,-2.9352,-2.9515,-2.9779,-2.9691,-2.9415,-4.8324,-4.8324,-4.8324,-4.8324,-4.8324,-4.8324,-4.8324,-4.8324,-4.8324,-4.8324,-4.8324,-4.8324,-4.8324,-4.8324,-4.8324,-4.8324,-4.8324,-4.8324,-4.8324,-4.8324,-4.8324,-4.8324,-4.8324,-4.8324,-4.8324,-4.8229,-4.8075,-4.8015,-4.7614,-4.6955,-4.6216,-4.6039,-4.5732,-4.5459,-4.5152,-4.5115,-4.4862,-4.4262,-4.3091,-4.1585,-4.0502,-4.0113,-4.0113,-4.0113,-4.0113,-4.0113,-4.0113,-4.0113,-4.0113,-4.0113,-4.0113,-4.0113,-4.0113,-4.0113,-4.0113,-4.0113,-4.0113,-4.0113,-4.0113,-4.0113,-4.0113,-4.0113,-4.0113,-4.0045,-4.0003,-3.9782,-3.9463,-3.9172,-3.8695,-3.8246,-3.77,-3.7068,-3.7024,-3.6798,-3.6337,-3.6305,-3.6321,-3.5782,-3.5489,-3.5489,-3.5489,-3.5489,-3.5489,-3.5489,-3.5489,-3.5489,-3.5489,-3.5489,-3.5489,-3.5489,-3.5489,-3.5457,-3.5457,-3.5392,-3.5311,-3.5198,-3.51,-3.4791,-3.4791,-3.4442,-3.3739,-3.3345,-3.329,-3.289,-3.2249,-3.1379,-3.0433,-2.9744,-2.9454,-2.9139,-2.8825,-2.8976,-2.9101,-2.885,-2.8586,-4.855,-4.8439,-4.8345,-4.8324,-4.8324,-4.8324,-4.8324,-4.8324,-4.8324,-4.8324,-4.8324,-4.8324,-4.8324,-4.8324,-4.8324,-4.8324,-4.8324,-4.8324,-4.8324,-4.8324,-4.8324,-4.8324,-4.8324,-4.8324,-4.8324,-4.8324,-4.8248,-4.8229,-4.7977,-4.747,-4.6914,-4.6641,-4.6336,-4.6119,-4.584,-4.5629,-4.5329,-4.4055,-4.2707,-4.1348,-4.0333,-4.0113,-4.0113,-4.0113,-4.0113,-4.0113,-4.0113,-4.0113,-4.0113,-4.0113,-4.0113,-4.0113,-4.0113,-4.0113,-4.0113,-4.0113,-4.0113,-4.0113,-4.0113,-4.0113,-4.0113,-4.0113,-4.0113,-4.0113,-4.0096,-4.0113,-4.007,-3.9901,-3.9558,-3.9166,-3.8728,-3.7787,-3.7758,-3.7483,-3.7025,-3.6844,-3.6631,-3.6243,-3.575,-3.5489,-3.5489,-3.5489,-3.5489,-3.5489,-3.5489,-3.5489,-3.5489,-3.5489,-3.5489,-3.5489,-3.5489,-3.5489,-3.5489,-3.5489,-3.5489,-3.5489,-3.5489,-3.5489,-3.5489,-3.5311,-3.4543,-3.4293,-3.4259,-3.3719,-3.3101,-3.2263,-3.1402,-3.0197,-2.906,-2.8723,-2.8448,-2.8298,-2.8222,-2.8009,-2.7883,-4.9187,-4.883,-4.8458,-4.8325,-4.8324,-4.8324,-4.8324,-4.8324,-4.8324,-4.8324,-4.8324,-4.8324,-4.8324,-4.8324,-4.8324,-4.8324,-4.8324,-4.8324,-4.8324,-4.8324,-4.8324,-4.8324,-4.8324,-4.8324,-4.8324,-4.8324,-4.8324,-4.8324,-4.8287,-4.8113,-4.7677,-4.7363,-4.6959,-4.6548,-4.6259,-4.6057,-4.5141,-4.3815,-4.2363,-4.1274,-4.0492,-4.0229,-4.0154,-4.0146,-4.0121,-4.0113,-4.0113,-4.0113,-4.0113,-4.0113,-4.0113,-4.0113,-4.0113,-4.0113,-4.0113,-4.0113,-4.0113,-4.0113,-4.0113,-4.0113,-4.0113,-4.0113,-4.0113,-4.0113,-4.0113,-4.0113,-4.0113,-4.0113,-3.9859,-3.961,-3.9193,-3.8799,-3.8509,-3.837,-3.7933,-3.7573,-3.7308,-3.6889,-3.6384,-3.575,-3.5572,-3.5718,-3.5619,-3.5651,-3.5489,-3.5489,-3.5489,-3.5489,-3.5489,-3.5489,-3.5489,-3.5489,-3.5489,-3.5489,-3.5489,-3.5489,-3.5489,-3.5489,-3.5489,-3.5489,-3.5279,-3.5166,-3.492,-3.4773,-3.4153,-3.3231,-3.2279,-3.1151,-2.9945,-2.8709,-2.807,-2.7936,-2.7702,-2.7482,-2.7394,-4.9401,-4.9265,-4.911,-4.8763,-4.8324,-4.8324,-4.8324,-4.8324,-4.8324,-4.8324,-4.8306,-4.8324,-4.8324,-4.8324,-4.8324,-4.8324,-4.8324,-4.8324,-4.8324,-4.8324,-4.8324,-4.8324,-4.8324,-4.8324,-4.8324,-4.8324,-4.8324,-4.8324,-4.8324,-4.8324,-4.8229,-4.7858,-4.7503,-4.7345,-4.7038,-4.6072,-4.4917,-4.3962,-4.2766,-4.187,-4.121,-4.075,-4.0601,-4.0601,-4.0179,-4.0121,-4.0113,-4.0113,-4.0113,-4.0113,-4.0113,-4.0113,-4.0113,-4.0113,-4.0113,-4.0113,-4.0113,-4.0113,-4.0113,-4.0113,-4.0113,-4.0113,-4.0113,-4.0113,-4.0113,-4.0113,-4.0113,-4.0113,-4.0113,-3.9833,-3.9756,-3.9236,-3.8924,-3.9086,-3.8897,-3.8402,-3.7991,-3.7571,-3.7189,-3.6615,-3.6306,-3.6244,-3.6023,-3.5797,-3.5651,-3.5489,-3.5489,-3.5489,-3.5489,-3.5489,-3.5489,-3.5489,-3.5489,-3.5489,-3.5489,-3.5489,-3.5489,-3.5489,-3.5489,-3.5489,-3.5489,-3.5457,-3.5279,-3.5279,-3.5017,-3.3944,-3.2945,-3.2052,-3.0778,-2.9164,-2.8148,-2.7593,-2.7322,-2.7164,-2.7116,-4.9787,-4.9692,-4.9673,-4.928,-4.8692,-4.8658,-4.8676,-4.8658,-4.8693,-4.8586,-4.8477,-4.8383,-4.8324,-4.8324,-4.8324,-4.8324,-4.8324,-4.8324,-4.8324,-4.8324,-4.8324,-4.8324,-4.8324,-4.8324,-4.8324,-4.8324,-4.8324,-4.8324,-4.8324,-4.8324,-4.8066,-4.7919,-4.7901,-4.7556,-4.7,-4.5681,-4.4569,-4.3981,-4.3058,-4.243,-4.1682,-4.1402,-4.1178,-4.1105,-4.0672,-4.04,-4.0336,-4.0254,-4.0113,-4.0113,-4.0113,-4.0113,-4.0113,-4.0113,-4.0113,-4.0113,-4.0113,-4.0113,-4.0113,-4.0113,-4.0113,-4.0113,-4.0113,-4.0113,-4.0113,-4.0113,-4.0113,-4.0113,-4.0113,-4.0096,-4.007,-3.9636,-3.9489,-3.9636,-3.9411,-3.8968,-3.8635,-3.8258,-3.7962,-3.7544,-3.7263,-3.695,-3.6692,-3.643,-3.5926,-3.5701,-3.5489,-3.5489,-3.5489,-3.5489,-3.5489,-3.5489,-3.5489,-3.5489,-3.5489,-3.5489,-3.5489,-3.5489,-3.5489,-3.5489,-3.5489,-3.5489,-3.5489,-3.5424,-3.5026,-3.4406,-3.36,-3.269,-3.1126,-2.9384,-2.8649,-2.8087,-2.7854,-2.7753,-2.7275,-5.0421,-5.0111,-5.008,-4.984,-4.9475,-4.946,-4.9416,-4.9326,-4.9311,-4.9142,-4.8779,-4.8495,-4.8324,-4.8324,-4.8324,-4.8324,-4.8324,-4.8324,-4.8324,-4.8324,-4.8324,-4.8324,-4.8324,-4.8324,-4.8214,-4.8268,-4.814,-4.8067,-4.8086,-4.7884,-4.7627,-4.7241,-4.6984,-4.6965,-4.6836,-4.5028,-4.3994,-4.3734,-4.2644,-4.2184,-4.2018,-4.1898,-4.1793,-4.1643,-4.1064,-4.0733,-4.0655,-4.0286,-4.0121,-4.0113,-4.0113,-4.0113,-4.0113,-4.0113,-4.0113,-4.0113,-4.0113,-4.0113,-4.0113,-4.0113,-4.0113,-4.0113,-4.0113,-4.0113,-4.0113,-4.0113,-4.0113,-4.0113,-4.0113,-4.0113,-4.007,-4.0028,-4.0028,-3.9952,-3.9705,-3.9532,-3.9209,-3.9059,-3.8734,-3.8486,-3.8092,-3.7735,-3.7456,-3.71,-3.6415,-3.5975,-3.5604,-3.5489,-3.5522,-3.5489,-3.5489,-3.5489,-3.5489,-3.5489,-3.5489,-3.5489,-3.5489,-3.5489,-3.5489,-3.5489,-3.5489,-3.5489,-3.5489,-3.5489,-3.5215,-3.4728,-3.4109,-3.3362,-3.1652,-3.0078,-2.9449,-2.8931,-2.8652,-2.833,-2.792,-5.0614,-5.0493,-5.0493,-5.0421,-5.0237,-4.97,-4.9504,-4.9445,-4.9234,-4.9027,-4.8829,-4.8477,-4.8324,-4.8324,-4.8288,-4.827,-4.8269,-4.8324,-4.8324,-4.8251,-4.8196,-4.8324,-4.8269,-4.8067,-4.7938,-4.7608,-4.748,-4.7186,-4.6654,-4.6874,-4.6691,-4.6287,-4.5902,-4.5828,-4.5865,-4.5004,-4.4455,-4.4291,-4.3523,-4.294,-4.2884,-4.258,-4.2382,-4.2324,-4.1473,-4.1024,-4.0995,-4.0546,-4.0254,-4.0196,-4.0171,-4.0146,-4.0121,-4.0113,-4.0113,-4.0113,-4.0113,-4.0113,-4.0113,-4.0113,-4.0113,-4.0113,-4.0113,-4.0113,-4.0113,-4.0113,-4.0113,-4.0113,-4.0113,-4.0113,-4.007,-4.007,-4.007,-4.007,-3.9927,-3.9944,-3.9756,-3.974,-3.9584,-3.9385,-3.9049,-3.8374,-3.7978,-3.7819,-3.7249,-3.6707,-3.6368,-3.5782,-3.5636,-3.5554,-3.5489,-3.5489,-3.5489,-3.5489,-3.5489,-3.5489,-3.5489,-3.5489,-3.5489,-3.5489,-3.5489,-3.5489,-3.5489,-3.5489,-3.534,-3.5115,-3.4083,-3.305,-3.2035,-3.0924,-3.0251,-2.9642,-2.9286,-2.9002,-2.8684,-5.0269,-5.0289,-5.0596,-5.0683,-5.0614,-5.0116,-4.9924,-4.984,-4.9504,-4.9307,-4.9249,-4.8915,-4.8658,-4.8476,-4.82,-4.7959,-4.7884,-4.7553,-4.7462,-4.748,-4.7443,-4.7333,-4.737,-4.7498,-4.7058,-4.6764,-4.6636,-4.6397,-4.6085,-4.5938,-4.5773,-4.5388,-4.4727,-4.4672,-4.4709,-4.4434,-4.4178,-4.3995,-4.3503,-4.3374,-4.3303,-4.3142,-4.2976,-4.2733,-4.2185,-4.1578,-4.1397,-4.1053,-4.057,-4.0466,-4.0385,-4.0286,-4.0204,-4.0121,-4.0096,-4.0113,-4.0113,-4.0113,-4.0113,-4.0113,-4.0113,-4.0113,-4.0113,-4.0113,-4.0113,-4.0113,-4.0113,-4.0113,-4.0113,-4.0113,-4.0113,-4.0113,-4.0113,-4.0113,-4.0113,-4.0087,-4.007,-4.0003,-3.9978,-3.9833,-3.9688,-3.9049,-3.8596,-3.8374,-3.8104,-3.7632,-3.7145,-3.6538,-3.5926,-3.5782,-3.5733,-3.5701,-3.5619,-3.5554,-3.5522,-3.5489,-3.5489,-3.5489,-3.5489,-3.5489,-3.5489,-3.5489,-3.5489,-3.5474,-3.5355,-3.4921,-3.3709,-3.2646,-3.1797,-3.1323,-3.1014,-3.045,-2.9919,-2.9659,-2.9442,-4.9356,-4.949,-5.026,-5.0529,-5.0567,-5.0326,-5.0451,-5.0605,-5.0249,-5.0037,-4.9955,-4.941,-4.8921,-4.8574,-4.7963,-4.7519,-4.7203,-4.6542,-4.6341,-4.6213,-4.6451,-4.6268,-4.6195,-4.6177,-4.6122,-4.5975,-4.581,-4.5718,-4.5755,-4.5424,-4.5076,-4.4672,-4.403,-4.3919,-4.3827,-4.3773,-4.3699,-4.3663,-4.3608,-4.3479,-4.3427,-4.3444,-4.3339,-4.3142,-4.2734,-4.2422,-4.2203,-4.1874,-4.1397,-4.1127,-4.0943,-4.0625,-4.0392,-4.0179,-4.0171,-4.0146,-4.0171,-4.0113,-4.0113,-4.0113,-4.0113,-4.0113,-4.0113,-4.0113,-4.0113,-4.0113,-4.0113,-4.0113,-4.0113,-4.0113,-4.0113,-4.0113,-4.0113,-4.0113,-4.0113,-4.0113,-4.0113,-4.007,-4.007,-4.0045,-4.002,-3.9705,-3.9558,-3.9332,-3.8887,-3.8652,-3.8161,-3.7616,-3.698,-3.6305,-3.6212,-3.6116,-3.5973,-3.5668,-3.5651,-3.5701,-3.5489,-3.5489,-3.5489,-3.5489,-3.5489,-3.5522,-3.5489,-3.5459,-3.5385,-3.4771,-3.3649,-3.2632,-3.1676,-3.1365,-3.1278,-3.1175,-3.0644,-3.048,-3.0254,-4.8471,-4.8509,-4.8759,-4.8856,-4.8836,-4.8856,-4.951,-5.0538,-5.0272,-4.9806,-4.9141,-4.8751,-4.8329,-4.7548,-4.7304,-4.7121,-4.6967,-4.6778,-4.6531,-4.6304,-4.6003,-4.6021,-4.5936,-4.5754,-4.5553,-4.5223,-4.4984,-4.48,-4.4323,-4.425,-4.425,-4.379,-4.3644,-4.3497,-4.3479,-4.3479,-4.3479,-4.3479,-4.3479,-4.3479,-4.3479,-4.3479,-4.3479,-4.3339,-4.3032,-4.2808,-4.2617,-4.2223,-4.1771,-4.1599,-4.1534,-4.138,-4.1358,-4.1286,-4.1218,-4.0655,-4.0392,-4.0113,-4.0113,-4.0096,-4.0146,-4.0146,-4.0121,-4.0096,-4.0113,-4.0113,-4.0113,-4.0113,-4.0113,-4.0113,-4.0113,-4.0113,-4.0113,-4.0113,-4.0113,-4.0113,-4.0113,-4.0113,-4.0113,-4.0113,-4.0113,-4.007,-4.0003,-3.9927,-3.9506,-3.9437,-3.9183,-3.8608,-3.7962,-3.7279,-3.6829,-3.6692,-3.6538,-3.6337,-3.607,-3.6038,-3.5718,-3.5489,-3.5701,-3.575,-3.5636,-3.5636,-3.5554,-3.531,-3.4996,-3.4427,-3.3649,-3.2632,-3.1555,-3.1496,-3.1438,-3.1467,-3.1438,-3.1146,-3.0955,-4.7625,-4.7682,-4.799,-4.8096,-4.8096,-4.8096,-4.8759,-4.9538,-4.9424,-4.8947,-4.8542,-4.8307,-4.7802,-4.7282,-4.6941,-4.6636,-4.644,-4.5979,-4.5693,-4.5606,-4.5776,-4.5348,-4.5232,-4.5173,-4.4737,-4.4411,-4.4195,-4.403,-4.3571,-4.3479,-4.3516,-4.357,-4.3479,-4.3479,-4.3479,-4.3479,-4.3479,-4.3479,-4.3479,-4.3479,-4.3479,-4.3479,-4.3479,-4.3427,-4.3087,-4.3032,-4.2976,-4.2523,-4.2404,-4.2203,-4.2162,-4.2,-4.1895,-4.1768,-4.1707,-4.1223,-4.1059,-4.0908,-4.0861,-4.057,-4.0473,-4.0343,-4.0237,-4.0096,-4.0113,-4.0113,-4.0113,-4.0113,-4.0113,-4.0113,-4.0113,-4.0113,-4.0113,-4.0113,-4.0113,-4.0113,-4.0113,-4.0113,-4.0113,-4.0113,-4.0113,-4.0113,-4.0096,-4.0113,-4.007,-3.9876,-3.9756,-3.9489,-3.8816,-3.8064,-3.7602,-3.7383,-3.7235,-3.7086,-3.6814,-3.6646,-3.6538,-3.6477,-3.6677,-3.6631,-3.6164,-3.5894,-3.5926,-3.5235,-3.4427,-3.3933,-3.3499,-3.2437,-3.1496,-3.1496,-3.1496,-3.1496,-3.1496,-3.1409,-3.1307,-4.6797,-4.6855,-4.7596,-4.7778,-4.7894,-4.7798,-4.7836,-4.7894,-4.7875,-4.7942,-4.7943,-4.7971,-4.7651,-4.6961,-4.6492,-4.6119,-4.5859,-4.5431,-4.5192,-4.4707,-4.4977,-4.4795,-4.4487,-4.4102,-4.4312,-4.3876,-4.3618,-4.3763,-4.3569,-4.3479,-4.3479,-4.3479,-4.3479,-4.3479,-4.3479,-4.3479,-4.3479,-4.3479,-4.3479,-4.3479,-4.3479,-4.3479,-4.3479,-4.3479,-4.3444,-4.3444,-4.3444,-4.3356,-4.3268,-4.2939,-4.2693,-4.2482,-4.2284,-4.1979,-4.1916,-4.181,-4.166,-4.1552,-4.142,-4.1196,-4.1018,-4.0803,-4.0546,-4.0514,-4.0563,-4.0204,-4.0121,-4.0096,-4.0113,-4.0113,-4.0113,-4.0113,-4.0113,-4.0113,-4.0113,-4.0113,-4.0113,-4.0113,-4.0113,-4.0113,-4.0113,-4.0113,-4.0113,-4.0113,-4.0113,-4.0087,-4.0045,-3.9952,-3.961,-3.8832,-3.853,-3.8177,-3.8007,-3.7876,-3.7732,-3.7587,-3.7573,-3.7618,-3.7632,-3.7368,-3.686,-3.6554,-3.6306,-3.5536,-3.4694,-3.3935,-3.329,-3.2258,-3.157,-3.1496,-3.1496,-3.1496,-3.1496,-3.1496,-3.1496,-4.5902,-4.5913,-4.6114,-4.621,-4.6201,-4.621,-4.622,-4.621,-4.621,-4.6605,-4.7105,-4.7115,-4.6799,-4.6187,-4.5985,-4.5744,-4.5571,-4.5373,-4.521,-4.5063,-4.4977,-4.48,-4.4514,-4.4428,-4.4364,-4.4266,-4.4061,-4.3724,-4.358,-4.3531,-4.3479,-4.3479,-4.3479,-4.3479,-4.3479,-4.3479,-4.3479,-4.3479,-4.3479,-4.3479,-4.3479,-4.3479,-4.3479,-4.3479,-4.3479,-4.3479,-4.3479,-4.3462,-4.3427,-4.3322,-4.3303,-4.3214,-4.3105,-4.2694,-4.2519,-4.242,-4.2142,-4.2021,-4.1916,-4.1771,-4.1621,-4.1556,-4.142,-4.142,-4.1168,-4.0514,-4.0146,-4.0146,-4.0113,-4.0113,-4.0113,-4.0113,-4.0113,-4.0113,-4.0113,-4.0113,-4.0113,-4.0113,-4.0113,-4.0113,-4.0113,-4.0113,-4.0113,-4.0113,-4.0113,-4.0113,-4.0113,-4.0045,-4.0045,-3.9601,-3.9506,-3.9199,-3.8816,-3.8663,-3.8553,-3.8458,-3.8402,-3.8206,-3.8092,-3.7819,-3.7544,-3.71,-3.6676,-3.5907,-3.5125,-3.4227,-3.3261,-3.2258,-3.172,-3.157,-3.1496,-3.1496,-3.1496,-3.1496,-3.1496,-4.5594,-4.5594,-4.5594,-4.5594,-4.5594,-4.5594,-4.5594,-4.5594,-4.5594,-4.5855,-4.6278,-4.6297,-4.6047,-4.5614,-4.5594,-4.5594,-4.5594,-4.5586,-4.5476,-4.5352,-4.5253,-4.5096,-4.4943,-4.4825,-4.4657,-4.4553,-4.419,-4.3881,-4.3744,-4.3548,-4.3479,-4.3513,-4.3513,-4.3513,-4.3496,-4.3496,-4.3479,-4.3479,-4.3479,-4.3479,-4.3479,-4.3479,-4.3479,-4.3479,-4.3479,-4.3479,-4.3479,-4.3479,-4.3479,-4.3479,-4.3462,-4.3462,-4.3356,-4.3196,-4.3087,-4.2995,-4.2791,-4.2544,-4.2465,-4.2327,-4.2206,-4.2165,-4.1856,-4.1707,-4.166,-4.1059,-4.0774,-4.072,-4.0196,-4.0121,-4.0113,-4.0113,-4.0113,-4.0113,-4.0113,-4.0113,-4.0113,-4.0113,-4.0113,-4.0113,-4.0113,-4.0113,-4.0113,-4.0113,-4.0113,-4.0113,-4.0113,-4.0113,-4.0113,-4.0113,-4.0113,-4.002,-3.9516,-3.942,-3.9411,-3.9279,-3.9172,-3.8914,-3.8652,-3.8569,-3.8386,-3.7645,-3.699,-3.6363,-3.5491,-3.4288,-3.3321,-3.236,-3.175,-3.1525,-3.1496,-3.1496,-3.1496,-3.1496,-3.1496,-4.5594,-4.5594,-4.5594,-4.5594,-4.5594,-4.5594,-4.5594,-4.5594,-4.5594,-4.5594,-4.5671,-4.5671,-4.5594,-4.5594,-4.5594,-4.5594,-4.5594,-4.5594,-4.5577,-4.5568,-4.5549,-4.5371,-4.5243,-4.5159,-4.4966,-4.4732,-4.4428,-4.4233,-4.4091,-4.3896,-4.3775,-4.3646,-4.358,-4.3582,-4.3565,-4.3496,-4.3479,-4.3479,-4.3479,-4.3479,-4.3479,-4.3479,-4.3479,-4.3479,-4.3479,-4.3479,-4.3479,-4.3479,-4.3479,-4.3479,-4.3479,-4.3479,-4.3479,-4.341,-4.3427,-4.3339,-4.3303,-4.3249,-4.3249,-4.2958,-4.2865,-4.2675,-4.2206,-4.2024,-4.2024,-4.1814,-4.1556,-4.1218,-4.0713,-4.041,-4.0385,-4.036,-4.036,-4.0311,-4.0311,-4.0196,-4.0171,-4.0146,-4.0146,-4.0146,-4.0121,-4.0121,-4.0113,-4.0113,-4.0113,-4.0113,-4.0113,-4.0113,-4.0113,-4.0113,-4.0113,-4.0113,-3.9901,-3.9901,-4.0003,-3.9876,-3.9627,-3.9653,-3.9428,-3.9385,-3.9183,-3.8425,-3.771,-3.7056,-3.6091,-3.4675,-3.3514,-3.2539,-3.2031,-3.1582,-3.1496,-3.1496,-3.1496,-3.1496,-3.1496,-4.5594,-4.5594,-4.5594,-4.5594,-4.5594,-4.5594,-4.5594,-4.5594,-4.5594,-4.5594,-4.5594,-4.5594,-4.5594,-4.5594,-4.5594,-4.5594,-4.5594,-4.5594,-4.5594,-4.5594,-4.5594,-4.5531,-4.5495,-4.54,-4.5263,-4.5044,-4.483,-4.4732,-4.4482,-4.4378,-4.4364,-4.4308,-4.3989,-4.3912,-4.3884,-4.3775,-4.3614,-4.3629,-4.3614,-4.3614,-4.3548,-4.3531,-4.3496,-4.3479,-4.3479,-4.3479,-4.3479,-4.3479,-4.3479,-4.3479,-4.3479,-4.3479,-4.3479,-4.3479,-4.3479,-4.3479,-4.3479,-4.3479,-4.3392,-4.3303,-4.3196,-4.3214,-4.2903,-4.2959,-4.2847,-4.2637,-4.2404,-4.2284,-4.1828,-4.1464,-4.1375,-4.1308,-4.1286,-4.115,-4.1082,-4.0648,-4.0392,-4.0336,-4.0286,-4.0254,-4.0204,-4.0171,-4.0113,-4.0113,-4.0113,-4.0113,-4.0113,-4.0113,-4.0113,-4.0113,-4.0113,-4.0113,-4.0113,-4.0113,-4.007,-4.007,-3.9927,-4.0045,-4.007,-3.985,-3.9558,-3.9166,-3.8493,-3.7838,-3.6447,-3.4929,-3.3831,-3.3093,-3.2202,-3.1768,-3.1582,-3.1496,-3.1496,-3.1496,-3.1496]},{"header":{"parameterUnit":"m.s-1","parameterCategory":1,"la1":31.0,"la2":29.5877,"lo1":-88.7671,"lo2":-86.6584,"dy":0.0162,"dx":0.0185,"nx":115,"ny":88,"refTime":"2023-09-03T18:00:00:Z","depth":0,"parameterNumber":3,"parameterNumberName":"V-component_of_WINDS"},"data":[0.0,0.0,0.0,0.0,0.0,0.0,0.0,0.0,0.0,0.0,0.0,0.0,0.0,0.0,0.0,0.0,0.0,0.0,0.0,0.0,0.0,0.0,0.0,0.0,0.0,0.0,0.0,0.0,0.0,0.0,0.0,0.0,0.0,0.0,0.0,0.0,0.0,0.0,0.0,0.0,0.0,0.0,0.0,0.0,0.0,0.0,0.0,0.0,0.0,0.0,0.0,0.0,0.0,0.0,0.0,0.0,0.0,0.0,0.0,0.0,0.0,0.0,0.0,0.0,0.0,0.0,0.0,0.0,0.0,0.0,0.0,0.0,0.0,0.0,0.0,0.0,0.0,0.0,0.0,0.0,0.0,0.0,0.0,0.0,0.0,0.0,0.0,0.0,0.0,0.0,0.0,0.0,0.0,0.0,0.0,0.0,0.0,0.0,0.0,0.0,0.0,0.0,0.0,0.0,0.0,0.0,0.0,0.0,0.0,0.0,0.0,0.0,0.0,0.0,0.0,0.0,0.0,0.0,0.0,0.0,0.0,0.0,0.0,0.0,0.0,0.0,0.0,0.0,0.0,0.0,0.0,0.0,0.0,0.0,0.0,0.0,0.0,0.0,0.0,0.0,0.0,0.0,0.0,0.0,0.0,0.0,0.0,0.0,0.0,0.0,0.0,0.0,0.0,0.0,0.0,0.0,0.0,0.0,0.0,0.0,0.0,0.0,0.0,0.0,0.0,0.0,0.0,0.0,0.0,0.0,0.0,0.0,0.0,0.0,0.0,0.0,0.0,0.0,0.0,0.0,0.0,0.0,0.0,0.0,0.0,0.0,0.0,0.0,0.0,0.0,0.0,0.0,0.0,0.0,0.0,0.0,0.0,0.0,0.0,0.0,0.0,0.0,0.0,0.0,0.0,0.0,0.0,0.0,0.0,0.0,0.0,0.0,0.0,0.0,0.0,0.0,0.0,0.0,0.0,0.0,0.0,0.0,0.0,0.0,0.0,0.0,0.0,0.0,0.0,0.0,0.0,0.0,0.0,0.0,0.0,0.0,0.0,0.0,0.0,0.0,0.0,0.0,0.0,0.0,0.0,0.0,0.0,0.0,0.0,0.0,0.0,0.0,0.0,0.0,0.0,0.0,0.0,0.0,0.0,0.0,0.0,0.0,0.0,0.0,0.0,0.0,0.0,0.0,0.0,0.0,0.0,0.0,0.0,0.0,0.0,0.0,0.0,0.0,0.0,0.0,0.0,0.0,0.0,0.0,0.0,0.0,0.0,0.0,0.0,0.0,0.0,0.0,0.0,0.0,0.0,0.0,0.0,0.0,0.0,0.0,0.0,0.0,0.0,0.0,0.0,0.0,0.0,0.0,0.0,0.0,0.0,0.0,0.0,0.0,0.0,0.0,0.0,0.0,0.0,0.0,0.0,0.0,0.0,0.0,0.0,0.0,0.0,0.0,0.0,0.0,0.0,0.0,0.0,0.0,0.0,0.0,0.0,0.0,0.0,0.0,0.0,0.0,0.0,0.0,0.0,0.0,0.0,0.0,0.0,0.0,0.0,0.0,0.0,0.0,0.0,0.0,0.0,0.0,0.0,0.0,0.0,0.0,0.0,0.0,0.0,0.0,0.0,0.0,0.0,0.0,0.0,0.0,0.0,0.0,0.0,0.0,0.0,0.0,0.0,0.0,0.0,0.0,0.0,0.0,0.0,0.0,0.0,0.0,0.0,0.0,0.0,0.0,0.0,0.0,0.0,0.0,0.0,0.0,0.0,0.0,0.0,0.0,0.0,0.0,0.0,0.0,0.0,0.0,0.0,0.0,0.0,0.0,0.0,0.0,0.0,0.0,0.0,0.0,0.0,0.0,0.0,0.0,0.0,0.0,0.0,0.0,0.0,0.0,0.0,0.0,0.0,0.0,0.0,0.0,0.0,0.0,0.0,0.0,0.0,0.0,0.0,0.0,0.0,0.0,0.0,0.0,0.0,0.0,0.0,0.0,0.0,0.0,0.0,0.0,0.0,0.0,0.0,0.0,0.0,0.0,0.0,0.0,0.0,0.0,0.0,0.0,0.0,0.0,0.0,0.0,0.0,0.0,0.0,0.0,0.0,0.0,0.0,0.0,0.0,0.0,0.0,0.0,0.0,0.0,0.0,0.0,0.0,0.0,0.0,0.0,0.0,0.0,0.0,0.0,0.0,0.0,0.0,0.0,0.0,0.0,0.0,0.0,0.0,0.0,0.0,0.0,0.0,0.0,0.0,0.0,0.0,0.0,0.0,0.0,0.0,0.0,0.0,0.0,0.0,0.0,0.0,0.0,0.0,0.0,0.0,0.0,0.0,0.0,0.0,0.0,0.0,0.0,0.0,0.0,0.0,0.0,0.0,0.0,0.0,0.0,0.0,0.0,0.0,0.0,0.0,0.0,0.0,0.0,0.0,0.0,0.0,0.0,0.0,0.0,0.0,0.0,0.0,0.0,0.0,0.0,0.0,0.0,0.0,0.0,0.0,0.0,0.0,0.0,0.0,0.0,0.0,0.0,0.0,0.0,0.0,0.0,0.0,0.0,0.0,0.0,0.0,0.0,0.0,0.0,0.0,0.0,0.0,0.0,0.0,0.0,0.0,0.0,0.0,0.0,0.0,0.0,0.0,0.0,0.0,0.0,0.0,0.0,0.0,0.0,0.0,0.0,0.0,0.0,0.0,0.0,0.0,0.0,0.0,0.0,0.0,0.0,0.0,0.0,0.0,0.0,0.0,0.0,0.0,0.0,0.0,0.0,0.0,0.0,0.0,0.0,0.0,0.0,0.0,0.0,0.0,0.0,0.0,0.0,0.0,0.0,0.0,0.0,0.0,0.0,0.0,0.0,0.0,0.0,0.0,0.0,0.0,0.0,0.0,0.0,0.0,0.0,0.0,0.0,0.0,0.0,0.0,0.0,0.0,0.0,0.0,0.0,0.0,0.0,0.0,0.0,0.0,0.0,0.0,0.0,0.0,0.0,0.0,0.0,0.0,0.0,0.0,0.0,0.0,0.0,0.0,0.0,0.0,0.0,0.0,0.0,0.0,0.0,0.0,0.0,0.0,0.0,0.0,0.0,0.0,0.0,0.0,0.0,0.0,0.0,0.0,0.0,0.0,0.0,0.0,0.0,0.0,0.0,0.0,0.0,0.0,0.0,0.0,0.0,0.0,0.0,0.0,0.0,0.0,0.0,0.0,0.0,0.0,0.0,0.0,0.0,0.0,0.0,0.0,0.0,0.0,0.0,0.0,0.0,0.0,0.0,0.0,0.0,0.0,0.0,0.0,0.0,0.0,0.0,0.0,0.0,0.0,0.0,0.0,0.0,0.0,0.0,0.0,0.0,0.0,0.0,0.0,0.0,0.0,0.0,0.0,0.0,0.0,0.0,0.0,0.0,0.0,0.0,0.0,0.0,0.0,0.0,0.0,0.0,0.0,0.0,0.0,0.0,0.0,0.0,0.0,0.0,0.0,0.0,0.0,0.0,0.0,0.0,0.0,0.0,0.0,0.0,0.0,0.0,0.0,0.0,0.0,0.0,0.0,0.0,0.0,0.0,0.0,0.0,0.0,0.0,0.0,0.0,0.0,0.0,0.0,0.0,0.0,0.0,0.0,0.0,0.0,0.0,0.0,0.0,0.0,0.0,0.0,0.0,0.0,0.0,0.0,0.0,0.0,0.0,0.0,0.0,0.0,0.0,0.0,0.0,0.0,0.0,0.0,0.0,0.0,0.0,0.0,0.0,0.0,0.0,0.0,0.0,0.0,0.0,0.0,0.0,0.0,0.0,0.0,0.0,0.0,0.0,0.0,0.0,0.0,0.0,0.0,0.0,0.0,0.0,0.0,0.0,0.0,0.0,0.0,0.0,0.0,0.0,0.0,0.0,0.0,0.0,0.0,0.0,0.0,0.0,0.0,0.0,0.0,0.0,0.0,0.0,0.0,0.0,0.0,0.0,0.0,0.0,0.0,0.0,0.0,0.0,0.0,0.0,0.0,0.0,0.0,0.0,0.0,0.0,0.0,0.0,0.0,0.0,0.0,0.0,0.0,0.0,0.0,0.0,0.0,0.0,0.0,0.0,0.0,0.0,0.0,0.0,0.0,0.0,0.0,0.0,0.0,0.0,0.0,0.0,0.0,0.0,0.0,0.0,0.0,0.0,0.0,0.0,0.0,0.0,0.0,0.0,0.0,0.0,0.0,0.0,0.0,0.0,0.0,0.0,0.0,0.0,0.0,0.0,0.0,0.0,0.0,0.0,0.0,0.0,-1.9723,0.0,0.0,0.0,0.0,0.0,0.0,0.0,0.0,0.0,0.0,0.0,0.0,0.0,0.0,0.0,0.0,0.0,0.0,0.0,0.0,0.0,0.0,0.0,0.0,0.0,0.0,0.0,0.0,0.0,0.0,0.0,0.0,0.0,0.0,0.0,0.0,0.0,0.0,0.0,0.0,0.0,0.0,0.0,0.0,0.0,0.0,0.0,0.0,0.0,0.0,0.0,0.0,0.0,0.0,0.0,0.0,0.0,0.0,0.0,0.0,0.0,0.0,0.0,0.0,0.0,0.0,0.0,0.0,0.0,0.0,0.0,0.0,0.0,0.0,0.0,0.0,0.0,0.0,0.0,0.0,0.0,0.0,0.0,0.0,0.0,0.0,0.0,0.0,0.0,0.0,0.0,0.0,0.0,0.0,0.0,0.0,0.0,0.0,0.0,0.0,0.0,0.0,0.0,0.0,0.0,0.0,0.0,0.0,0.0,0.0,-1.9723,-1.9723,-1.9723,-1.9723,-1.9723,0.0,0.0,0.0,0.0,0.0,0.0,0.0,0.0,0.0,0.0,0.0,0.0,0.0,0.0,0.0,0.0,0.0,0.0,0.0,0.0,0.0,0.0,0.0,0.0,0.0,0.0,0.0,0.0,0.0,0.0,0.0,0.0,0.0,0.0,0.0,0.0,0.0,0.0,0.0,0.0,0.0,0.0,0.0,0.0,0.0,0.0,0.0,0.0,0.0,0.0,0.0,0.0,0.0,0.0,0.0,0.0,0.0,0.0,0.0,0.0,0.0,0.0,0.0,0.0,0.0,0.0,0.0,0.0,0.0,0.0,0.0,0.0,0.0,0.0,0.0,0.0,0.0,0.0,0.0,0.0,0.0,0.0,0.0,0.0,0.0,0.0,0.0,0.0,0.0,0.0,0.0,0.0,0.0,0.0,0.0,0.0,0.0,0.0,0.0,0.0,0.0,0.0,0.0,0.0,0.0,0.0,0.0,0.0,0.0,0.0,0.0,0.0,-1.9723,-1.9723,-1.9723,0.0,0.0,0.0,0.0,0.0,0.0,0.0,0.0,0.0,0.0,0.0,0.0,0.0,0.0,0.0,0.0,0.0,0.0,0.0,0.0,0.0,0.0,0.0,0.0,0.0,0.0,0.0,0.0,0.0,0.0,0.0,0.0,0.0,0.0,0.0,0.0,0.0,0.0,0.0,0.0,0.0,0.0,0.0,0.0,0.0,0.0,0.0,0.0,0.0,0.0,0.0,0.0,0.0,0.0,0.0,0.0,0.0,0.0,0.0,0.0,0.0,0.0,0.0,0.0,0.0,0.0,0.0,0.0,0.0,0.0,0.0,0.0,0.0,0.0,0.0,0.0,0.0,0.0,0.0,0.0,0.0,0.0,0.0,0.0,0.0,0.0,0.0,0.0,0.0,0.0,0.0,0.0,0.0,0.0,0.0,0.0,0.0,0.0,0.0,0.0,0.0,0.0,0.0,0.0,0.0,0.0,0.0,0.0,0.0,0.0,-1.9723,-1.9723,-1.9723,0.0,-1.9723,0.0,0.0,0.0,0.0,0.0,0.0,0.0,0.0,0.0,0.0,0.0,0.0,0.0,0.0,0.0,0.0,0.0,0.0,0.0,0.0,0.0,0.0,0.0,0.0,0.0,0.0,0.0,0.0,0.0,0.0,0.0,0.0,0.0,0.0,0.0,0.0,0.0,0.0,0.0,0.0,0.0,0.0,0.0,0.0,0.0,0.0,0.0,0.0,0.0,0.0,0.0,0.0,0.0,0.0,0.0,0.0,0.0,0.0,0.0,0.0,0.0,0.0,0.0,0.0,0.0,0.0,0.0,0.0,0.0,0.0,0.0,0.0,0.0,0.0,0.0,0.0,0.0,0.0,0.0,0.0,0.0,0.0,0.0,0.0,0.0,0.0,0.0,0.0,0.0,0.0,0.0,0.0,0.0,0.0,0.0,0.0,0.0,0.0,0.0,0.0,0.0,0.0,0.0,0.0,0.0,0.0,0.0,0.0,0.0,0.0,-2.0872,-2.0906,-2.0498,-2.0112,0.0,0.0,0.0,0.0,0.0,0.0,0.0,0.0,0.0,0.0,0.0,0.0,0.0,0.0,0.0,0.0,0.0,0.0,0.0,0.0,0.0,0.0,0.0,0.0,0.0,0.0,0.0,0.0,0.0,0.0,0.0,0.0,0.0,0.0,0.0,0.0,0.0,0.0,0.0,0.0,0.0,0.0,0.0,0.0,0.0,0.0,0.0,0.0,0.0,0.0,0.0,0.0,0.0,0.0,0.0,0.0,0.0,0.0,0.0,0.0,0.0,0.0,0.0,0.0,0.0,0.0,0.0,0.0,0.0,0.0,0.0,0.0,0.0,0.0,0.0,0.0,0.0,0.0,0.0,0.0,0.0,0.0,0.0,0.0,0.0,0.0,0.0,0.0,0.0,0.0,0.0,0.0,0.0,0.0,0.0,0.0,0.0,0.0,0.0,0.0,0.0,0.0,0.0,0.0,0.0,0.0,0.0,0.0,0.0,0.0,-2.1695,-2.1695,-2.168,-2.1246,-2.0752,-2.0277,0.0,0.0,0.0,0.0,0.0,0.0,0.0,0.0,0.0,0.0,0.0,0.0,0.0,0.0,0.0,0.0,0.0,0.0,0.0,0.0,0.0,0.0,0.0,0.0,0.0,0.0,0.0,0.0,0.0,0.0,0.0,0.0,0.0,0.0,0.0,0.0,0.0,0.0,0.0,0.0,0.0,0.0,0.0,0.0,0.0,0.0,0.0,0.0,0.0,0.0,0.0,0.0,0.0,0.0,0.0,0.0,0.0,0.0,0.0,0.0,0.0,0.0,0.0,0.0,0.0,0.0,0.0,0.0,0.0,0.0,0.0,0.0,0.0,0.0,0.0,0.0,0.0,0.0,0.0,0.0,0.0,0.0,0.0,0.0,0.0,0.0,0.0,0.0,0.0,0.0,0.0,0.0,0.0,0.0,0.0,0.0,0.0,0.0,0.0,0.0,0.0,0.0,0.0,0.0,0.0,0.0,0.0,0.0,-2.1724,-2.1724,-2.171,-2.171,-2.1684,-2.1635,0.0,0.0,0.0,0.0,0.0,0.0,0.0,0.0,0.0,0.0,0.0,0.0,0.0,0.0,0.0,0.0,0.0,0.0,0.0,0.0,0.0,0.0,0.0,0.0,0.0,0.0,0.0,0.0,0.0,0.0,0.0,0.0,0.0,0.0,0.0,0.0,0.0,0.0,0.0,0.0,0.0,0.0,0.0,0.0,0.0,0.0,0.0,0.0,0.0,0.0,0.0,0.0,0.0,0.0,0.0,0.0,0.0,0.0,0.0,0.0,0.0,0.0,0.0,0.0,0.0,0.0,0.0,0.0,0.0,0.0,0.0,0.0,0.0,0.0,0.0,0.0,0.0,0.0,0.0,0.0,0.0,0.0,0.0,0.0,0.0,0.0,0.0,0.0,0.0,0.0,0.0,0.0,0.0,0.0,0.0,0.0,0.0,0.0,0.0,0.0,0.0,0.0,0.0,0.0,0.0,0.0,0.0,0.0,0.0,-2.2921,-2.2906,-2.2727,-2.2373,-2.2343,-2.2149,0.0,0.0,0.0,0.0,0.0,0.0,0.0,0.0,0.0,0.0,0.0,0.0,0.0,0.0,0.0,0.0,0.0,0.0,0.0,0.0,0.0,0.0,0.0,0.0,0.0,0.0,0.0,0.0,0.0,0.0,0.0,0.0,0.0,0.0,0.0,0.0,0.0,0.0,0.0,0.0,0.0,0.0,0.0,0.0,0.0,0.0,0.0,0.0,0.0,0.0,0.0,0.0,0.0,0.0,0.0,0.0,0.0,0.0,0.0,0.0,0.0,0.0,0.0,0.0,0.0,0.0,0.0,0.0,0.0,0.0,0.0,0.0,0.0,0.0,0.0,0.0,0.0,0.0,0.0,0.0,0.0,0.0,0.0,0.0,0.0,0.0,0.0,0.0,0.0,0.0,0.0,0.0,0.0,0.0,0.0,0.0,0.0,0.0,0.0,0.0,0.0,0.0,0.0,0.0,0.0,0.0,0.0,0.0,0.0,-2.3595,0.0,-2.34,-2.3017,-2.3002,-2.2793,0.0,0.0,0.0,0.0,0.0,0.0,0.0,0.0,0.0,0.0,0.0,0.0,0.0,0.0,0.0,0.0,0.0,0.0,0.0,0.0,0.0,0.0,0.0,0.0,0.0,0.0,0.0,0.0,0.0,0.0,0.0,0.0,0.0,0.0,0.0,0.0,0.0,0.0,0.0,0.0,0.0,0.0,0.0,0.0,0.0,0.0,0.0,0.0,0.0,0.0,0.0,0.0,0.0,0.0,0.0,0.0,0.0,0.0,0.0,0.0,0.0,0.0,0.0,0.0,0.0,0.0,0.0,0.0,0.0,0.0,0.0,0.0,0.0,0.0,0.0,0.0,0.0,0.0,0.0,0.0,0.0,0.0,0.0,0.0,0.0,0.0,0.0,0.0,0.0,0.0,0.0,0.0,0.0,0.0,0.0,0.0,0.0,0.0,0.0,0.0,0.0,0.0,0.0,0.0,0.0,0.0,0.0,0.0,-2.3595,-2.3595,-2.3595,-2.358,-2.3595,-2.3565,-2.358,0.0,0.0,0.0,0.0,0.0,0.0,0.0,0.0,0.0,0.0,0.0,0.0,0.0,0.0,0.0,0.0,0.0,0.0,0.0,0.0,0.0,0.0,0.0,0.0,0.0,0.0,0.0,0.0,0.0,0.0,0.0,0.0,0.0,0.0,0.0,0.0,0.0,0.0,0.0,0.0,0.0,0.0,0.0,0.0,0.0,0.0,0.0,0.0,0.0,0.0,0.0,0.0,0.0,0.0,0.0,0.0,0.0,0.0,0.0,0.0,0.0,0.0,0.0,0.0,0.0,0.0,0.0,0.0,0.0,0.0,0.0,0.0,0.0,0.0,0.0,0.0,0.0,0.0,0.0,0.0,0.0,0.0,0.0,0.0,0.0,0.0,0.0,0.0,0.0,0.0,0.0,0.0,0.0,0.0,0.0,0.0,0.0,0.0,0.0,0.0,0.0,0.0,0.0,0.0,0.0,0.0,0.0,0.0,0.0,-2.3595,-2.3595,-2.3595,-2.3595,-2.3595,-2.3595,0.0,0.0,0.0,0.0,0.0,0.0,0.0,0.0,0.0,0.0,0.0,0.0,0.0,0.0,0.0,0.0,0.0,0.0,0.0,0.0,0.0,0.0,0.0,0.0,0.0,0.0,0.0,0.0,0.0,0.0,0.0,0.0,0.0,0.0,0.0,0.0,0.0,0.0,0.0,0.0,0.0,0.0,0.0,0.0,0.0,0.0,0.0,0.0,0.0,0.0,0.0,0.0,0.0,0.0,0.0,0.0,0.0,0.0,0.0,0.0,0.0,0.0,0.0,0.0,0.0,0.0,0.0,0.0,0.0,0.0,0.0,0.0,0.0,0.0,0.0,0.0,0.0,0.0,0.0,0.0,0.0,0.0,0.0,0.0,0.0,0.0,0.0,0.0,0.0,0.0,0.0,0.0,0.0,0.0,0.0,0.0,0.0,0.0,0.0,0.0,0.0,0.0,0.0,0.0,0.0,0.0,0.0,0.0,0.0,-2.3595,-2.3595,-2.3595,-2.3595,-2.3595,-2.3595,-2.3595,0.0,0.0,0.0,0.0,0.0,0.0,0.0,0.0,0.0,0.0,0.0,0.0,0.0,0.0,0.0,0.0,0.0,0.0,0.0,0.0,0.0,0.0,0.0,0.0,0.0,0.0,0.0,0.0,0.0,0.0,0.0,0.0,0.0,0.0,0.0,0.0,0.0,0.0,0.0,0.0,0.0,0.0,0.0,0.0,0.0,0.0,0.0,0.0,0.0,0.0,0.0,0.0,0.0,0.0,0.0,0.0,0.0,0.0,0.0,0.0,0.0,0.0,0.0,0.0,0.0,0.0,0.0,0.0,0.0,0.0,0.0,0.0,0.0,0.0,0.0,0.0,0.0,0.0,0.0,0.0,0.0,0.0,0.0,0.0,0.0,0.0,0.0,0.0,0.0,0.0,0.0,0.0,0.0,0.0,0.0,0.0,0.0,0.0,0.0,0.0,0.0,0.0,0.0,0.0,0.0,0.0,0.0,0.0,-2.3595,-2.3595,-2.3595,-2.3595,-2.3595,-2.3595,0.0,0.0,0.0,0.0,0.0,0.0,0.0,0.0,0.0,0.0,0.0,0.0,0.0,0.0,0.0,0.0,0.0,0.0,0.0,0.0,0.0,0.0,0.0,0.0,0.0,0.0,0.0,0.0,0.0,0.0,0.0,0.0,0.0,0.0,0.0,0.0,0.0,0.0,0.0,0.0,0.0,0.0,0.0,0.0,0.0,0.0,0.0,0.0,0.0,0.0,0.0,0.0,0.0,0.0,0.0,0.0,0.0,0.0,0.0,0.0,0.0,0.0,0.0,0.0,0.0,0.0,0.0,0.0,0.0,0.0,0.0,0.0,0.0,0.0,0.0,0.0,0.0,0.0,0.0,0.0,0.0,0.0,0.0,0.0,0.0,0.0,0.0,0.0,0.0,0.0,0.0,0.0,0.0,0.0,0.0,0.0,0.0,0.0,0.0,0.0,0.0,0.0,0.0,0.0,0.0,0.0,0.0,0.0,0.0,-2.3595,-2.3595,-2.3595,-2.3595,-2.3595,-2.3595,0.0,0.0,0.0,0.0,0.0,0.0,0.0,0.0,0.0,0.0,0.0,0.0,0.0,0.0,0.0,0.0,0.0,0.0,0.0,0.0,0.0,0.0,0.0,0.0,0.0,0.0,0.0,0.0,0.0,0.0,0.0,0.0,0.0,0.0,0.0,0.0,0.0,0.0,0.0,0.0,0.0,0.0,0.0,0.0,0.0,0.0,0.0,0.0,0.0,0.0,0.0,0.0,0.0,0.0,0.0,0.0,0.0,0.0,0.0,0.0,0.0,0.0,0.0,0.0,0.0,0.0,0.0,0.0,0.0,0.0,0.0,0.0,0.0,0.0,0.0,0.0,0.0,0.0,0.0,0.0,0.0,0.0,0.0,0.0,0.0,0.0,0.0,0.0,0.0,0.0,0.0,0.0,0.0,0.0,0.0,0.0,0.0,0.0,0.0,0.0,0.0,0.0,0.0,0.0,0.0,0.0,0.0,0.0,-2.3486,-2.3231,-2.3465,-2.3595,-2.3595,-2.3595,-2.3595,0.0,0.0,0.0,0.0,0.0,0.0,0.0,0.0,0.0,0.0,0.0,0.0,0.0,0.0,0.0,0.0,0.0,0.0,0.0,0.0,0.0,0.0,0.0,0.0,0.0,0.0,0.0,0.0,0.0,0.0,0.0,0.0,0.0,0.0,0.0,0.0,0.0,0.0,0.0,0.0,0.0,0.0,0.0,0.0,0.0,0.0,0.0,0.0,0.0,0.0,0.0,0.0,0.0,0.0,0.0,0.0,0.0,0.0,0.0,0.0,0.0,0.0,0.0,0.0,0.0,0.0,0.0,0.0,0.0,0.0,0.0,0.0,0.0,0.0,0.0,0.0,0.0,0.0,0.0,0.0,0.0,0.0,0.0,0.0,0.0,0.0,0.0,0.0,0.0,0.0,0.0,0.0,0.0,0.0,0.0,0.0,0.0,0.0,0.0,0.0,0.0,0.0,0.0,0.0,0.0,0.0,0.0,0.0,-2.3253,-2.2807,-2.3334,-2.3573,-2.3508,-2.3508,-2.3551,0.0,0.0,0.0,0.0,0.0,0.0,0.0,0.0,0.0,0.0,0.0,0.0,0.0,0.0,0.0,0.0,0.0,0.0,0.0,0.0,0.0,0.0,0.0,0.0,0.0,0.0,0.0,0.0,0.0,0.0,0.0,0.0,0.0,0.0,0.0,0.0,0.0,0.0,0.0,0.0,0.0,0.0,0.0,0.0,0.0,0.0,0.0,0.0,0.0,0.0,0.0,0.0,0.0,0.0,0.0,0.0,0.0,0.0,0.0,0.0,0.0,0.0,0.0,0.0,0.0,0.0,0.0,0.0,0.0,0.0,0.0,0.0,0.0,0.0,0.0,0.0,0.0,0.0,0.0,0.0,0.0,0.0,0.0,0.0,0.0,0.0,0.0,0.0,0.0,0.0,0.0,0.0,0.0,0.0,0.0,0.0,0.0,0.0,0.0,0.0,0.0,0.0,0.0,0.0,0.0,0.0,0.0,0.0,-2.3054,-2.3399,-2.353,-2.3377,-2.2912,-2.2875,-2.312,0.0,0.0,0.0,0.0,0.0,0.0,0.0,0.0,0.0,0.0,0.0,0.0,0.0,0.0,0.0,0.0,0.0,0.0,0.0,0.0,0.0,0.0,0.0,0.0,0.0,0.0,0.0,0.0,0.0,0.0,0.0,0.0,0.0,0.0,0.0,0.0,0.0,0.0,0.0,0.0,0.0,0.0,0.0,0.0,0.0,0.0,0.0,0.0,-2.8368,0.0,0.0,0.0,0.0,0.0,0.0,0.0,0.0,0.0,0.0,0.0,0.0,0.0,0.0,0.0,0.0,0.0,0.0,0.0,0.0,0.0,0.0,0.0,0.0,0.0,0.0,0.0,0.0,0.0,0.0,0.0,0.0,0.0,0.0,0.0,0.0,0.0,0.0,0.0,0.0,0.0,0.0,0.0,0.0,0.0,0.0,0.0,0.0,0.0,0.0,0.0,0.0,0.0,0.0,0.0,0.0,0.0,0.0,0.0,-2.2566,-2.2308,-2.286,-2.3009,-2.2717,-2.2406,-2.2529,0.0,0.0,0.0,0.0,0.0,0.0,0.0,0.0,0.0,0.0,0.0,0.0,0.0,0.0,0.0,0.0,0.0,0.0,0.0,0.0,0.0,0.0,0.0,0.0,0.0,0.0,0.0,0.0,0.0,0.0,0.0,0.0,0.0,0.0,0.0,0.0,0.0,0.0,0.0,0.0,0.0,0.0,0.0,0.0,0.0,0.0,0.0,0.0,0.0,0.0,0.0,0.0,0.0,0.0,0.0,0.0,0.0,0.0,0.0,0.0,0.0,0.0,0.0,0.0,0.0,0.0,0.0,0.0,0.0,0.0,0.0,0.0,0.0,0.0,0.0,0.0,0.0,0.0,0.0,0.0,0.0,0.0,0.0,0.0,0.0,0.0,0.0,0.0,0.0,0.0,0.0,0.0,0.0,0.0,0.0,0.0,0.0,0.0,0.0,0.0,0.0,0.0,0.0,0.0,0.0,0.0,0.0,-2.2429,-2.2175,-2.1188,-2.2221,-2.274,-2.2543,-2.2193,-2.217,-2.2558,0.0,0.0,0.0,0.0,0.0,0.0,0.0,0.0,0.0,0.0,0.0,0.0,0.0,0.0,0.0,0.0,0.0,0.0,0.0,0.0,0.0,0.0,0.0,0.0,0.0,0.0,0.0,0.0,0.0,0.0,0.0,0.0,0.0,0.0,0.0,0.0,0.0,0.0,-2.6623,-2.6708,0.0,0.0,0.0,0.0,0.0,0.0,0.0,0.0,-2.8102,0.0,0.0,0.0,0.0,0.0,0.0,0.0,0.0,0.0,0.0,0.0,0.0,0.0,0.0,0.0,0.0,0.0,0.0,0.0,0.0,0.0,0.0,0.0,0.0,0.0,0.0,0.0,0.0,0.0,0.0,0.0,0.0,0.0,0.0,0.0,0.0,0.0,0.0,0.0,0.0,0.0,0.0,0.0,0.0,0.0,0.0,0.0,0.0,0.0,0.0,0.0,0.0,0.0,0.0,0.0,0.0,-2.2558,-2.2649,-2.2603,-2.242,-2.3076,-2.295,-2.1946,-2.2786,-2.2846,-2.1946,0.0,0.0,0.0,0.0,0.0,0.0,0.0,0.0,0.0,0.0,0.0,0.0,0.0,0.0,0.0,0.0,0.0,0.0,0.0,0.0,0.0,0.0,0.0,0.0,0.0,0.0,0.0,0.0,0.0,0.0,0.0,0.0,0.0,0.0,0.0,0.0,0.0,0.0,0.0,-2.6708,-2.6725,0.0,0.0,0.0,0.0,0.0,0.0,0.0,0.0,-2.7996,0.0,0.0,0.0,0.0,0.0,0.0,0.0,0.0,0.0,0.0,0.0,0.0,0.0,0.0,0.0,0.0,0.0,0.0,0.0,0.0,0.0,0.0,0.0,0.0,0.0,0.0,0.0,0.0,0.0,0.0,0.0,0.0,0.0,0.0,0.0,0.0,0.0,0.0,0.0,0.0,0.0,0.0,0.0,0.0,0.0,0.0,0.0,0.0,0.0,0.0,0.0,0.0,0.0,0.0,0.0,-2.2184,-2.1894,-2.1547,-2.1234,-2.1819,-2.1866,-2.1283,-2.1819,-2.2184,0.0,0.0,0.0,0.0,0.0,0.0,0.0,0.0,0.0,0.0,0.0,0.0,0.0,0.0,0.0,0.0,0.0,0.0,0.0,0.0,0.0,0.0,0.0,0.0,0.0,0.0,0.0,0.0,0.0,0.0,0.0,0.0,0.0,0.0,0.0,0.0,0.0,0.0,0.0,0.0,-2.6708,-2.6708,-2.6708,0.0,0.0,0.0,0.0,0.0,0.0,-2.75,-2.7826,0.0,0.0,0.0,0.0,0.0,0.0,0.0,0.0,0.0,0.0,0.0,0.0,0.0,0.0,0.0,0.0,0.0,0.0,0.0,0.0,0.0,0.0,0.0,0.0,0.0,0.0,0.0,0.0,0.0,0.0,0.0,0.0,0.0,0.0,0.0,0.0,0.0,0.0,0.0,0.0,0.0,0.0,0.0,0.0,0.0,0.0,0.0,0.0,0.0,0.0,0.0,0.0,0.0,0.0,0.0,-2.1697,-2.1234,-2.0658,-2.0055,-2.0633,-2.0944,-2.0809,-2.0919,-2.1452,0.0,0.0,0.0,0.0,0.0,0.0,0.0,0.0,0.0,0.0,0.0,0.0,0.0,0.0,0.0,0.0,0.0,0.0,0.0,0.0,0.0,0.0,0.0,0.0,0.0,0.0,0.0,0.0,0.0,0.0,0.0,0.0,0.0,0.0,0.0,0.0,0.0,0.0,0.0,0.0,0.0,-2.6708,-2.6708,-2.6708,0.0,0.0,0.0,0.0,-2.6758,-2.7241,0.0,0.0,0.0,0.0,0.0,0.0,0.0,0.0,0.0,0.0,0.0,0.0,0.0,0.0,0.0,0.0,0.0,0.0,0.0,0.0,0.0,0.0,0.0,0.0,0.0,0.0,0.0,0.0,0.0,0.0,0.0,0.0,0.0,0.0,0.0,0.0,0.0,0.0,0.0,0.0,0.0,0.0,0.0,0.0,0.0,0.0,0.0,0.0,0.0,0.0,0.0,0.0,0.0,0.0,0.0,0.0,-2.172,-2.1625,-2.1293,-2.0733,-2.1293,-2.1342,-2.0833,-2.1318,-2.1649,0.0,0.0,0.0,0.0,0.0,0.0,0.0,0.0,0.0,0.0,0.0,0.0,0.0,0.0,0.0,0.0,0.0,0.0,0.0,0.0,0.0,0.0,0.0,0.0,0.0,0.0,0.0,0.0,0.0,0.0,0.0,0.0,0.0,0.0,0.0,0.0,0.0,0.0,0.0,0.0,0.0,-2.6708,-2.6708,-2.6708,-2.6708,0.0,0.0,-2.6741,-2.6708,-2.6791,0.0,0.0,0.0,0.0,0.0,0.0,0.0,0.0,0.0,0.0,0.0,0.0,0.0,0.0,0.0,0.0,0.0,0.0,0.0,0.0,0.0,0.0,0.0,0.0,0.0,0.0,0.0,0.0,0.0,0.0,0.0,0.0,0.0,0.0,0.0,0.0,0.0,0.0,0.0,0.0,0.0,0.0,0.0,0.0,0.0,0.0,0.0,0.0,0.0,0.0,0.0,0.0,0.0,0.0,0.0,-2.1489,-2.1172,-2.0805,-2.0509,-2.0245,-2.0496,-2.0496,-2.0258,-2.0471,-2.0964,0.0,0.0,0.0,0.0,0.0,0.0,0.0,0.0,0.0,0.0,0.0,0.0,0.0,0.0,0.0,0.0,0.0,0.0,0.0,0.0,0.0,0.0,0.0,0.0,0.0,0.0,0.0,0.0,0.0,0.0,0.0,0.0,0.0,0.0,0.0,0.0,0.0,0.0,0.0,0.0,0.0,0.0,-2.6708,-2.6708,0.0,0.0,0.0,-2.6708,-2.6708,0.0,0.0,0.0,0.0,0.0,0.0,0.0,0.0,0.0,0.0,0.0,0.0,0.0,0.0,0.0,0.0,0.0,0.0,0.0,0.0,0.0,0.0,0.0,0.0,0.0,0.0,0.0,0.0,0.0,0.0,0.0,0.0,0.0,0.0,0.0,0.0,0.0,0.0,0.0,0.0,0.0,0.0,0.0,0.0,0.0,0.0,0.0,0.0,0.0,0.0,0.0,0.0,0.0,0.0,0.0,0.0,0.0,-2.0809,-2.0131,-1.9798,-1.9798,-1.9936,-1.9962,-1.9811,-1.9936,0.0,0.0,0.0,0.0,0.0,0.0,0.0,0.0,0.0,0.0,0.0,0.0,0.0,0.0,0.0,0.0,0.0,0.0,0.0,0.0,0.0,0.0,0.0,0.0,0.0,0.0,0.0,-2.4027,0.0,0.0,0.0,0.0,0.0,0.0,0.0,0.0,0.0,0.0,0.0,0.0,0.0,0.0,-2.6708,-2.6708,-2.6708,-2.6708,0.0,0.0,-2.6708,-2.6708,-2.6708,-2.6708,0.0,0.0,0.0,0.0,0.0,0.0,0.0,0.0,0.0,0.0,0.0,0.0,0.0,0.0,0.0,0.0,0.0,0.0,0.0,0.0,0.0,0.0,0.0,0.0,0.0,0.0,0.0,0.0,0.0,0.0,0.0,0.0,0.0,0.0,0.0,0.0,0.0,0.0,0.0,0.0,0.0,0.0,0.0,0.0,0.0,0.0,0.0,0.0,0.0,0.0,0.0,0.0,0.0,0.0,-2.0809,-2.0784,-2.0156,-1.9811,-1.9823,-2.0352,-2.0377,-1.9836,-2.0352,-2.0949,0.0,0.0,0.0,0.0,0.0,0.0,0.0,0.0,0.0,0.0,0.0,0.0,0.0,0.0,0.0,0.0,0.0,0.0,0.0,0.0,0.0,0.0,0.0,0.0,0.0,0.0,0.0,0.0,0.0,0.0,0.0,0.0,0.0,0.0,0.0,0.0,0.0,0.0,0.0,0.0,0.0,-2.6708,-2.6708,-2.6708,-2.6708,0.0,-2.6708,-2.6708,-2.6708,-2.6708,-2.6708,-2.6708,0.0,0.0,0.0,0.0,0.0,0.0,0.0,0.0,0.0,0.0,0.0,0.0,0.0,0.0,0.0,0.0,0.0,0.0,0.0,0.0,0.0,0.0,0.0,0.0,0.0,0.0,0.0,0.0,0.0,0.0,0.0,0.0,0.0,0.0,0.0,0.0,0.0,0.0,0.0,0.0,0.0,0.0,0.0,0.0,0.0,0.0,0.0,0.0,0.0,0.0,0.0,0.0,0.0,-2.0527,-2.1206,-2.0661,-2.0489,-2.0828,-2.1094,-2.1094,-2.0853,-2.1081,-2.1317,0.0,0.0,0.0,0.0,0.0,0.0,0.0,0.0,0.0,0.0,0.0,0.0,0.0,0.0,0.0,0.0,0.0,0.0,0.0,0.0,0.0,0.0,0.0,0.0,0.0,0.0,0.0,0.0,-2.4204,-2.4552,-2.5411,0.0,0.0,0.0,0.0,0.0,0.0,0.0,0.0,0.0,0.0,-2.6708,-2.6708,-2.6708,0.0,0.0,-2.6708,-2.6708,-2.6708,-2.6708,-2.6708,-2.6708,-2.6841,0.0,0.0,0.0,0.0,0.0,0.0,0.0,0.0,0.0,0.0,0.0,0.0,0.0,0.0,0.0,0.0,0.0,0.0,0.0,0.0,0.0,0.0,0.0,0.0,0.0,0.0,0.0,0.0,0.0,0.0,0.0,0.0,0.0,0.0,0.0,0.0,0.0,0.0,0.0,0.0,0.0,0.0,0.0,0.0,0.0,0.0,0.0,0.0,0.0,0.0,0.0,0.0,-2.0717,-2.1481,-2.1131,-2.1119,-2.1481,-2.1656,-2.1656,-2.1521,-2.1685,-2.1754,0.0,0.0,0.0,0.0,0.0,0.0,0.0,0.0,0.0,0.0,0.0,0.0,0.0,0.0,0.0,0.0,0.0,0.0,0.0,0.0,0.0,0.0,0.0,0.0,0.0,0.0,0.0,0.0,-2.3752,-2.4266,-2.5316,0.0,0.0,0.0,0.0,0.0,0.0,0.0,0.0,0.0,0.0,-2.6708,-2.6708,-2.6708,-2.6708,-2.6708,-2.6708,-2.6759,-2.6996,-2.6843,-2.6759,-2.6996,0.0,0.0,0.0,0.0,0.0,0.0,0.0,0.0,0.0,0.0,0.0,0.0,0.0,0.0,0.0,0.0,0.0,0.0,0.0,0.0,0.0,0.0,0.0,0.0,0.0,0.0,0.0,-1.5439,0.0,0.0,-1.6514,0.0,0.0,0.0,0.0,0.0,0.0,0.0,0.0,0.0,0.0,0.0,0.0,0.0,0.0,0.0,0.0,0.0,0.0,0.0,0.0,0.0,0.0,-2.1455,-2.1493,-2.1506,-2.1481,-2.1531,-2.202,-2.2046,-2.1556,-2.2008,-2.2297,-2.23,0.0,0.0,0.0,0.0,0.0,0.0,0.0,0.0,0.0,0.0,0.0,0.0,0.0,0.0,0.0,0.0,0.0,0.0,0.0,0.0,0.0,0.0,0.0,0.0,0.0,0.0,-2.3595,-2.4074,-2.4776,0.0,0.0,0.0,0.0,0.0,0.0,0.0,0.0,0.0,-2.6691,-2.6708,-2.6708,-2.6708,-2.6708,-2.6708,-2.6708,-2.6708,-2.6945,-2.7638,-2.7182,-2.6945,0.0,0.0,0.0,0.0,0.0,0.0,0.0,0.0,0.0,0.0,0.0,0.0,0.0,0.0,0.0,0.0,0.0,0.0,0.0,0.0,0.0,0.0,0.0,0.0,0.0,0.0,0.0,-1.542,-1.541,0.0,0.0,0.0,0.0,0.0,0.0,0.0,0.0,0.0,0.0,0.0,-1.7594,-1.7852,0.0,0.0,0.0,0.0,0.0,0.0,0.0,0.0,0.0,0.0,0.0,0.0,-2.1845,-2.2506,-2.2209,-2.2221,-2.2573,-2.2732,-2.2744,-2.2569,-2.2732,-2.2832,-2.2819,0.0,0.0,0.0,0.0,0.0,0.0,0.0,0.0,0.0,0.0,0.0,0.0,0.0,0.0,0.0,0.0,0.0,0.0,0.0,0.0,0.0,0.0,0.0,0.0,0.0,-2.3595,0.0,0.0,0.0,0.0,0.0,0.0,0.0,0.0,0.0,0.0,0.0,-2.6261,-2.6244,-2.6244,-2.6349,-2.6657,-2.6708,-2.6708,0.0,0.0,0.0,0.0,0.0,0.0,0.0,0.0,0.0,0.0,0.0,0.0,0.0,0.0,-2.7272,-2.7794,-2.7978,-2.8061,-2.8061,0.0,0.0,0.0,0.0,0.0,0.0,0.0,0.0,0.0,0.0,0.0,0.0,0.0,0.0,-1.542,-1.542,-1.542,0.0,0.0,0.0,0.0,0.0,0.0,0.0,0.0,-1.634,-1.6368,-1.6856,-1.7079,-1.7557,-1.8224,-1.9242,-1.9646,0.0,0.0,0.0,0.0,0.0,0.0,0.0,0.0,-2.238,-2.3058,-2.2757,-2.2744,-2.3083,-2.3095,-2.3095,-2.3095,-2.3095,-2.3095,-2.3095,-2.2406,-2.2248,0.0,0.0,0.0,0.0,0.0,0.0,0.0,0.0,0.0,0.0,0.0,0.0,0.0,0.0,0.0,0.0,0.0,0.0,0.0,0.0,0.0,0.0,0.0,-2.3681,0.0,0.0,0.0,0.0,0.0,0.0,0.0,0.0,0.0,-2.5906,-2.5852,-2.5797,-2.5977,-2.5995,-2.6185,-2.6701,0.0,0.0,0.0,0.0,0.0,0.0,0.0,-2.8484,-2.9245,-2.9162,-2.8993,-2.8993,-2.8587,-2.8061,-2.7571,0.0,0.0,-2.7483,-2.7802,-2.8085,-2.8067,-2.8295,-2.8501,-2.8617,-2.8441,-2.8351,0.0,0.0,0.0,0.0,-1.542,0.0,0.0,0.0,-1.542,-1.542,0.0,-1.542,0.0,0.0,0.0,0.0,-1.5468,-1.614,0.0,0.0,-1.5469,-1.543,-1.5498,-1.623,-1.6804,-1.7301,-1.8834,-1.936,-1.9063,-2.0133,0.0,0.0,0.0,0.0,0.0,0.0,-2.3095,-2.3095,-2.3095,-2.3095,-2.3095,-2.3095,-2.3095,-2.3095,-2.3095,-2.3095,-2.3095,-2.3083,-2.3157,-2.328,-2.3947,0.0,0.0,0.0,0.0,0.0,0.0,0.0,0.0,0.0,0.0,0.0,0.0,0.0,0.0,0.0,0.0,0.0,0.0,0.0,0.0,-2.3595,0.0,0.0,0.0,0.0,0.0,0.0,0.0,0.0,0.0,0.0,-2.5828,-2.5519,-2.5389,-2.5937,0.0,0.0,0.0,0.0,-2.7844,-2.8059,-2.8572,-2.921,-2.9954,-2.9482,-2.9279,-3.0023,0.0,0.0,-2.9044,-2.9044,-2.901,-2.8993,-2.8925,-2.8536,-2.7097,-2.7739,-2.8399,-2.8416,-2.8952,-2.957,-2.9899,-2.935,-2.9126,-1.6141,0.0,0.0,0.0,0.0,-1.542,-1.542,-1.542,-1.542,-1.542,-1.542,-1.542,0.0,0.0,0.0,0.0,0.0,0.0,-1.5584,-1.543,-1.5762,-1.5899,-1.5949,-1.696,-1.7508,-1.7653,-1.8633,-1.9348,-1.9849,-2.0568,-2.0921,-2.0933,0.0,0.0,0.0,0.0,-2.3095,-2.3095,-2.3095,-2.3095,-2.3095,-2.3095,-2.3095,-2.3095,-2.3095,-2.3095,-2.3095,-2.3095,-2.311,-2.3141,-2.3435,0.0,0.0,0.0,0.0,0.0,0.0,0.0,0.0,0.0,0.0,0.0,0.0,0.0,0.0,0.0,0.0,0.0,0.0,0.0,-2.3595,-2.3595,-2.3659,0.0,0.0,0.0,0.0,0.0,0.0,0.0,0.0,0.0,-2.5408,-2.5011,-2.5041,0.0,0.0,-2.6106,-2.7548,-2.7548,-2.7534,-2.804,-2.8249,0.0,-2.9914,-2.9922,-3.004,-3.0768,-3.07,-3.0395,-2.9871,-2.9786,-2.9617,-2.9111,-2.8993,-2.884,-2.8485,-2.8591,-2.8833,-2.885,-2.9003,-2.9175,-2.9264,-2.912,-2.9082,-1.749,-1.7051,-1.6543,-1.6172,-1.5907,-1.5898,-1.5898,-1.5907,-1.5907,-1.5898,-1.5907,-1.5907,-1.5898,-1.5907,-1.5937,0.0,0.0,0.0,-1.5898,-1.5937,-1.6201,-1.6328,-1.6378,-1.705,-1.7449,-1.7674,-1.8424,-1.8984,-1.9355,-2.0695,-2.1165,-2.0908,0.0,-2.2769,-2.3095,-2.3095,-2.3095,-2.3095,-2.3095,-2.3095,-2.3095,-2.3095,-2.3095,-2.3095,-2.3095,-2.3095,-2.3095,-2.3095,-2.3095,-2.3095,-2.3473,-2.3574,0.0,0.0,0.0,0.0,0.0,0.0,0.0,0.0,0.0,0.0,0.0,-2.3595,-2.3595,0.0,0.0,0.0,-2.3595,-2.3595,-2.3595,-2.3595,0.0,0.0,0.0,0.0,0.0,0.0,0.0,-2.4859,-2.4396,-2.4364,-2.5331,-2.5138,-2.5238,-2.6215,-2.6039,-2.6289,-2.7614,0.0,-2.778,-2.8217,-2.8648,-2.9254,-3.0042,-3.0378,-3.07,-3.1123,-3.119,-3.1055,-3.0649,-3.0548,-3.048,-3.0364,-3.0296,-3.0398,-3.0702,-3.0734,-3.0395,-2.9617,-2.9687,-2.9873,-2.9873,-3.011,-3.0296,-1.9053,-1.8549,-1.7399,-1.6872,-1.6804,-1.6804,-1.6804,-1.6794,-1.6755,-1.6746,-1.6755,-1.6716,-1.6697,-1.6697,-1.6697,0.0,-1.6697,-1.6697,-1.6687,-1.6697,-1.6765,-1.6804,-1.6804,-1.6882,-1.7148,-1.7572,-1.83,-1.8461,-1.8299,-2.055,-2.1368,-2.0655,-2.2218,-2.3047,-2.3095,-2.3095,-2.3095,-2.3095,-2.3095,-2.3095,-2.3095,-2.3095,-2.3095,-2.3095,-2.3095,-2.3095,-2.3095,-2.3095,-2.3095,-2.3138,-2.3796,-2.3927,-2.336,0.0,0.0,0.0,0.0,0.0,0.0,0.0,0.0,0.0,0.0,0.0,0.0,0.0,0.0,0.0,-2.3595,0.0,-2.3595,-2.3595,0.0,0.0,0.0,-2.3684,-2.3684,-2.3751,-2.4014,-2.4619,0.0,0.0,-2.5576,-2.5689,-2.5892,-2.6419,-2.6456,-2.6671,-2.7365,-2.7884,-2.8331,-2.8544,-2.9509,-3.0243,-3.0401,-3.0929,-3.1345,-3.1495,-3.1376,-3.1444,-3.1427,-3.141,-3.1681,-3.2175,-3.2378,-3.2547,-3.3254,-3.3186,-3.278,-3.0768,-3.0937,-3.1376,-3.1393,-3.1833,-3.2242,-1.9228,-1.9111,-1.8809,-1.8311,-1.7715,-1.7705,-1.7715,-1.7686,-1.7373,-1.7227,-1.7217,-1.6843,-1.6697,-1.6697,-1.6697,-1.6697,-1.6697,-1.6697,-1.6697,-1.6746,-1.7402,-1.7705,-1.7734,-1.8369,-1.873,-1.8864,-1.9031,-1.9243,-1.9459,-2.0073,-2.0457,-2.0634,-2.1647,-2.2476,-2.3078,-2.3095,-2.3095,-2.3095,-2.3095,-2.3095,-2.3095,-2.3095,-2.3095,-2.3095,-2.3095,-2.3095,-2.3095,-2.3095,-2.3095,-2.3095,-2.3275,-2.3331,-2.3162,-2.3406,0.0,0.0,0.0,0.0,0.0,0.0,0.0,0.0,0.0,-2.3595,-2.3595,0.0,-2.3595,0.0,-2.3595,-2.3595,-2.3595,-2.3595,0.0,0.0,-2.4036,-2.435,-2.435,-2.4822,-2.5173,-2.536,-2.5352,-2.563,-2.6273,-2.6363,-2.6591,-2.7203,-2.6865,-2.6957,-2.8036,-2.7944,-2.8125,-2.9058,-2.9514,-3.0022,-3.0963,-3.1694,-3.223,-3.2782,-3.2865,-3.2882,-3.2844,-3.2882,-3.2912,-3.3119,-3.3136,-3.322,-3.3406,-3.3389,-3.3271,-3.2747,-3.2763,-3.2882,-3.2882,-3.3017,-3.3152,-2.0439,-2.042,-2.0244,-1.9835,-1.9368,-1.8818,-1.8584,-1.8555,-1.8365,-1.8232,-1.8247,-1.7969,-1.7871,-1.7871,-1.7871,-1.7871,-1.7871,-1.7837,-1.7871,-1.79,-1.8359,-1.8584,-1.8603,-1.9062,-1.9277,-1.9277,-1.9277,-1.9403,-1.9651,-2.0017,-2.0366,-2.0618,-2.1876,-2.2759,-2.3159,-2.3132,-2.3095,-2.3095,-2.3095,-2.3095,-2.3095,-2.3095,-2.3095,-2.3095,-2.3095,-2.3095,-2.3095,-2.3095,-2.3095,-2.3095,-2.3095,-2.3095,-2.3095,-2.3178,-2.3391,0.0,0.0,0.0,0.0,0.0,0.0,0.0,0.0,0.0,0.0,0.0,-2.3595,-2.3595,-2.3595,-2.3714,-2.4029,-2.4036,-2.4163,-2.4462,-2.4814,-2.5038,-2.5038,-2.5367,-2.5719,-2.6004,-2.6048,-2.6288,-2.6956,-2.7021,-2.7315,-2.7959,-2.775,-2.773,-2.8333,-2.8253,-2.8417,-2.9357,-2.9771,-3.0251,-3.1277,-3.1717,-3.2177,-3.2796,-3.2966,-3.3031,-3.3326,-3.3389,-3.3508,-3.3812,-3.388,-3.4015,-3.4281,-3.4366,-3.4366,-3.4366,-3.4366,-3.4129,-3.3537,-3.366,-3.388,-2.1409,-2.1422,-2.1171,-2.1057,-2.096,-1.9963,-1.9502,-1.948,-1.9385,-1.9336,-1.9277,-1.9277,-1.9277,-1.9277,-1.9277,-1.9277,-1.9277,-1.9277,-1.9277,-1.9287,-1.9346,-1.9375,-1.9365,-1.9424,-1.9443,-1.949,-1.9453,-1.9424,-1.9412,-2.0134,-2.0487,-2.0507,-2.2115,-2.2942,-2.2975,-2.3072,-2.3149,-2.3221,-2.3221,-2.3183,-2.3095,-2.3095,-2.3095,-2.3095,-2.3095,-2.3095,-2.3095,-2.3095,-2.3095,-2.3095,-2.3095,-2.3095,-2.3095,-2.3095,-2.3454,0.0,-2.376,0.0,0.0,0.0,0.0,0.0,0.0,0.0,0.0,-2.3849,-2.3864,-2.3864,-2.3864,-2.4103,-2.4679,-2.4724,-2.4963,-2.554,-2.5689,-2.5734,-2.5734,-2.5809,-2.6078,-2.6686,-2.6707,-2.6986,-2.763,-2.7735,-2.7974,-2.8577,-2.8697,-2.8753,-2.8858,-2.8786,-2.8978,-2.9609,-3.024,-3.0887,-3.1457,-3.1609,-3.1878,-3.2434,-3.2777,-3.2883,-3.3508,-3.3697,-3.3914,-3.4489,-3.4641,-3.4844,-3.5498,-3.5566,-3.5566,-3.5498,-3.5481,-3.5109,-3.4146,-3.4252,-3.4607,-1.8896,-1.8973,-1.988,-2.0221,-2.0259,-2.0654,-2.0664,-2.0341,-1.9951,-1.96,-1.9287,-1.9277,-1.9277,-1.9277,-1.9277,-1.9277,-1.9277,-1.9277,-1.9277,-1.9333,-1.9639,-1.9795,-1.9814,-2.0194,-2.0361,-2.0361,-2.0361,-2.0175,-1.9795,-1.9934,-1.9868,-1.9578,-2.0592,-2.1121,-2.118,0.0,0.0,0.0,-2.3828,-2.3572,-2.3133,-2.3095,-2.3095,-2.3095,-2.3095,0.0,-2.3095,-2.3095,-2.3095,-2.3095,-2.3095,0.0,0.0,0.0,0.0,0.0,0.0,0.0,0.0,0.0,0.0,0.0,-2.48,-2.4571,-2.5156,-2.5202,-2.5226,-2.5226,-2.5226,-2.5285,-2.5405,-2.5397,-2.5465,-2.56,-2.6093,-2.6393,-2.6422,-2.6896,-2.7285,-2.739,-2.7405,-2.7675,-2.8278,-2.8397,-2.8652,-2.9265,-2.9412,-2.9609,-3.0058,-2.9726,-2.9654,-3.025,-3.0857,-3.1554,-3.2264,-3.2298,-3.2458,-3.3249,-3.3852,-3.4147,-3.4279,-3.4784,-3.5143,-3.5341,-3.538,-3.5397,-3.5583,-3.5616,-3.5616,-3.5616,-3.5616,-3.5515,-3.5245,-3.5278,-3.5397,-1.9209,-1.972,-1.9488,-2.0109,0.0,-2.0772,-2.0859,-2.1212,-2.0518,-2.0117,-1.9959,-1.995,-1.995,-1.9959,-1.9959,-1.995,-1.9922,-1.9959,-1.9912,-1.9932,-2.0127,-2.0244,-2.0234,-2.0507,-2.0615,-2.0615,-2.0615,-2.0488,-2.0244,-2.0234,-2.0127,-1.995,-2.0841,-2.1308,-2.1345,-2.2693,-2.3714,-2.4387,-2.4406,-2.413,-2.359,-2.3534,-2.3396,-2.312,-2.3095,0.0,0.0,0.0,0.0,0.0,0.0,0.0,0.0,-2.3095,0.0,-2.3679,-2.3721,-2.4047,-2.4781,-2.4541,-2.4669,-2.5372,-2.5144,-2.5117,-2.5565,-2.56,-2.56,-2.56,-2.56,-2.5749,-2.6063,-2.6093,-2.6228,-2.6542,-2.6896,-2.7106,-2.7165,-2.769,-2.8094,-2.8139,-2.8393,-2.8738,-2.9026,-2.9086,-2.9382,-2.9951,-3.0043,-3.0268,-3.0806,-3.0447,-3.0283,-3.0896,-3.1241,-3.1625,-3.1951,-3.2048,-3.2299,-3.296,-3.3375,-3.3735,-3.4046,-3.4664,-3.5115,-3.5121,-3.5362,-3.56,-3.5616,-3.5616,-3.5616,-3.5616,-3.5616,-3.5616,-3.5616,-3.5616,-3.5616,-1.9434,-2.0217,-1.9077,-1.9893,-2.1873,-2.0656,-2.0801,-2.1836,-2.1025,0.0,0.0,-2.0644,-2.0615,-2.0615,-2.0615,-2.0615,-2.0615,-2.0693,-2.0684,-2.0684,-2.0801,-2.084,-2.083,-2.0752,-2.0723,-2.0713,-2.0654,-2.0615,-2.0615,-2.0615,-2.0615,-2.0683,-2.1375,-2.1811,-2.2038,-2.2813,-2.3659,-2.4516,-2.4669,-2.4534,-2.4155,-2.4142,-2.3879,-2.3271,-2.3258,-2.3208,-2.3108,-2.3095,-2.3095,-2.3095,-2.3095,-2.3095,-2.3095,-2.3095,-2.3095,-2.3095,-2.3095,-2.3395,-2.4031,-2.4076,-2.4394,-2.5161,-2.5315,-2.5508,-2.5755,-2.5753,-2.5839,-2.595,-2.5959,-2.6183,-2.6707,-2.6767,-2.7001,-2.754,-2.7705,-2.7779,-2.7809,-2.8353,-2.8771,-2.8831,-2.9205,-2.9666,-2.9741,-2.9771,-2.9968,-3.0522,-3.0687,-3.0838,-3.1286,-3.1031,-3.0853,-3.1331,-3.1466,-3.1496,-3.1496,-3.1553,-3.1754,-3.2315,-3.2532,-3.2788,-3.3339,-3.4071,-3.4552,-3.4664,-3.5144,-3.5532,-3.5616,-3.5616,-3.5616,-3.5616,-3.5616,-3.5616,-3.5616,-3.5616,-3.5616,-1.6473,-1.6648,-1.7492,-1.8654,-1.9932,-2.0403,-2.1103,-2.1846,-2.1317,-2.1103,-2.1083,-2.0732,-2.0615,-2.0615,-2.0615,-2.0615,-2.0635,-2.0967,-2.1093,-2.1122,-2.1533,-2.1699,-2.168,-2.1318,-2.1143,-2.1113,-2.0762,-2.0615,-2.0615,-2.0615,-2.0615,-2.0615,-2.0712,-2.1183,-2.1952,-2.214,-2.27,-2.3663,-2.4096,-2.4426,-2.4687,-2.4707,-2.4443,-2.3916,-2.3879,-2.3609,-2.3133,-2.3108,-2.3095,-2.3095,-2.3095,-2.3095,-2.3095,-2.3095,-2.3095,-2.3095,-2.3095,-2.3155,-2.3275,-2.3288,-2.3603,-2.4408,-2.5035,-2.5671,-2.6318,-2.6367,-2.6641,-2.7215,-2.7245,-2.7345,-2.745,-2.745,-2.751,-2.7645,-2.8124,-2.8457,-2.8457,-2.9056,-2.9445,-2.9472,-2.9547,-2.9834,-3.0298,-3.0372,-3.0612,-3.1167,-3.1241,-3.1376,-3.1436,-3.1421,-3.1406,-3.1481,-3.1496,-3.1496,-3.1496,-3.1496,-3.1582,-3.1626,-3.2203,-3.2532,-3.2695,-3.3659,-3.4382,-3.4552,-3.5005,-3.5447,-3.5554,-3.5616,-3.5577,-3.5577,-3.5616,-3.5616,-3.5616,-3.5616,-3.5616,-1.6204,-1.6763,-1.6709,-1.7762,-1.9526,-1.9892,-2.0271,-2.0534,-2.0098,-2.0546,-2.1531,-2.1407,-2.1329,-2.1329,-2.1329,-2.1319,-2.1339,-2.1494,-2.1592,-2.1602,-2.1787,-2.1936,-2.1916,-2.168,-2.1592,-2.1572,-2.1377,-2.1279,-2.1319,-2.131,-2.1212,-2.0928,-2.0723,-2.0828,-2.1231,-2.1231,-2.1745,-2.2702,-2.3962,-2.4571,-2.4484,-2.4971,-2.4983,-2.4456,-2.4443,-2.418,-2.3627,-2.3572,-2.3434,-2.312,-2.3095,-2.3095,-2.3095,-2.3095,-2.3095,-2.3095,-2.3095,-2.3095,-2.3095,-2.3095,-2.3245,-2.3619,-2.3959,-2.4496,-2.5259,-2.6041,-2.6642,-2.6982,-2.7342,-2.7585,-2.76,-2.7929,-2.8154,-2.8128,-2.8753,-2.9116,-2.919,-2.9684,-3.0073,-3.0118,-3.0417,-3.0746,-3.0987,-3.1032,-3.1107,-3.1466,-3.1496,-3.1496,-3.1496,-3.1496,-3.1496,-3.1496,-3.1496,-3.1496,-3.1496,-3.1496,-3.1496,-3.1496,-3.1768,-3.1994,-3.2064,-3.2891,-3.3427,-3.3556,-3.4062,-3.4633,-3.4965,-3.5035,-3.5191,-3.5577,-3.5616,-3.5616,-3.5616,-3.5616,-3.5616,-1.6393,-1.7178,-1.6204,-1.707,-1.9085,-1.9397,-1.9497,-1.9464,-1.9146,-1.9852,-2.1254,-2.1453,-2.1617,-2.1885,-2.1936,-2.1926,-2.1894,-2.1992,-2.2021,-2.2041,-2.2129,-2.2168,-2.2158,-2.208,-2.2021,-2.2012,-2.1975,-2.1936,-2.1936,-2.1936,-2.1719,-2.1337,-2.1035,-2.085,-2.0762,-2.0713,-2.1072,-2.1745,-2.3404,-2.433,-2.4422,-2.5098,-2.5303,-2.5013,-2.4963,-2.4745,-2.423,-2.4192,-2.3916,-2.3346,-2.3296,-2.3258,-2.3108,-2.3095,-2.3095,-2.3095,-2.3095,-2.3095,-2.3095,-2.3095,-2.3095,-2.3095,-2.3095,-2.3428,-2.4213,-2.5409,-2.6281,-2.647,-2.6912,-2.738,-2.7758,-2.8184,-2.8616,-2.8793,-2.94,-2.9801,-2.9834,-3.0357,-3.0731,-3.0806,-3.1197,-3.1466,-3.1496,-3.1496,-3.1481,-3.1481,-3.1496,-3.1496,-3.1496,-3.1496,-3.1496,-3.1496,-3.1496,-3.1496,-3.1496,-3.1496,-3.1496,-3.1496,-3.1524,-3.1553,-3.1682,-3.2148,-3.2559,-3.2761,-3.3209,-3.3912,-3.4471,-3.464,-3.4918,-3.5447,-3.5616,-3.5616,-3.5616,-3.5616,-3.5616,-1.5879,-1.5967,-1.5879,-1.6574,-1.7917,-1.8956,-1.9405,-1.9397,-1.9401,-1.9521,-1.9749,-2.0058,-2.0806,-2.1792,-2.1914,-2.1934,-2.1953,-2.2285,-2.2461,-2.25,-2.2808,-2.2974,-2.2896,-2.2627,-2.2461,-2.2412,-2.21,-2.1973,-2.1963,-2.1924,-2.1906,-2.1826,-2.1777,-2.1543,-2.1181,-2.1132,-2.1016,-2.076,-2.1745,-2.3125,-2.4838,-2.5004,-2.5206,-2.5548,-2.5523,-2.5285,-2.4738,-2.4713,-2.4494,-2.3979,-2.3916,-2.369,-2.3195,-2.312,-2.312,-2.3133,-2.3133,-2.3095,-2.312,-2.3095,-2.3145,-2.3095,-2.3158,-2.3401,-2.4039,-2.4797,-2.5531,-2.6068,-2.6284,-2.6933,-2.8052,-2.8323,-2.8718,-2.9465,-3.0058,-3.0417,-3.0492,-3.1002,-3.1421,-3.1421,-3.1436,-3.1496,-3.1496,-3.1496,-3.1496,-3.1496,-3.1496,-3.1496,-3.1496,-3.1496,-3.1496,-3.1496,-3.1496,-3.1496,-3.1496,-3.1496,-3.1496,-3.1496,-3.1496,-3.1496,-3.164,-3.2035,-3.2586,-3.2465,-3.2986,-3.3608,-3.4186,-3.4616,-3.4736,-3.527,-3.5532,-3.5616,-3.5616,-3.5616,-3.5616,-1.6092,-1.6072,-1.5899,-1.6109,-1.6615,-1.7117,-1.7296,-1.7296,-1.7296,-1.7708,-1.8434,-1.8598,-1.9725,-2.1547,-2.2265,-2.2627,-2.2646,-2.276,-2.2847,-2.2857,-2.3023,-2.3101,-2.3071,-2.2925,-2.2881,-2.2838,-2.2662,-2.2584,-2.2588,-2.2373,-2.2256,-2.2227,-2.2012,-2.1787,-2.1631,-2.1621,-2.1406,-2.1016,-2.1342,-2.2102,-2.3217,-2.4373,-2.5086,-2.5277,-2.5816,-2.5837,-2.5347,-2.5272,-2.5034,-2.4544,-2.4481,-2.4349,-2.4123,-2.4098,-2.4098,-2.4098,-2.4098,-2.4098,-2.4098,-2.4111,-2.4098,-2.4098,-2.4111,-2.4243,-2.4456,-2.4785,-2.5189,-2.578,-2.6341,-2.7136,-2.8154,-2.867,-2.9246,-3.0041,-3.0717,-3.1077,-3.1092,-3.1316,-3.1496,-3.1496,-3.1496,-3.1496,-3.1496,-3.1496,-3.1496,-3.1496,-3.1496,-3.1496,-3.1496,-3.1496,-3.1496,-3.1496,-3.1496,-3.1496,-3.1496,-3.1496,-3.1496,-3.1496,-3.1496,-3.1496,-3.1553,-3.1668,-3.1938,-3.1994,-3.2284,-3.2718,-3.3224,-3.3469,-3.3684,-3.456,-3.5424,-3.5616,-3.5616,-3.5616,-3.5616,-1.6393,-1.6353,-1.6159,-1.6066,-1.6066,-1.6072,-1.6072,-1.6052,-1.5992,-1.647,-1.7348,-1.7908,-1.9131,-2.0845,-2.2085,-2.2775,-2.3047,-2.3101,-2.3101,-2.3101,-2.3101,-2.3101,-2.3101,-2.3101,-2.3101,-2.3101,-2.3081,-2.3081,-2.3062,-2.2852,-2.2643,-2.2627,-2.2383,-2.2168,-2.207,-2.2051,-2.1846,-2.1445,-2.1375,-2.1531,-2.2004,-2.3468,-2.4439,-2.4647,-2.5581,-2.5862,-2.5466,-2.5724,-2.5586,-2.5059,-2.5034,-2.4971,-2.48,-2.48,-2.48,-2.48,-2.48,-2.48,-2.48,-2.48,-2.48,-2.48,-2.48,-2.4883,-2.4976,-2.5034,-2.5285,-2.5845,-2.647,-2.7172,-2.8033,-2.8787,-2.9549,-3.035,-3.1083,-3.1496,-3.1481,-3.1496,-3.1496,-3.1496,-3.1496,-3.1496,-3.1496,-3.1496,-3.1496,-3.1496,-3.1496,-3.1496,-3.1496,-3.1496,-3.1496,-3.1496,-3.1496,-3.1496,-3.1496,-3.1496,-3.1496,-3.1496,-3.1496,-3.1496,-3.1496,-3.1511,-3.1511,-3.171,-3.1553,-3.1809,-3.2668,-3.2815,-3.2922,-3.3987,-3.4823,-3.527,-3.523,-3.5424,-3.5577,-1.6687,-1.668,-1.6667,-1.6633,-1.6653,-1.664,-1.6647,-1.6593,-1.6366,-1.635,-1.6732,-1.8388,-1.9422,-1.9675,-2.0826,-2.1996,-2.3003,-2.3101,-2.3101,-2.3101,-2.3101,-2.3101,-2.3101,-2.3101,-2.3101,-2.3101,-2.3101,-2.3101,-2.3101,-2.3062,-2.3071,-2.3042,-2.2984,-2.2818,-2.2539,-2.248,-2.2275,-2.1904,-2.1855,-2.1681,-2.145,-2.2319,-2.308,-2.3578,-2.4552,-2.5122,-2.5157,-2.5975,-2.6185,-2.5586,-2.5561,-2.536,-2.4888,-2.487,-2.4895,-2.4863,-2.485,-2.487,-2.4895,-2.4921,-2.4888,-2.4883,-2.4938,-2.5059,-2.5511,-2.5573,-2.5799,-2.6408,-2.6468,-2.6902,-2.7623,-2.8402,-2.9254,-3.0123,-3.0955,-3.1307,-3.1409,-3.1322,-3.1467,-3.1438,-3.1467,-3.1496,-3.1496,-3.1496,-3.1496,-3.1496,-3.1496,-3.1496,-3.1496,-3.1496,-3.1496,-3.1496,-3.1496,-3.1496,-3.1496,-3.1496,-3.1496,-3.1496,-3.1496,-3.1496,-3.1496,-3.1496,-3.1496,-3.1496,-3.1496,-3.1768,-3.2355,-3.2722,-3.2922,-3.3572,-3.4186,-3.4552,-3.464,-3.5184,-3.5362,-1.6924,-1.6707,-1.6707,-1.6707,-1.6707,-1.6707,-1.6707,-1.6693,-1.66,-1.6547,-1.6682,-1.7386,-1.8104,-1.8858,-1.9288,-2.0853,-2.2989,-2.3101,-2.3101,-2.3101,-2.3101,-2.3101,-2.3101,-2.3101,-2.3101,-2.3101,-2.3101,-2.3101,-2.3101,-2.3101,-2.3101,-2.3101,-2.3101,-2.3003,-2.2896,-2.2877,-2.2705,-2.2334,-2.2285,-2.208,-2.166,-2.172,-2.1827,-2.2123,-2.3963,-2.5004,-2.5004,-2.5955,-2.6386,-2.6185,-2.6172,-2.6097,-2.5933,-2.5908,-2.5908,-2.5862,-2.5896,-2.5875,-2.5862,-2.5862,-2.5875,-2.5908,-2.5908,-2.59,-2.6135,-2.6197,-2.6273,-2.6436,-2.6487,-2.6679,-2.6973,-2.7683,-2.8524,-2.9317,-2.9735,-2.9966,-3.0011,-3.0359,-3.0733,-3.0792,-3.1117,-3.1496,-3.1467,-3.1496,-3.1496,-3.1496,-3.1496,-3.1496,-3.1496,-3.1496,-3.1496,-3.1496,-3.1496,-3.1496,-3.1496,-3.1496,-3.1496,-3.1496,-3.1496,-3.1496,-3.1496,-3.1496,-3.1496,-3.1496,-3.1496,-3.1553,-3.2064,-3.2462,-3.2734,-3.2962,-3.3575,-3.4032,-3.3946,-3.4448,-3.4673,-1.7174,-1.7001,-1.6987,-1.6987,-1.6994,-1.6987,-1.6994,-1.6981,-1.6887,-1.6847,-1.6884,-1.7141,-1.7725,-1.8508,-1.8935,-2.014,-2.2143,-2.2631,-2.3022,-2.3315,-2.335,-2.3227,-2.311,-2.3101,-2.3101,-2.3101,-2.3101,-2.3101,-2.3101,-2.3101,-2.3101,-2.3101,-2.3101,-2.3101,-2.3101,-2.3101,-2.2945,-2.2754,-2.2672,-2.251,-2.2109,-2.1807,-2.1531,-2.1709,-2.3275,-2.416,-2.4047,-2.5323,-2.6013,-2.606,-2.6314,-2.6487,-2.6487,-2.6487,-2.6487,-2.6487,-2.6474,-2.6487,-2.6487,-2.6487,-2.6487,-2.6487,-2.6487,-2.6487,-2.6487,-2.6487,-2.6487,-2.6487,-2.6487,-2.6487,-2.6589,-2.7007,-2.7637,-2.8427,-2.8812,-2.8989,-2.902,-2.9549,-2.9813,-3.0011,-3.0866,-3.1278,-3.1219,-3.138,-3.1467,-3.1496,-3.1496,-3.1496,-3.1496,-3.1496,-3.1496,-3.1496,-3.1496,-3.1496,-3.1496,-3.1496,-3.1496,-3.1496,-3.1496,-3.1496,-3.1496,-3.1496,-3.1496,-3.1496,-3.1511,-3.1496,-3.1728,-3.2177,-3.2451,-3.2622,-3.3123,-3.3715,-3.3657,-3.3633,-3.3965,-1.7562,-1.7535,-1.7575,-1.7522,-1.7502,-1.7502,-1.7549,-1.7475,-1.7306,-1.7199,-1.7275,-1.801,-1.828,-1.8659,-1.9401,-2.0273,-2.073,-2.1696,-2.2722,-2.3538,-2.3754,-2.3594,-2.3227,-2.3247,-2.3198,-2.3159,-2.311,-2.3101,-2.3101,-2.3101,-2.3101,-2.3101,-2.3101,-2.3101,-2.3101,-2.3091,-2.3091,-2.3042,-2.3033,-2.2847,-2.2568,-2.2441,-2.2227,-2.1967,-2.2539,-2.2629,-2.2197,-2.3998,-2.504,-2.5194,-2.5908,-2.6452,-2.6452,-2.6487,-2.6487,-2.6487,-2.6487,-2.6487,-2.6487,-2.6487,-2.6487,-2.6487,-2.6487,-2.6487,-2.6487,-2.6487,-2.6487,-2.6487,-2.6487,-2.6487,-2.6487,-2.6589,-2.6905,-2.7604,-2.8279,-2.8684,-2.8812,-2.8939,-2.8989,-2.9272,-3.0389,-3.1058,-3.0748,-3.1043,-3.1467,-3.1496,-3.1496,-3.1496,-3.1496,-3.1496,-3.1496,-3.1496,-3.1496,-3.1496,-3.1496,-3.1496,-3.1496,-3.1496,-3.1496,-3.1496,-3.1496,-3.1496,-3.1496,-3.1511,-3.175,-3.178,-3.1914,-3.2356,-3.2644,-3.2865,-3.3266,-3.3519,-3.351,-3.3505,-3.3525,-1.7589,-1.7589,-1.7589,-1.7589,-1.7589,-1.7589,-1.7589,-1.7582,-1.7527,-1.7448,-1.7533,-1.7757,-1.7864,-1.796,-1.8313,-1.8957,-1.9872,-2.0361,-2.1293,-2.2748,-2.376,-2.4095,-2.4023,-2.3958,-2.3857,-2.3574,-2.3227,-2.3101,-2.312,-2.311,-2.3101,-2.3101,-2.3101,-2.3101,-2.3101,-2.3101,-2.3101,-2.3101,-2.3101,-2.3013,-2.2877,-2.2656,-2.2441,-2.2337,-2.2215,-2.2069,-2.203,-2.3258,-2.4276,-2.4909,-2.53,-2.5769,-2.6349,-2.6487,-2.6487,-2.6487,-2.6487,-2.6487,-2.6487,-2.6487,-2.6487,-2.6487,-2.6487,-2.6487,-2.6487,-2.6487,-2.6487,-2.6487,-2.6487,-2.6487,-2.6487,-2.6487,-2.6696,-2.6837,-2.7142,-2.7384,-2.7484,-2.7822,-2.8363,-2.9002,-2.9981,-3.0464,-3.048,-3.094,-3.1351,-3.1438,-3.1438,-3.1438,-3.1496,-3.1496,-3.1496,-3.1496,-3.1496,-3.1496,-3.1496,-3.1496,-3.1496,-3.1496,-3.1496,-3.1496,-3.1496,-3.1511,-3.1496,-3.172,-3.1944,-3.2168,-3.2303,-3.2632,-3.3036,-3.3185,-3.3517,-3.3561,-3.3471,-3.343,-3.3411,-1.7589,-1.7589,-1.7589,-1.7589,-1.7589,-1.7589,-1.7589,-1.7589,-1.7589,-1.7589,-1.7582,-1.7635,-1.7589,-1.7589,-1.7589,-1.8042,-1.8864,-1.9324,-2.0218,-2.1546,-2.3153,-2.4011,-2.4351,-2.4424,-2.4297,-2.4043,-2.375,-2.3578,-2.3559,-2.3413,-2.3389,-2.3379,-2.3188,-2.3101,-2.3101,-2.3101,-2.3101,-2.3101,-2.3101,-2.3101,-2.3042,-2.2838,-2.2691,-2.2685,-2.2334,-2.2129,-2.2185,-2.2656,-2.327,-2.4101,-2.4645,-2.5488,-2.6383,-2.6487,-2.6487,-2.6487,-2.6487,-2.6487,-2.6487,-2.6487,-2.6487,-2.6487,-2.6487,-2.6487,-2.6487,-2.6487,-2.6487,-2.6487,-2.6487,-2.6587,-2.6751,-2.6801,-2.6876,-2.7102,-2.6795,-2.6524,-2.6611,-2.7217,-2.7637,-2.8247,-2.9052,-2.9504,-2.9566,-3.0056,-3.0718,-3.094,-3.1058,-3.1263,-3.138,-3.1496,-3.1496,-3.1496,-3.1496,-3.1496,-3.1496,-3.1496,-3.1496,-3.1496,-3.1496,-3.1496,-3.1496,-3.1511,-3.1525,-3.2079,-3.2422,-3.2796,-3.2976,-3.3469,-3.3873,-3.3858,-3.3858,-3.3921,-3.3923,-3.3412,-3.3272,-1.7589,-1.7589,-1.7589,-1.7589,-1.7589,-1.7589,-1.7589,-1.7589,-1.7589,-1.7589,-1.7589,-1.7589,-1.7589,-1.7589,-1.7589,-1.7687,-1.7845,-1.8812,-1.9509,-2.0288,-2.1726,-2.3114,-2.4134,-2.4431,-2.4512,-2.4453,-2.4365,-2.4346,-2.4248,-2.3965,-2.3828,-2.3789,-2.3393,-2.3149,-2.3179,-2.313,-2.3101,-2.3101,-2.3101,-2.3101,-2.3101,-2.3081,-2.3062,-2.3042,-2.2711,-2.2549,-2.2513,-2.233,-2.2332,-2.2861,-2.4386,-2.5587,-2.6263,-2.6468,-2.6587,-2.6524,-2.6487,-2.6487,-2.6487,-2.6487,-2.6487,-2.6487,-2.6487,-2.6487,-2.6487,-2.6487,-2.6537,-2.6625,-2.6612,-2.6813,-2.7241,-2.7366,-2.7544,-2.7846,-2.7256,-2.6801,-2.6694,-2.7322,-2.7561,-2.7306,-2.7987,-2.8775,-2.8351,-2.8957,-2.9677,-3.0223,-3.0499,-3.0893,-3.1235,-3.1441,-3.1497,-3.1496,-3.1511,-3.1496,-3.1496,-3.1496,-3.1496,-3.1496,-3.1511,-3.154,-3.163,-3.169,-3.1944,-3.2482,-3.3066,-3.338,-3.3724,-3.4173,-3.4487,-3.4547,-3.4547,-3.4563,-3.4339,-3.3918,-3.3545,-1.7589,-1.7589,-1.7589,-1.7589,-1.7589,-1.7589,-1.7589,-1.7589,-1.7589,-1.7589,-1.7589,-1.7589,-1.7589,-1.7589,-1.7589,-1.7589,-1.774,-1.7996,-1.876,-1.9561,-2.011,-2.1829,-2.3663,-2.4593,-2.4902,-2.4863,-2.4629,-2.4424,-2.4404,-2.4316,-2.4258,-2.4228,-2.3838,-2.3623,-2.3594,-2.3276,-2.311,-2.3101,-2.3101,-2.3101,-2.3101,-2.3101,-2.3101,-2.3081,-2.2974,-2.2916,-2.293,-2.2568,-2.2577,-2.3236,-2.5047,-2.5967,-2.5997,-2.657,-2.6882,-2.665,-2.6549,-2.6512,-2.6512,-2.6512,-2.6499,-2.6487,-2.6537,-2.6487,-2.6487,-2.6499,-2.6688,-2.6964,-2.7115,-2.7293,-2.7745,-2.7908,-2.8021,-2.8034,-2.7858,-2.7645,-2.763,-2.7837,-2.7873,-2.7837,-2.863,-2.891,-2.9021,-2.9396,-3.0052,-3.0359,-3.0605,-3.0929,-3.1254,-3.1397,-3.1441,-3.1482,-3.1525,-3.1511,-3.1496,-3.1496,-3.1496,-3.1496,-3.154,-3.1615,-3.1809,-3.2049,-3.2542,-3.3125,-3.3784,-3.4188,-3.4427,-3.4771,-3.4966,-3.5085,-3.5115,-3.5055,-3.4981,-3.4711,-3.4307,-1.7589,-1.7589,-1.7589,-1.7589,-1.7589,-1.7589,-1.7589,-1.7589,-1.7589,-1.7589,-1.7589,-1.7589,-1.7589,-1.7589,-1.7589,-1.7589,-1.7589,-1.7589,-1.8048,-1.8708,-1.9361,-2.1186,-2.3412,-2.4774,-2.5352,-2.5332,-2.504,-2.5,-2.4904,-2.4795,-2.4697,-2.4609,-2.4268,-2.4062,-2.4023,-2.3633,-2.3408,-2.3335,-2.3208,-2.3101,-2.3101,-2.3101,-2.3101,-2.3101,-2.3101,-2.3101,-2.3052,-2.2857,-2.3016,-2.3668,-2.4594,-2.5371,-2.6009,-2.6577,-2.7026,-2.7085,-2.7155,-2.7115,-2.6889,-2.6839,-2.6713,-2.66,-2.6663,-2.6826,-2.6914,-2.7027,-2.7344,-2.7557,-2.762,-2.7908,-2.836,-2.8662,-2.88,-2.8863,-2.8812,-2.8624,-2.8197,-2.8059,-2.8109,-2.8243,-2.8507,-2.8853,-2.8889,-2.935,-2.9709,-2.9996,-3.0146,-3.0723,-3.1332,-3.1385,-3.1501,-3.1664,-3.1691,-3.166,-3.1675,-3.1675,-3.1929,-3.1914,-3.2258,-3.2198,-3.2317,-3.2647,-3.3275,-3.3903,-3.4502,-3.4921,-3.504,-3.5145,-3.5265,-3.537,-3.5489,-3.5459,-3.5325,-3.522,-3.4876,-1.7589,-1.7589,-1.7589,-1.7589,-1.7589,-1.7589,-1.7589,-1.7589,-1.7589,-1.7589,-1.7589,-1.7589,-1.7589,-1.7589,-1.7589,-1.7589,-1.7589,-1.7589,-1.7641,-1.8146,-1.9013,-2.0853,-2.2717,-2.4454,-2.51,-2.5256,-2.5528,-2.5615,-2.5469,-2.5264,-2.5194,-2.5029,-2.4697,-2.4512,-2.4375,-2.4004,-2.3799,-2.3662,-2.332,-2.311,-2.3101,-2.3101,-2.3101,-2.3101,-2.3101,-2.3101,-2.3101,-2.3086,-2.3308,-2.3867,-2.3576,-2.4574,-2.6005,-2.6227,-2.6675,-2.7237,-2.7262,-2.7188,-2.7242,-2.7058,-2.7087,-2.6882,-2.7168,-2.7356,-2.7431,-2.7695,-2.7996,-2.8172,-2.8185,-2.8473,-2.895,-2.9465,-2.9603,-2.9578,-2.9679,-2.9264,-2.8586,-2.8285,-2.8285,-2.8285,-2.831,-2.8273,-2.8273,-2.8346,-2.864,-2.9797,-2.9971,-3.0426,-3.1109,-3.1411,-3.1733,-3.2135,-3.205,-3.1869,-3.1869,-3.1884,-3.2273,-3.2557,-3.3155,-3.332,-3.3185,-3.3514,-3.4144,-3.4713,-3.5011,-3.522,-3.534,-3.5444,-3.5489,-3.5489,-3.5489,-3.5489,-3.5474,-3.5415,-3.5175,-1.7589,-1.7589,-1.7589,-1.7589,-1.7589,-1.7589,-1.7589,-1.7589,-1.7589,-1.7589,-1.7589,-1.7589,-1.7589,-1.7589,-1.7589,-1.7589,-1.7589,-1.7589,-1.7589,-1.7786,-1.8961,-1.9731,-2.1049,-2.2876,-2.4048,-2.4304,-2.5226,-2.5635,-2.5586,-2.5528,-2.5538,-2.5498,-2.5156,-2.4979,-2.4834,-2.4258,-2.3799,-2.3721,-2.3379,-2.313,-2.3101,-2.3101,-2.3101,-2.3101,-2.3101,-2.3101,-2.3101,-2.3101,-2.3173,-2.3411,-2.3976,-2.4428,-2.4819,-2.5427,-2.5825,-2.5846,-2.5797,-2.5957,-2.6506,-2.6707,-2.7004,-2.7527,-2.7626,-2.7934,-2.7934,-2.8059,-2.836,-2.8624,-2.8762,-2.9001,-2.9453,-2.9691,-2.9779,-2.9779,-2.9779,-2.9691,-2.9465,-2.939,-2.9315,-2.9352,-2.934,-2.9415,-2.9377,-2.9302,-2.9479,-2.9719,-2.9897,-3.0177,-3.0717,-3.1333,-3.171,-3.2049,-3.2059,-3.1923,-3.2346,-3.2496,-3.2976,-3.3305,-3.3858,-3.4262,-3.4128,-3.4143,-3.4651,-3.504,-3.537,-3.5489,-3.5489,-3.5489,-3.5489,-3.5489,-3.5489,-3.5489,-3.5489,-3.5489,-3.5474,-1.7589,-1.7589,-1.7589,-1.7589,-1.7589,-1.7589,-1.7589,-1.7589,-1.7589,-1.7589,-1.7589,-1.7589,-1.7589,-1.7589,-1.7589,-1.7589,-1.7589,-1.7589,-1.7589,-1.774,-1.8349,-1.8603,-1.9013,-2.0641,-2.2064,-2.2818,-2.4097,-2.4716,-2.4864,-2.5382,-2.5654,-2.5684,-2.5478,-2.5391,-2.5312,-2.4697,-2.4326,-2.4053,-2.3662,-2.3315,-2.313,-2.3101,-2.3101,-2.3101,-2.3101,-2.3101,-2.3101,-2.3101,-2.3101,-2.3256,-2.3671,-2.4161,-2.442,-2.4919,-2.5262,-2.5583,-2.5596,-2.561,-2.6071,-2.6124,-2.6405,-2.7297,-2.7543,-2.8027,-2.8425,-2.8699,-2.9001,-2.9239,-2.9352,-2.949,-2.9741,-2.9779,-2.9779,-2.9779,-2.9779,-2.9779,-2.9779,-2.9779,-2.9779,-2.9779,-2.9716,-2.9729,-2.9779,-2.9779,-2.9793,-2.9758,-2.9808,-3.0067,-3.0596,-3.1145,-3.133,-3.1596,-3.1791,-3.2054,-3.2635,-3.3173,-3.3799,-3.4128,-3.4517,-3.4831,-3.4921,-3.4966,-3.5085,-3.5325,-3.5489,-3.5489,-3.5489,-3.5489,-3.5489,-3.5489,-3.5489,-3.5489,-3.5489,-3.5489,-3.5489,-1.7589,-1.7589,-1.7589,-1.7589,-1.7589,-1.7589,-1.7589,-1.7589,-1.7589,-1.7589,-1.7589,-1.7589,-1.7589,-1.7589,-1.7589,-1.7589,-1.7589,-1.7589,-1.7589,-1.7687,-1.774,-1.7845,-1.8146,-1.9013,-1.9973,-2.1194,-2.2667,-2.3375,-2.4048,-2.4766,-2.5323,-2.5577,-2.5674,-2.5615,-2.5557,-2.5283,-2.4824,-2.4502,-2.3984,-2.3603,-2.331,-2.3169,-2.3101,-2.3101,-2.3101,-2.3101,-2.3101,-2.3101,-2.3101,-2.3101,-2.3101,-2.3637,-2.4211,-2.4628,-2.4872,-2.5806,-2.5563,-2.5502,-2.5455,-2.5518,-2.5785,-2.6414,-2.6897,-2.7535,-2.8273,-2.8829,-2.9155,-2.9422,-2.951,-2.9716,-2.9779,-2.9779,-2.9779,-2.9779,-2.9779,-2.9779,-2.9779,-2.9779,-2.9779,-2.9779,-2.9779,-2.9779,-2.9779,-2.9779,-2.9779,-2.9779,-2.983,-2.9973,-3.0465,-3.095,-3.116,-3.1519,-3.1798,-3.2075,-3.2668,-3.2918,-3.3652,-3.4221,-3.467,-3.4996,-3.5222,-3.5355,-3.5325,-3.5385,-3.5489,-3.5489,-3.5489,-3.5489,-3.5489,-3.5489,-3.5489,-3.5489,-3.5489,-3.5489,-3.5489,-1.7589,-1.7589,-1.7589,-1.7589,-1.7589,-1.7589,-1.7589,-1.7589,-1.7589,-1.7589,-1.7589,-1.7589,-1.7589,-1.7589,-1.7589,-1.7589,-1.7589,-1.7589,-1.7589,-1.7589,-1.7589,-1.7589,-1.774,-1.7943,-1.8297,-1.8909,-2.0633,-2.2307,-2.3384,-2.3998,-2.4913,-2.5528,-2.5684,-2.5684,-2.5567,-2.5312,-2.5068,-2.4795,-2.4228,-2.3789,-2.3594,-2.331,-2.3101,-2.3101,-2.3101,-2.3101,-2.3101,-2.3101,-2.3101,-2.3101,-2.3101,-2.3212,-2.343,-2.3517,-2.3681,-2.3887,-2.4016,-2.431,-2.4693,-2.4914,-2.5456,-2.6218,-2.6545,-2.6631,-2.7123,-2.7785,-2.8307,-2.8648,-2.9157,-2.9714,-2.9779,-2.974,-2.9779,-2.9779,-2.9779,-2.9779,-2.9779,-2.9779,-2.9779,-2.9779,-2.9779,-2.9779,-2.9779,-2.9779,-2.9779,-2.9779,-2.9792,-2.983,-3.0075,-3.0567,-3.1008,-3.1481,-3.2,-3.228,-3.2632,-3.2716,-3.3071,-3.3662,-3.4134,-3.4578,-3.4876,-3.5329,-3.5489,-3.5472,-3.5489,-3.5489,-3.5489,-3.5489,-3.5489,-3.5489,-3.5489,-3.5489,-3.5489,-3.5489,-3.5489,-1.7589,-1.7589,-1.7589,-1.7589,-1.7589,-1.7589,-1.7589,-1.7589,-1.7589,-1.7589,-1.7589,-1.7589,-1.7589,-1.7589,-1.7589,-1.7589,-1.7589,-1.7589,-1.7589,-1.7589,-1.7589,-1.7589,-1.7589,-1.7589,-1.7589,-1.7943,-1.9057,-2.0786,-2.2667,-2.4205,-2.4864,-2.5479,-2.5684,-2.5684,-2.5654,-2.5547,-2.5273,-2.499,-2.4453,-2.3984,-2.3769,-2.3369,-2.312,-2.3101,-2.3101,-2.3101,-2.3101,-2.3101,-2.3101,-2.3101,-2.3101,-2.3101,-2.3101,-2.3101,-2.3101,-2.3101,-2.3135,-2.3299,-2.379,-2.3963,-2.4447,-2.541,-2.5641,-2.5975,-2.6389,-2.6982,-2.7279,-2.7533,-2.8227,-2.8949,-2.8897,-2.9404,-2.974,-2.9779,-2.9779,-2.9779,-2.9779,-2.9779,-2.9779,-2.9779,-2.9779,-2.9779,-2.9779,-2.9779,-2.9779,-2.9779,-2.9779,-2.9779,-2.9779,-3.0165,-3.0658,-3.0908,-3.1315,-3.1633,-3.1924,-3.2141,-3.2357,-3.2947,-3.338,-3.3822,-3.4259,-3.4624,-3.5133,-3.5439,-3.5472,-3.5311,-3.5489,-3.5489,-3.5489,-3.5489,-3.5489,-3.5489,-3.5489,-3.5489,-3.5474,-1.7589,-1.7589,-1.7589,-1.7589,-1.7589,-1.7589,-1.7589,-1.7589,-1.7589,-1.7589,-1.7589,-1.7589,-1.7589,-1.7589,-1.7589,-1.7589,-1.7589,-1.7589,-1.7589,-1.7589,-1.7589,-1.7589,-1.7589,-1.7589,-1.7641,-1.7687,-1.8356,-1.9109,-2.1245,-2.3335,-2.4707,-2.5226,-2.543,-2.5684,-2.5664,-2.5635,-2.5459,-2.5176,-2.4658,-2.4189,-2.3691,-2.3296,-2.3101,-2.3101,-2.3101,-2.3101,-2.3101,-2.3101,-2.3101,-2.3101,-2.3101,-2.3101,-2.3101,-2.3101,-2.3101,-2.3101,-2.3101,-2.3101,-2.3135,-2.3178,-2.3637,-2.4382,-2.4467,-2.4967,-2.5515,-2.5808,-2.6265,-2.6554,-2.7168,-2.7976,-2.8307,-2.891,-2.9314,-2.9443,-2.9573,-2.9702,-2.9495,-2.9534,-2.9779,-2.9779,-2.9779,-2.9779,-2.9779,-2.9779,-2.9779,-2.9779,-2.9779,-2.9779,-2.9779,-2.9779,-3.0101,-3.0177,-3.0419,-3.0771,-3.1044,-3.1328,-3.1646,-3.2128,-3.2415,-3.2713,-3.3255,-3.3719,-3.4225,-3.4606,-3.4986,-3.4872,-3.5166,-3.5489,-3.5489,-3.5489,-3.5489,-3.5489,-3.5489,-3.5429,-3.5385,-1.7589,-1.7589,-1.7589,-1.7589,-1.7589,-1.7589,-1.7589,-1.7589,-1.7589,-1.7589,-1.7589,-1.7589,-1.7589,-1.7589,-1.7589,-1.7589,-1.7589,-1.7589,-1.7589,-1.7589,-1.7589,-1.7589,-1.7589,-1.7589,-1.7589,-1.774,-1.861,-1.9376,-2.0282,-2.16,-2.2926,-2.389,-2.4815,-2.5635,-2.5372,-2.5372,-2.5654,-2.546,-2.4834,-2.4033,-2.3335,-2.313,-2.3101,-2.3101,-2.3101,-2.3101,-2.3101,-2.3101,-2.3101,-2.3101,-2.3101,-2.3101,-2.3101,-2.3101,-2.3101,-2.3101,-2.3101,-2.3101,-2.3101,-2.3101,-2.3135,-2.3507,-2.3474,-2.343,-2.3973,-2.4638,-2.5347,-2.6442,-2.6637,-2.6953,-2.755,-2.8176,-2.8307,-2.8727,-2.9209,-2.9028,-2.8819,-2.9534,-2.974,-2.9779,-2.9779,-2.9779,-2.9779,-2.9779,-2.9779,-2.9779,-2.9779,-2.9779,-2.9779,-2.9779,-2.9779,-2.9895,-2.996,-3.0241,-3.0381,-3.0633,-3.0871,-3.1315,-3.1462,-3.1683,-3.2285,-3.2784,-3.289,-3.329,-3.3788,-3.4407,-3.4747,-3.502,-3.5332,-3.528,-3.4981,-3.5175,-3.5489,-3.5385,-3.5055,-1.7589,-1.7589,-1.7589,-1.7589,-1.7589,-1.7589,-1.7589,-1.7589,-1.7589,-1.7589,-1.7589,-1.7589,-1.7589,-1.7589,-1.7589,-1.7589,-1.7589,-1.7589,-1.7589,-1.7589,-1.7589,-1.7589,-1.7589,-1.7589,-1.7589,-1.7793,-1.8094,-1.8251,-1.9117,-2.0538,-2.2106,-2.2517,-2.3176,-2.3791,-2.4452,-2.4559,-2.506,-2.517,-2.4816,-2.3949,-2.3325,-2.3101,-2.3101,-2.3101,-2.3101,-2.3101,-2.3101,-2.3101,-2.3101,-2.3101,-2.3101,-2.3101,-2.3101,-2.3101,-2.3101,-2.3101,-2.3101,-2.3101,-2.3101,-2.3101,-2.3101,-2.3101,-2.3101,-2.3178,-2.3212,-2.3551,-2.4006,-2.4478,-2.5189,-2.5797,-2.6521,-2.7429,-2.7522,-2.7855,-2.8581,-2.8621,-2.8569,-2.9365,-2.9779,-2.9779,-2.9779,-2.9779,-2.9779,-2.9779,-2.9779,-2.9779,-2.9779,-2.9779,-2.9779,-2.9779,-2.9779,-2.9818,-2.9818,-2.9895,-2.996,-3.0062,-3.0177,-3.0444,-3.0444,-3.0809,-3.1462,-3.1852,-3.1938,-3.2321,-3.2961,-3.3577,-3.4097,-3.4519,-3.4716,-3.4573,-3.4352,-3.4532,-3.4681,-3.4382,-3.4068,-1.6717,-1.7094,-1.7417,-1.7589,-1.7589,-1.7589,-1.7589,-1.7589,-1.7589,-1.7589,-1.7589,-1.7589,-1.7589,-1.7589,-1.7589,-1.7589,-1.7589,-1.7589,-1.7589,-1.7589,-1.7589,-1.7589,-1.7589,-1.7589,-1.7589,-1.7589,-1.774,-1.7793,-1.8297,-1.942,-2.0582,-2.1194,-2.1853,-2.2307,-2.2918,-2.3249,-2.366,-2.442,-2.4347,-2.3812,-2.3227,-2.3101,-2.3101,-2.3101,-2.3101,-2.3101,-2.3101,-2.3101,-2.3101,-2.3101,-2.3101,-2.3101,-2.3101,-2.3101,-2.3101,-2.3101,-2.3101,-2.3101,-2.3101,-2.3101,-2.3101,-2.3101,-2.3101,-2.3101,-2.3091,-2.3101,-2.3135,-2.3387,-2.3887,-2.4414,-2.5031,-2.6397,-2.6438,-2.686,-2.7585,-2.7827,-2.8108,-2.87,-2.9404,-2.9779,-2.9779,-2.9779,-2.9779,-2.9779,-2.9779,-2.9779,-2.9779,-2.9779,-2.9779,-2.9779,-2.9779,-2.9779,-2.9779,-2.9779,-2.9779,-2.9779,-2.9779,-2.9779,-2.9779,-2.996,-3.0696,-3.0945,-3.0983,-3.1513,-3.2105,-3.1983,-3.2095,-3.3099,-3.4025,-3.4004,-3.3903,-3.3724,-3.3634,-3.338,-3.323,-1.4395,-1.5689,-1.6982,-1.7529,-1.7589,-1.7589,-1.7589,-1.7589,-1.7589,-1.7589,-1.7589,-1.7589,-1.7589,-1.7589,-1.7589,-1.7589,-1.7589,-1.7589,-1.7589,-1.7589,-1.7589,-1.7589,-1.7589,-1.7589,-1.7589,-1.7589,-1.7589,-1.7589,-1.7635,-1.8048,-1.8961,-1.9679,-2.0479,-2.1397,-2.1879,-2.203,-2.2261,-2.2931,-2.3121,-2.3233,-2.2909,-2.2818,-2.295,-2.3003,-2.3047,-2.3101,-2.3101,-2.3101,-2.3101,-2.3101,-2.3101,-2.3101,-2.3101,-2.3101,-2.3101,-2.3101,-2.3101,-2.3101,-2.3101,-2.3101,-2.3101,-2.3101,-2.3101,-2.3101,-2.3101,-2.3101,-2.3101,-2.3101,-2.342,-2.38,-2.4372,-2.4957,-2.5368,-2.5577,-2.6254,-2.6801,-2.7168,-2.7735,-2.849,-2.9404,-2.965,-2.9443,-2.9624,-2.9585,-2.9779,-2.9779,-2.9779,-2.9779,-2.9779,-2.9779,-2.9779,-2.9779,-2.9779,-2.9779,-2.9779,-2.9779,-2.9779,-2.9779,-2.9779,-2.9779,-2.9998,-3.0101,-3.0355,-3.0495,-3.0955,-3.0517,-3.0365,-3.1493,-3.2536,-3.3245,-3.3379,-3.2853,-3.2795,-3.2751,-3.2647,-1.3642,-1.4126,-1.4722,-1.5962,-1.7589,-1.7589,-1.7589,-1.7589,-1.7589,-1.7589,-1.7582,-1.7589,-1.7589,-1.7589,-1.7589,-1.7589,-1.7589,-1.7589,-1.7589,-1.7589,-1.7589,-1.7589,-1.7589,-1.7589,-1.7589,-1.7589,-1.7589,-1.7589,-1.7589,-1.7589,-1.7793,-1.8551,-1.9132,-1.9672,-2.0148,-2.0935,-2.1244,-2.1205,-2.138,-2.1334,-2.1167,-2.1667,-2.1987,-2.1987,-2.2906,-2.3047,-2.3101,-2.3101,-2.3101,-2.3101,-2.3101,-2.3101,-2.3101,-2.3101,-2.3101,-2.3101,-2.3101,-2.3101,-2.3101,-2.3101,-2.3101,-2.3101,-2.3101,-2.3101,-2.3101,-2.3101,-2.3101,-2.3101,-2.3101,-2.3464,-2.3594,-2.4339,-2.4798,-2.4542,-2.484,-2.5599,-2.6171,-2.6737,-2.7331,-2.8159,-2.8557,-2.8636,-2.8976,-2.9378,-2.9585,-2.9779,-2.9779,-2.9779,-2.9779,-2.9779,-2.9779,-2.9779,-2.9779,-2.9779,-2.9779,-2.9779,-2.9779,-2.9779,-2.9779,-2.9779,-2.9779,-2.9818,-2.9998,-2.9998,-2.9974,-2.9899,-2.999,-3.0349,-3.0845,-3.1343,-3.1607,-3.1602,-3.1708,-3.1946,-3.1961,-1.224,-1.262,-1.2615,-1.4073,-1.6174,-1.634,-1.6287,-1.634,-1.6234,-1.6611,-1.6988,-1.7312,-1.7589,-1.7589,-1.7589,-1.7589,-1.7589,-1.7589,-1.7589,-1.7589,-1.7589,-1.7589,-1.7589,-1.7589,-1.7589,-1.7589,-1.7589,-1.7589,-1.7589,-1.7589,-1.7613,-1.756,-1.7553,-1.8195,-1.8811,-1.9744,-2.0135,-1.987,-1.9964,-1.9785,-1.977,-2.0305,-2.0755,-2.0944,-2.1854,-2.2394,-2.2589,-2.2775,-2.3101,-2.3101,-2.3101,-2.3101,-2.3101,-2.3101,-2.3101,-2.3101,-2.3101,-2.3101,-2.3101,-2.3101,-2.3101,-2.3101,-2.3101,-2.3101,-2.3101,-2.3101,-2.3101,-2.3101,-2.3101,-2.3091,-2.3135,-2.3757,-2.3963,-2.3757,-2.4092,-2.4766,-2.521,-2.5744,-2.6213,-2.6842,-2.7197,-2.7654,-2.8028,-2.8462,-2.9157,-2.9495,-2.9779,-2.9779,-2.9779,-2.9779,-2.9779,-2.9779,-2.9779,-2.9779,-2.9779,-2.9779,-2.9779,-2.9779,-2.9779,-2.9779,-2.9779,-2.9779,-2.9779,-2.9856,-2.9783,-2.9516,-2.9402,-2.9369,-2.9281,-2.9256,-2.9732,-3.0317,-3.0531,-3.0755,-3.1101,-0.9915,-1.1109,-1.116,-1.2023,-1.3372,-1.3426,-1.3588,-1.3911,-1.3965,-1.4615,-1.5849,-1.6935,-1.7589,-1.7589,-1.7589,-1.7589,-1.7589,-1.7589,-1.7589,-1.7589,-1.7589,-1.7589,-1.7589,-1.7589,-1.7549,-1.7628,-1.7581,-1.7495,-1.7502,-1.7428,-1.7335,-1.7194,-1.7159,-1.7268,-1.7337,-1.7851,-1.8167,-1.8283,-1.8986,-1.9058,-1.9093,-1.926,-1.9488,-1.9807,-2.098,-2.1658,-2.1845,-2.2677,-2.3047,-2.3101,-2.3101,-2.3101,-2.3101,-2.3101,-2.3101,-2.3101,-2.3101,-2.3101,-2.3101,-2.3101,-2.3101,-2.3101,-2.3101,-2.3101,-2.3101,-2.3101,-2.3101,-2.3101,-2.3101,-2.3101,-2.3135,-2.3169,-2.3169,-2.3299,-2.3681,-2.393,-2.4382,-2.4585,-2.5094,-2.5473,-2.6058,-2.6607,-2.6964,-2.7452,-2.845,-2.9067,-2.9611,-2.9779,-2.974,-2.9779,-2.9779,-2.9779,-2.9779,-2.9779,-2.9779,-2.9779,-2.9779,-2.9779,-2.9779,-2.9779,-2.9779,-2.9779,-2.9779,-2.9779,-2.968,-2.953,-2.8811,-2.8181,-2.8127,-2.8171,-2.8688,-2.9184,-2.9348,-2.9659,-3.0072,-0.921,-0.9644,-0.9644,-0.9915,-1.0621,-1.2507,-1.3264,-1.348,-1.4234,-1.4931,-1.563,-1.6988,-1.7589,-1.7589,-1.7516,-1.7509,-1.7569,-1.7589,-1.7589,-1.7562,-1.7542,-1.7589,-1.7569,-1.7495,-1.7507,-1.7387,-1.734,-1.7174,-1.6981,-1.7061,-1.6994,-1.6847,-1.6707,-1.6737,-1.6807,-1.6994,-1.6898,-1.6891,-1.7035,-1.7023,-1.7163,-1.7855,-1.8319,-1.8403,-2.0116,-2.1016,-2.1114,-2.2129,-2.2775,-2.2916,-2.296,-2.3003,-2.3047,-2.3101,-2.3101,-2.3101,-2.3101,-2.3101,-2.3101,-2.3101,-2.3101,-2.3101,-2.3101,-2.3101,-2.3101,-2.3101,-2.3101,-2.3101,-2.3101,-2.3101,-2.3135,-2.3135,-2.3135,-2.3135,-2.3343,-2.3353,-2.3594,-2.3584,-2.3844,-2.4135,-2.4638,-2.5641,-2.6224,-2.6419,-2.725,-2.8039,-2.8542,-2.9365,-2.9573,-2.9702,-2.9779,-2.9779,-2.9779,-2.9779,-2.9779,-2.9779,-2.9779,-2.9779,-2.9779,-2.9779,-2.9779,-2.9779,-2.9779,-2.9779,-2.9654,-2.9465,-2.8599,-2.7794,-2.73,-2.7299,-2.7842,-2.8376,-2.8716,-2.9002,-2.9317,-0.8807,-0.8811,-0.8865,-0.8937,-0.921,-1.0996,-1.1755,-1.2023,-1.3264,-1.3906,-1.418,-1.5423,-1.6399,-1.6632,-1.6773,-1.7219,-1.7369,-1.7308,-1.7275,-1.7281,-1.7268,-1.7228,-1.7241,-1.7288,-1.7128,-1.7021,-1.7032,-1.6887,-1.6774,-1.672,-1.666,-1.652,-1.6279,-1.6259,-1.6273,-1.6228,-1.6189,-1.6176,-1.6211,-1.6055,-1.6244,-1.6615,-1.7037,-1.7537,-1.8672,-1.9943,-2.0359,-2.1087,-2.2085,-2.2315,-2.2501,-2.2677,-2.2862,-2.3047,-2.3091,-2.3101,-2.3101,-2.3101,-2.3101,-2.3101,-2.3101,-2.3101,-2.3101,-2.3101,-2.3101,-2.3101,-2.3101,-2.3101,-2.3101,-2.3101,-2.3101,-2.3101,-2.3101,-2.3101,-2.3101,-2.3144,-2.3135,-2.3212,-2.3256,-2.3464,-2.3671,-2.4638,-2.5305,-2.5641,-2.6005,-2.6719,-2.7424,-2.8291,-2.9157,-2.9365,-2.9456,-2.9495,-2.9624,-2.9702,-2.974,-2.9779,-2.9779,-2.9779,-2.9779,-2.9779,-2.9779,-2.9779,-2.9779,-2.9767,-2.9666,-2.9302,-2.8285,-2.7515,-2.6978,-2.6811,-2.7019,-2.7537,-2.8084,-2.833,-2.8556,-0.8703,-0.8726,-0.8862,-0.891,-0.8916,-0.9157,-0.9123,-0.9151,-1.0566,-1.1265,-1.1361,-1.3009,-1.4259,-1.5141,-1.5065,-1.5555,-1.6369,-1.6367,-1.6467,-1.6535,-1.6449,-1.6555,-1.6757,-1.6807,-1.6787,-1.6734,-1.6673,-1.664,-1.6653,-1.6533,-1.6406,-1.6259,-1.6025,-1.5931,-1.5898,-1.5932,-1.5905,-1.5892,-1.5872,-1.5825,-1.5967,-1.592,-1.615,-1.6615,-1.7483,-1.8226,-1.868,-1.936,-2.0359,-2.0899,-2.1257,-2.1943,-2.2448,-2.2906,-2.296,-2.3003,-2.296,-2.3101,-2.3101,-2.3101,-2.3101,-2.3101,-2.3101,-2.3101,-2.3101,-2.3101,-2.3101,-2.3101,-2.3101,-2.3101,-2.3101,-2.3101,-2.3101,-2.3101,-2.3101,-2.3101,-2.3101,-2.3135,-2.3135,-2.3178,-2.3222,-2.3681,-2.3887,-2.4221,-2.4893,-2.5221,-2.5922,-2.6707,-2.7614,-2.8621,-2.874,-2.8922,-2.9131,-2.9534,-2.9585,-2.9495,-2.9779,-2.9779,-2.9779,-2.9779,-2.9779,-2.974,-2.9779,-2.9754,-2.9691,-2.9176,-2.8235,-2.7381,-2.6697,-2.6611,-2.6714,-2.6803,-2.7351,-2.7504,-2.7723,-0.8547,-0.8554,-0.8598,-0.8615,-0.8611,-0.8615,-0.873,-0.9082,-1.0457,-1.1042,-1.1063,-1.2438,-1.3119,-1.3522,-1.3453,-1.3735,-1.3912,-1.4134,-1.4671,-1.4933,-1.5225,-1.5903,-1.6323,-1.6484,-1.6524,-1.646,-1.6373,-1.6306,-1.6132,-1.6106,-1.6106,-1.5884,-1.5885,-1.5832,-1.5825,-1.5825,-1.5825,-1.5825,-1.5825,-1.5825,-1.5825,-1.5825,-1.5825,-1.615,-1.6897,-1.7404,-1.7816,-1.8634,-1.9534,-1.9898,-2.0034,-2.035,-2.0395,-2.0584,-2.0719,-2.1845,-2.2448,-2.3101,-2.3101,-2.3091,-2.3003,-2.3003,-2.3047,-2.3091,-2.3101,-2.3101,-2.3101,-2.3101,-2.3101,-2.3101,-2.3101,-2.3101,-2.3101,-2.3101,-2.3101,-2.3101,-2.3101,-2.3101,-2.3101,-2.3101,-2.3101,-2.3135,-2.3212,-2.3343,-2.3973,-2.4049,-2.4425,-2.5252,-2.6213,-2.7209,-2.7879,-2.8091,-2.8291,-2.8581,-2.8949,-2.8988,-2.9443,-2.9779,-2.9495,-2.9404,-2.9573,-2.9573,-2.9702,-2.9628,-2.9365,-2.8888,-2.8235,-2.7381,-2.6537,-2.6487,-2.6555,-2.6521,-2.6555,-2.6837,-2.7027,-0.8397,-0.8408,-0.8462,-0.8535,-0.8535,-0.8535,-0.8598,-0.8902,-0.9719,-1.0014,-1.0042,-1.0765,-1.1476,-1.1953,-1.1867,-1.2115,-1.277,-1.2751,-1.3048,-1.3347,-1.3668,-1.4461,-1.5189,-1.5665,-1.5787,-1.589,-1.6086,-1.6025,-1.5858,-1.5825,-1.5838,-1.5804,-1.5825,-1.5825,-1.5825,-1.5825,-1.5825,-1.5825,-1.5825,-1.5825,-1.5825,-1.5825,-1.5825,-1.5967,-1.6756,-1.6897,-1.7037,-1.794,-1.8218,-1.868,-1.8772,-1.9085,-1.9314,-1.9588,-1.967,-2.0666,-2.1033,-2.1409,-2.1498,-2.2085,-2.2262,-2.2536,-2.2765,-2.3091,-2.3101,-2.3101,-2.3101,-2.3101,-2.3101,-2.3101,-2.3101,-2.3101,-2.3101,-2.3101,-2.3101,-2.3101,-2.3101,-2.3101,-2.3101,-2.3101,-2.3101,-2.3101,-2.3091,-2.3101,-2.3135,-2.343,-2.3594,-2.3963,-2.4967,-2.6099,-2.676,-2.7098,-2.7302,-2.7504,-2.7867,-2.8119,-2.8291,-2.8371,-2.8079,-2.8171,-2.8831,-2.9197,-2.9157,-2.9046,-2.8888,-2.8473,-2.8109,-2.7218,-2.6487,-2.6487,-2.6487,-2.6487,-2.6487,-2.6589,-2.6679,-0.8252,-0.8262,-0.8446,-0.8425,-0.8445,-0.8428,-0.8435,-0.8445,-0.8549,-0.8507,-0.8615,-0.8567,-0.9424,-1.025,-1.0201,-1.07,-1.1116,-1.1222,-1.1373,-1.177,-1.1894,-1.2634,-1.3548,-1.38,-1.4238,-1.5054,-1.5553,-1.5497,-1.575,-1.5825,-1.5825,-1.5825,-1.5825,-1.5825,-1.5825,-1.5825,-1.5825,-1.5825,-1.5825,-1.5825,-1.5825,-1.5825,-1.5825,-1.5825,-1.592,-1.592,-1.592,-1.6103,-1.6339,-1.7131,-1.7684,-1.8087,-1.8495,-1.9131,-1.9268,-1.9497,-1.9815,-2.0042,-2.0314,-2.0764,-2.1069,-2.1525,-2.2129,-2.2227,-2.2138,-2.2862,-2.3047,-2.3091,-2.3101,-2.3101,-2.3101,-2.3101,-2.3101,-2.3101,-2.3101,-2.3101,-2.3101,-2.3101,-2.3101,-2.3101,-2.3101,-2.3101,-2.3101,-2.3101,-2.3101,-2.3144,-2.3178,-2.3299,-2.38,-2.4978,-2.5442,-2.5933,-2.6182,-2.6337,-2.6543,-2.6748,-2.6801,-2.6771,-2.6719,-2.7087,-2.7839,-2.8239,-2.8557,-2.8521,-2.8536,-2.8349,-2.7934,-2.7128,-2.6549,-2.6487,-2.6487,-2.6487,-2.6487,-2.6487,-2.6487,-0.8042,-0.8096,-0.8079,-0.8096,-0.8147,-0.8096,-0.815,-0.8096,-0.8096,-0.8218,-0.8306,-0.8361,-0.8463,-0.8769,-0.8783,-0.9099,-0.9168,-0.9644,-0.9661,-1.0145,-1.0435,-1.117,-1.2188,-1.2425,-1.2721,-1.306,-1.3734,-1.4895,-1.5486,-1.5683,-1.5825,-1.5825,-1.5825,-1.5825,-1.5825,-1.5825,-1.5825,-1.5825,-1.5825,-1.5825,-1.5825,-1.5825,-1.5825,-1.5825,-1.5825,-1.5825,-1.5825,-1.5872,-1.5967,-1.6251,-1.6244,-1.6426,-1.6655,-1.763,-1.8048,-1.828,-1.8818,-1.9039,-1.9268,-1.9534,-1.9852,-1.9988,-2.0314,-2.0314,-2.0863,-2.2227,-2.3003,-2.3003,-2.3101,-2.3101,-2.3101,-2.3101,-2.3101,-2.3101,-2.3101,-2.3101,-2.3101,-2.3101,-2.3101,-2.3101,-2.3101,-2.3101,-2.3101,-2.3101,-2.3101,-2.3101,-2.3101,-2.3178,-2.3178,-2.3854,-2.3973,-2.4435,-2.4967,-2.5168,-2.5336,-2.5515,-2.5599,-2.5891,-2.6058,-2.6419,-2.6842,-2.7452,-2.7952,-2.818,-2.8191,-2.8027,-2.7724,-2.7128,-2.6675,-2.6549,-2.6487,-2.6487,-2.6487,-2.6487,-2.6487,-0.7988,-0.7988,-0.7988,-0.7988,-0.7988,-0.7988,-0.7988,-0.7988,-0.7988,-0.8085,-0.816,-0.8163,-0.8119,-0.7992,-0.7988,-0.7988,-0.7988,-0.8038,-0.8531,-0.897,-0.9361,-0.9998,-1.0583,-1.1072,-1.1653,-1.2042,-1.3247,-1.4364,-1.4956,-1.5635,-1.5825,-1.573,-1.573,-1.573,-1.5778,-1.5778,-1.5825,-1.5825,-1.5825,-1.5825,-1.5825,-1.5825,-1.5825,-1.5825,-1.5825,-1.5825,-1.5825,-1.5825,-1.5825,-1.5825,-1.5872,-1.5872,-1.6103,-1.6527,-1.681,-1.699,-1.7343,-1.784,-1.8025,-1.8349,-1.8626,-1.8718,-1.9351,-1.967,-1.9815,-2.1033,-2.1623,-2.1765,-2.2916,-2.3047,-2.3101,-2.3101,-2.3101,-2.3101,-2.3101,-2.3101,-2.3101,-2.3101,-2.3101,-2.3101,-2.3101,-2.3101,-2.3101,-2.3101,-2.3101,-2.3101,-2.3101,-2.3101,-2.3101,-2.3101,-2.3101,-2.3222,-2.392,-2.4039,-2.4092,-2.4307,-2.4478,-2.4851,-2.5221,-2.5347,-2.5588,-2.6666,-2.7371,-2.7589,-2.7729,-2.7704,-2.7346,-2.6914,-2.67,-2.6512,-2.6487,-2.6487,-2.6487,-2.6487,-2.6487,-0.7988,-0.7988,-0.7988,-0.7988,-0.7988,-0.7988,-0.7988,-0.7988,-0.7988,-0.7988,-0.8002,-0.8002,-0.7988,-0.7988,-0.7988,-0.7988,-0.7988,-0.7988,-0.8088,-0.8137,-0.8134,-0.8871,-0.941,-0.9805,-1.0485,-1.1361,-1.2425,-1.3102,-1.3638,-1.4316,-1.4806,-1.5242,-1.5486,-1.554,-1.5588,-1.5778,-1.5825,-1.5825,-1.5825,-1.5825,-1.5825,-1.5825,-1.5825,-1.5825,-1.5825,-1.5825,-1.5825,-1.5825,-1.5825,-1.5825,-1.5825,-1.5825,-1.5825,-1.6015,-1.5967,-1.615,-1.6244,-1.6332,-1.6332,-1.703,-1.7264,-1.7677,-1.8626,-1.8985,-1.8985,-1.9443,-1.9988,-2.0719,-2.1819,-2.2457,-2.2501,-2.2545,-2.2545,-2.2633,-2.2633,-2.2916,-2.296,-2.3003,-2.3003,-2.3003,-2.3047,-2.3047,-2.3101,-2.3101,-2.3101,-2.3101,-2.3101,-2.3101,-2.3101,-2.3101,-2.3101,-2.3101,-2.3387,-2.3387,-2.3212,-2.343,-2.381,-2.3767,-2.4102,-2.4135,-2.4425,-2.5493,-2.6405,-2.6984,-2.7073,-2.7091,-2.7139,-2.6882,-2.6699,-2.6383,-2.6487,-2.6487,-2.6487,-2.6487,-2.6487,-0.7988,-0.7988,-0.7988,-0.7988,-0.7988,-0.7988,-0.7988,-0.7988,-0.7988,-0.7988,-0.7988,-0.7988,-0.7988,-0.7988,-0.7988,-0.7988,-0.7988,-0.7988,-0.7988,-0.7988,-0.7988,-0.8233,-0.8432,-0.8825,-0.9312,-1.0141,-1.097,-1.1361,-1.2231,-1.2673,-1.2721,-1.2915,-1.4028,-1.4268,-1.4418,-1.4806,-1.5391,-1.5289,-1.5391,-1.5391,-1.5635,-1.5683,-1.5778,-1.5825,-1.5825,-1.5825,-1.5825,-1.5825,-1.5825,-1.5825,-1.5825,-1.5825,-1.5825,-1.5825,-1.5825,-1.5825,-1.5825,-1.5825,-1.6062,-1.6244,-1.6527,-1.648,-1.7063,-1.6976,-1.7257,-1.777,-1.8218,-1.8495,-1.9505,-2.0223,-2.0404,-2.0539,-2.0584,-2.0854,-2.0989,-2.1898,-2.2448,-2.2589,-2.2677,-2.2775,-2.2862,-2.296,-2.3101,-2.3101,-2.3101,-2.3101,-2.3101,-2.3101,-2.3101,-2.3101,-2.3101,-2.3101,-2.3101,-2.3101,-2.3135,-2.3135,-2.3343,-2.3178,-2.3135,-2.3474,-2.3887,-2.4414,-2.5177,-2.5945,-2.6359,-2.6441,-2.6491,-2.6323,-2.6369,-2.6129,-2.6383,-2.6487,-2.6487,-2.6487,-2.6487]}]]